GFSSE_925_thetae_000.txt.gz
Theta_e
347 348 349 351 352 348 350 351 350 350 348 348 347 341 339 338 338 339 339 339 342 341 341 341 341 339 339 342 343 343 343 343 343 345 339 345 346 340 343 346 347 340 345
348 348 348 351 353 352 352 350 349 349 348 348 347 341 339 339 341 343 342 342 343 343 343 345 343 341 342 342 342 342 343 342 343 342 346 349 349 346 346 347 346 345 345
348 349 350 351 352 352 348 347 346 348 346 349 345 340 341 343 343 343 345 345 345 344 346 345 343 343 342 343 343 343 343 342 343 348 342 342 344 349 349 348 345 346 345
348 348 350 349 347 347 349 349 349 349 343 341 340 339 339 339 341 342 341 341 339 341 343 343 344 344 343 341 342 343 343 342 341 345 346 344 349 349 347 346 345 346 343
347 347 348 348 347 348 349 350 349 343 341 340 338 337 337 339 340 342 342 340 341 342 343 343 343 344 343 343 343 342 343 343 342 345 345 348 346 348 347 345 343 345 343
347 348 348 349 350 350 350 345 343 344 343 343 343 342 339 340 341 345 344 343 343 345 345 345 343 343 342 341 341 343 344 343 345 345 344 347 345 345 347 347 345 345 346
346 346 349 350 352 351 349 343 342 342 342 343 344 344 344 345 345 344 343 342 343 345 345 345 344 342 342 343 343 343 344 344 346 346 344 345 344 342 348 348 345 345 342
347 347 350 350 353 352 351 349 344 343 342 343 344 345 344 343 343 342 342 345 347 348 345 344 344 344 345 346 344 343 345 344 344 346 346 344 345 342 347 346 346 346 342
349 352 352 353 352 350 348 345 346 344 341 340 341 342 342 342 338 339 342 342 343 344 346 346 346 346 347 346 343 346 346 343 347 346 346 347 342 345 347 346 346 346 345
353 354 354 353 354 352 348 345 343 342 341 340 341 340 341 342 342 343 344 343 348 351 348 343 343 343 342 342 344 346 346 344 348 348 346 345 339 347 346 346 346 346 345
350 350 352 353 354 351 351 348 343 342 341 339 339 341 343 344 345 340 345 345 346 347 346 343 341 346 344 344 347 347 348 348 348 347 345 346 342 347 349 347 343 343 346
355 353 350 351 354 353 352 351 346 345 342 339 340 341 343 349 349 348 346 345 344 347 347 347 346 346 347 346 344 346 346 348 350 348 346 346 345 346 350 349 346 342 342
356 355 355 355 353 351 350 349 346 343 341 340 340 348 353 352 350 348 348 347 348 349 347 348 348 349 348 349 347 346 346 345 345 345 348 348 345 344 351 349 347 346 344
357 357 356 355 353 354 349 348 346 346 343 349 348 351 352 353 349 346 348 351 350 349 347 347 348 348 349 348 347 346 346 347 345 343 348 349 347 343 352 350 348 347 346
355 354 355 356 355 354 355 353 353 353 352 353 353 352 353 352 349 350 347 348 349 348 349 349 348 348 347 346 345 347 348 347 344 342 346 347 346 346 344 349 348 348 347
354 356 357 356 352 356 356 356 356 356 354 354 354 352 352 353 350 350 349 348 345 346 348 347 348 346 344 345 346 345 345 346 347 344 342 344 345 346 344 343 345 348 348
354 356 357 357 356 356 357 355 352 354 354 352 352 352 351 350 349 351 350 349 346 345 344 344 344 342 342 342 343 344 344 344 344 345 344 344 345 345 346 344 342 343 346
350 356 355 355 355 354 354 353 352 351 351 350 349 351 351 348 348 348 350 348 346 346 346 345 344 345 344 343 342 342 342 341 343 344 344 345 345 345 346 346 344 343 343
350 354 355 355 354 354 353 353 353 353 351 350 353 351 350 348 348 349 348 347 347 346 347 347 345 344 342 342 341 342 343 343 341 341 344 345 346 346 345 346 346 345 344
348 350 351 354 355 355 356 355 355 354 353 354 352 349 350 350 350 351 347 346 347 347 345 345 345 344 343 343 341 342 341 339 339 339 339 340 343 345 346 345 346 345 346
347 350 350 351 354 357 356 355 357 357 355 353 350 350 351 351 349 347 345 343 345 344 344 343 342 344 344 342 343 342 340 338 338 340 340 341 341 342 344 345 345 345 345
349 349 351 352 354 355 354 355 353 354 353 352 353 352 352 349 348 344 343 344 344 342 343 342 341 342 342 342 343 340 334 337 339 335 337 339 342 344 345 344 343 343 343
350 351 352 354 354 355 355 355 354 356 354 353 351 354 351 350 347 336 338 341 340 342 340 340 341 342 342 342 341 340 336 335 336 337 336 337 337 337 340 340 341 342 342
352 352 355 355 356 356 358 354 354 349 349 345 348 352 346 335 334 335 339 341 342 340 338 339 340 340 340 340 340 340 339 338 335 335 336 333 331 331 331 332 334 339 341
353 354 355 356 356 355 356 354 356 347 339 341 345 339 335 337 336 336 339 342 340 334 337 337 337 338 339 339 338 338 337 335 336 333 331 332 332 329 332 332 331 333 334
355 356 356 357 356 354 357 355 353 333 336 341 339 338 336 336 333 337 340 335 332 333 335 336 337 336 336 337 337 335 333 333 333 333 329 331 332 333 331 332 329 331 333

GFSSE_925_thetae_003.txt.gz
Theta_e
348 351 350 349 351 351 347 347 346 346 346 347 347 347 346 341 340 338 339 342 342 342 342 342 339 339 343 345 346 345 343 343 346 339 339 348 345 344 347 345 342 342 345
347 349 351 351 352 348 346 347 348 347 347 347 349 347 342 339 339 339 340 341 343 343 341 339 338 341 342 341 341 342 342 342 343 347 349 350 344 344 343 347 346 345 344
348 349 350 348 350 352 352 351 350 350 348 348 343 339 340 339 338 338 340 341 339 337 338 339 340 342 342 344 344 343 344 342 344 347 347 341 343 345 344 346 346 346 345
348 349 349 350 352 349 350 351 350 353 352 346 343 341 340 340 341 341 341 338 336 337 340 343 342 340 341 342 343 341 342 340 342 345 344 341 348 344 345 344 345 345 345
351 350 352 350 347 348 347 348 348 349 348 342 340 339 339 340 340 340 339 336 337 340 343 342 340 340 341 341 342 341 342 342 342 344 344 346 343 346 343 344 344 345 341
351 351 349 348 351 349 349 347 340 339 338 337 336 338 338 338 341 340 338 339 342 342 341 341 341 341 342 343 343 342 341 343 344 344 344 346 345 345 347 344 345 344 343
350 349 348 349 349 351 350 343 341 342 343 341 343 341 338 338 342 342 343 345 342 340 340 342 343 344 344 345 345 344 343 343 345 345 343 346 346 339 348 347 345 346 345
349 349 352 353 351 349 348 346 345 345 344 344 342 341 341 343 345 346 346 342 340 343 348 347 348 346 345 347 347 343 345 345 344 344 344 344 346 341 347 348 345 345 345
349 350 351 352 353 349 348 343 342 341 342 341 341 340 341 343 342 340 339 341 343 345 349 351 352 345 345 346 345 345 346 344 345 345 345 343 345 342 347 346 346 346 345
349 352 351 354 354 352 352 344 342 341 339 340 339 340 341 341 342 341 343 343 347 351 350 345 345 342 341 342 343 345 346 344 346 346 346 346 344 342 348 346 346 346 345
351 352 351 351 352 348 345 349 349 343 340 338 339 342 345 344 346 344 343 344 344 346 347 343 343 345 344 344 346 345 345 345 347 347 347 346 343 343 349 346 346 346 346
355 353 352 352 352 351 346 346 345 345 344 341 341 343 344 345 347 346 345 343 341 346 344 346 344 345 344 346 343 343 345 346 347 346 346 344 345 342 350 347 346 345 346
350 352 352 353 352 351 351 347 347 345 343 341 341 343 346 347 348 348 346 344 344 347 346 346 346 347 346 347 347 346 346 345 346 344 342 346 346 345 350 349 347 345 344
353 351 349 350 353 352 349 347 346 345 344 342 340 343 350 350 349 347 346 348 348 348 347 346 346 346 347 346 345 344 346 345 346 346 343 346 348 345 344 351 350 347 345
354 354 354 354 353 350 350 347 346 345 345 345 346 348 350 350 349 347 347 345 344 346 347 346 346 346 345 343 344 345 344 344 345 345 342 343 347 346 345 347 351 348 347
355 355 355 355 354 353 354 352 350 351 351 350 351 352 352 351 350 349 347 347 346 344 345 346 346 344 341 340 341 341 341 342 344 345 345 341 344 343 345 344 346 349 348
355 355 355 354 352 354 356 354 351 353 352 350 352 351 351 351 351 350 350 346 346 345 344 344 343 342 343 342 340 339 339 338 339 341 344 343 343 344 343 345 344 344 347
354 354 355 357 356 355 357 356 355 354 353 352 351 351 352 350 348 347 347 347 346 346 345 345 345 343 341 340 340 338 338 339 339 339 342 343 344 344 345 343 345 344 344
353 354 356 358 357 356 357 358 353 352 352 350 350 349 351 350 348 348 347 346 345 346 346 345 344 343 341 340 339 338 338 338 338 338 337 338 341 343 345 345 345 345 345
352 354 357 357 357 355 355 354 352 353 354 351 351 350 350 348 348 347 349 347 346 346 344 344 344 343 342 341 341 339 337 338 338 338 337 339 339 340 340 343 346 345 344
348 351 355 356 356 355 355 356 355 355 354 353 352 352 351 350 350 348 347 343 343 344 344 343 342 342 342 342 341 339 337 337 336 334 336 338 339 342 343 342 344 343 344
348 350 353 354 354 355 355 355 354 355 355 353 351 350 351 350 348 346 343 342 343 343 340 341 341 341 341 342 340 337 333 335 337 336 335 336 336 332 339 341 342 342 343
348 348 350 352 351 352 356 356 355 353 354 353 353 354 349 350 348 345 338 339 341 339 340 339 341 341 341 341 340 339 333 333 334 336 335 332 328 327 328 331 333 335 338
347 347 349 350 351 352 354 355 354 353 354 349 349 349 352 351 343 335 337 339 340 341 338 338 340 340 339 339 339 339 338 338 333 332 334 331 326 324 328 327 330 331 333
347 348 349 351 352 354 355 355 354 353 349 344 344 351 352 338 335 335 337 339 341 338 335 336 336 337 337 338 337 337 336 335 335 330 328 329 325 324 322 325 325 328 328
350 350 350 352 354 355 356 357 355 355 348 339 346 347 338 336 334 333 335 340 336 334 335 335 336 334 336 337 337 334 331 331 331 331 327 327 329 326 321 320 321 319 322

GFSSE_925_thetae_006.txt.gz
Theta_e
348 349 347 351 348 350 348 348 345 347 346 346 344 343 340 340 340 338 339 341 341 341 342 341 339 341 343 344 343 343 344 342 338 342 348 342 345 346 344 346 341 344 346
349 348 347 347 345 345 345 345 346 346 347 347 346 344 339 339 337 338 339 340 341 339 339 337 338 340 342 341 343 344 342 343 346 349 350 349 346 343 347 346 343 344 344
349 349 347 351 348 347 347 347 346 346 350 348 346 342 339 338 337 336 339 341 338 337 339 340 339 341 344 345 343 343 341 343 347 349 341 339 341 345 346 345 345 346 346
349 350 348 348 349 347 349 348 346 349 346 339 339 339 338 338 337 340 342 340 338 339 340 341 343 344 343 343 342 342 342 342 347 348 342 341 345 347 346 343 346 344 344
348 349 349 349 352 352 352 350 349 345 342 341 341 341 343 342 345 342 340 337 339 340 340 342 343 344 344 345 342 342 343 342 341 345 345 344 339 344 345 343 346 343 344
348 349 348 349 353 354 352 351 352 351 344 342 344 345 343 345 343 343 340 341 342 340 341 343 343 345 346 346 343 343 343 343 344 344 344 347 342 344 346 337 345 341 341
350 350 350 351 352 352 352 352 352 352 344 341 340 342 343 344 344 342 340 341 339 341 343 345 346 348 350 347 345 343 345 344 345 344 344 345 346 339 347 344 345 345 344
350 350 351 352 353 352 353 347 341 340 339 337 338 340 340 342 341 340 339 340 341 343 348 348 351 351 349 347 346 343 343 343 348 344 345 344 346 340 347 347 345 344 345
350 351 352 353 353 353 344 341 341 342 342 342 341 342 341 340 341 340 339 342 343 344 349 352 350 346 345 344 344 344 345 345 347 345 345 344 345 342 346 347 345 343 345
350 351 353 353 352 348 343 344 345 344 343 342 342 341 340 340 339 342 342 343 345 350 354 353 341 344 344 342 342 344 344 344 345 346 346 345 345 343 349 346 347 346 344
350 351 352 352 349 345 345 344 344 343 342 344 342 339 340 341 343 345 345 345 344 344 346 346 344 344 345 344 345 344 344 345 345 347 346 346 345 342 349 346 346 346 343
351 351 350 352 351 350 347 346 346 344 341 340 339 339 341 344 345 346 345 344 343 342 344 345 344 344 345 346 346 345 345 345 345 345 345 345 344 344 346 347 347 345 344
349 352 350 350 351 349 346 345 346 344 342 339 339 341 343 344 348 347 346 344 340 346 346 345 345 346 345 345 345 345 344 345 345 345 343 342 345 345 345 347 345 345 346
352 352 352 352 352 350 347 344 344 344 344 342 341 342 343 349 348 347 345 346 346 346 347 345 346 346 346 345 343 344 343 344 345 345 345 342 345 346 346 343 347 346 344
351 350 350 352 352 351 349 349 347 346 345 345 343 342 344 349 347 347 346 345 344 344 346 346 345 346 344 340 340 341 342 341 342 345 345 342 343 347 346 345 345 347 346
350 346 346 347 349 351 349 349 347 345 345 345 345 348 348 349 348 348 347 347 346 346 343 344 345 343 342 342 340 339 339 339 339 341 344 344 341 343 343 343 344 345 348
352 349 350 351 352 351 350 350 349 348 350 350 349 350 350 350 349 348 348 348 346 346 345 344 344 343 343 340 339 336 334 336 338 336 339 342 343 343 343 342 343 344 344
353 353 352 352 353 351 352 353 351 352 352 351 351 350 351 350 350 350 347 345 346 345 345 345 344 342 341 339 338 338 337 335 336 338 337 338 340 343 344 344 343 343 344
353 353 353 353 353 353 352 353 353 354 353 353 352 350 350 351 350 348 347 347 346 345 346 345 343 342 339 339 339 338 336 337 336 336 337 337 337 337 340 343 344 344 343
353 353 352 352 354 355 353 353 354 353 352 352 351 350 349 350 349 347 347 347 347 345 344 342 342 341 341 341 340 337 336 336 335 333 337 339 340 341 340 339 341 344 345
352 352 353 354 355 355 355 355 356 354 352 352 352 350 350 349 349 348 347 346 343 343 342 342 341 341 340 341 340 337 336 336 335 334 335 335 334 334 341 343 343 343 343
349 351 352 354 356 355 355 354 354 354 354 354 353 352 351 349 349 348 344 342 342 342 341 339 340 340 340 340 339 335 337 335 336 335 334 333 325 326 329 333 335 337 339
348 349 350 352 354 355 354 355 355 354 354 352 352 350 349 349 349 347 344 337 337 338 338 338 338 340 341 340 339 338 336 337 334 335 335 329 321 324 324 327 329 330 332
347 348 348 349 352 354 353 355 355 354 353 350 349 350 350 348 348 344 334 336 337 338 339 336 339 340 340 338 338 338 337 337 336 336 330 327 321 320 322 322 323 326 327
347 347 347 348 349 351 352 352 356 354 352 349 346 347 350 349 348 335 335 336 337 340 338 336 335 337 337 337 336 335 335 333 334 331 332 329 322 319 319 319 320 320 318
346 346 346 347 347 350 350 352 354 354 352 349 343 343 350 350 337 334 335 336 338 339 334 334 335 334 335 336 336 333 331 329 330 331 331 328 328 321 318 318 318 318 317

GFSSE_925_thetae_009.txt.gz
Theta_e
348 350 350 350 350 350 349 346 347 346 343 343 341 342 342 342 338 338 338 340 339 340 339 341 343 343 344 343 343 342 344 345 346 348 348 347 347 344 347 344 340 343 346
350 349 349 349 351 349 347 345 347 344 343 344 341 341 341 339 338 339 341 341 342 342 341 344 343 343 342 341 344 347 344 347 347 350 350 348 347 345 346 346 341 339 346
349 349 349 347 346 346 344 346 346 346 344 344 341 340 338 337 338 341 341 342 342 344 344 341 342 342 342 344 344 346 344 345 348 345 341 344 345 347 346 346 346 342 343
350 349 349 345 345 345 345 346 346 349 349 347 344 340 340 339 340 343 341 339 340 344 343 344 345 344 341 342 343 343 343 345 347 346 345 345 343 347 344 345 345 345 346
352 350 351 347 347 347 347 346 349 352 352 346 343 340 340 342 342 343 339 338 341 342 344 346 345 343 343 342 343 343 344 343 343 346 348 348 344 345 345 342 340 343 344
352 351 351 350 352 348 348 351 351 349 342 344 342 345 345 344 342 340 338 341 341 343 345 345 344 346 348 345 345 349 344 344 345 348 348 348 346 343 344 340 345 341 345
352 353 354 352 352 352 351 352 350 350 347 345 345 344 344 345 342 342 343 342 341 343 345 346 347 350 349 348 346 342 347 346 348 348 348 348 349 337 347 340 344 341 340
352 353 353 352 352 352 352 351 350 348 344 339 338 340 342 343 344 342 342 340 342 346 350 351 352 348 346 345 344 343 343 347 348 347 348 348 347 341 346 345 345 346 345
352 353 355 355 354 351 351 352 350 343 338 335 338 339 340 342 341 340 339 340 342 347 349 352 345 344 343 342 342 343 343 343 349 347 348 347 345 344 348 347 344 341 345
353 354 355 355 356 355 353 352 342 340 339 341 341 342 341 342 342 339 342 345 343 347 347 347 343 344 344 344 343 343 344 344 349 350 348 346 344 344 348 347 344 344 341
354 355 355 354 356 354 353 352 346 344 344 343 344 340 342 349 350 350 347 345 343 343 345 345 345 344 343 345 344 343 344 348 349 350 346 346 345 344 348 348 346 347 339
352 354 355 356 354 353 350 351 351 351 350 350 350 347 349 345 346 345 345 345 343 343 345 343 343 345 347 348 348 347 347 348 348 348 348 344 345 344 344 349 347 342 346
351 352 354 355 355 354 354 353 350 351 351 349 347 346 346 344 345 349 349 346 342 347 350 348 348 349 348 348 347 346 347 347 348 348 347 344 342 344 344 345 346 345 344
351 352 353 354 355 355 349 351 352 350 350 349 348 341 342 345 347 347 348 347 347 349 348 348 349 347 347 346 345 345 345 345 345 347 347 345 342 345 345 344 346 345 344
350 353 354 354 355 355 352 351 350 349 349 350 347 343 345 344 347 346 346 347 346 347 349 349 347 347 347 345 345 344 343 344 344 344 346 345 343 343 347 345 345 346 346
350 352 354 355 356 355 354 350 352 352 349 350 350 349 341 343 346 345 347 348 349 346 348 347 348 347 345 345 343 342 341 340 342 342 342 346 344 341 343 343 343 345 345
351 350 351 352 354 354 355 348 347 352 351 350 351 347 348 349 347 345 347 345 347 346 345 346 347 346 345 343 342 340 340 340 339 341 342 342 345 343 343 343 342 343 343
353 352 351 350 352 354 354 349 352 351 352 352 348 347 348 348 346 346 346 344 344 346 346 348 347 346 345 342 341 340 341 340 340 340 340 341 340 342 344 343 344 342 343
354 354 354 354 355 356 353 351 351 351 351 350 353 352 349 349 348 348 346 345 346 347 346 347 346 345 342 340 339 340 340 340 340 339 341 342 342 342 340 343 342 344 343
354 355 355 355 356 357 349 349 350 349 349 350 353 351 350 348 347 349 346 346 347 349 347 345 345 344 342 342 341 340 340 340 339 340 341 340 338 344 346 346 346 346 344
355 355 355 356 356 353 356 355 354 354 355 355 350 349 349 348 348 347 346 346 345 347 346 346 344 343 341 343 342 338 339 339 338 338 339 336 332 335 339 342 345 345 346
354 354 355 356 357 355 357 357 356 356 356 355 355 352 350 350 349 349 348 346 345 345 345 343 343 342 341 343 342 340 337 339 339 338 336 330 329 331 333 337 337 339 341
352 354 354 356 355 356 358 358 356 355 355 355 355 354 353 350 349 349 345 346 344 339 339 343 342 343 341 342 342 340 338 338 337 337 337 330 328 328 329 332 334 335 332
351 352 353 354 354 357 357 357 357 355 355 355 354 353 353 349 349 347 344 334 337 339 341 341 340 342 342 339 339 341 340 339 337 335 331 329 326 325 327 326 327 327 325
351 351 351 351 352 356 356 356 357 357 356 355 352 350 354 351 349 347 339 333 335 339 339 337 341 340 340 339 338 338 338 336 337 333 330 328 327 326 325 325 325 324 324
349 350 351 351 350 350 353 356 357 357 356 354 350 347 348 350 348 346 333 334 336 339 339 336 338 337 339 339 339 337 333 331 331 331 332 331 329 327 325 325 324 325 324

GFSSE_925_thetae_012.txt.gz
Theta_e
349 350 348 349 351 350 346 348 348 346 345 343 342 344 344 340 338 342 344 343 345 345 342 342 343 350 350 350 348 349 349 348 349 349 348 348 348 347 343 334 342 342 346
350 350 348 351 347 349 350 350 344 343 342 342 342 343 342 338 341 344 344 345 344 342 342 342 350 351 350 348 348 349 346 346 349 350 349 344 347 347 346 338 340 342 346
350 350 350 348 346 347 347 349 346 343 342 342 342 342 340 342 344 345 347 345 343 345 344 350 349 345 349 349 347 348 348 345 345 342 341 341 344 347 345 346 339 341 345
349 349 350 347 345 345 347 349 347 346 349 342 340 339 339 339 340 345 345 344 345 345 351 351 346 347 350 350 349 348 346 345 344 344 347 341 341 343 344 345 346 346 345
350 349 349 345 345 345 346 347 349 350 347 344 340 340 339 340 344 345 344 345 344 345 346 345 342 343 350 351 351 348 346 344 343 347 348 344 341 339 344 343 342 343 344
351 351 348 345 346 346 346 347 349 350 347 346 341 340 342 344 345 343 343 343 342 341 341 343 348 351 351 351 351 348 346 344 348 348 350 345 343 335 342 346 340 342 343
352 353 350 347 347 347 347 347 350 352 349 341 340 343 345 347 344 343 342 342 342 343 345 348 351 351 351 346 343 343 343 343 348 350 349 348 347 342 342 347 341 333 345
352 353 353 352 350 349 349 350 349 348 346 344 345 344 344 344 344 342 341 343 346 350 351 353 351 349 346 342 342 343 344 342 350 350 350 350 347 341 348 345 346 342 344
352 353 353 354 354 353 353 353 350 350 346 344 342 342 340 344 342 342 341 342 345 349 353 349 344 344 344 341 342 343 345 343 351 349 349 350 346 344 348 348 343 346 345
352 354 353 353 353 353 353 352 354 347 344 342 342 343 343 342 340 339 340 350 344 345 347 346 344 345 344 343 342 342 343 348 348 348 349 350 344 344 348 348 344 342 344
352 353 353 353 354 353 350 350 350 348 347 343 342 342 342 349 351 350 350 343 345 342 345 345 344 343 344 348 345 344 347 349 348 347 348 347 345 345 348 349 346 348 340
354 353 352 353 354 352 350 352 352 350 348 348 348 349 348 350 351 350 348 345 344 343 345 343 343 346 349 348 348 346 346 347 349 348 348 344 343 344 344 350 347 345 346
352 352 352 352 353 352 351 352 351 350 349 350 352 349 349 351 351 352 351 350 348 347 351 350 350 349 349 348 347 346 346 346 346 348 349 346 344 343 344 346 350 346 343
351 351 352 352 352 352 353 352 351 350 349 348 348 351 352 349 351 352 350 350 351 350 350 350 349 350 349 349 347 346 346 345 343 343 346 347 342 344 345 349 348 348 343
351 352 352 353 354 354 354 351 350 350 349 348 349 350 349 350 351 350 351 351 350 351 350 350 350 350 350 347 347 346 343 343 343 341 342 346 345 342 346 347 345 348 347
350 351 352 353 354 354 354 352 351 351 350 350 349 349 351 350 351 351 350 350 350 351 350 350 350 349 349 348 345 343 341 338 338 341 339 341 345 343 343 346 345 345 349
350 350 353 354 354 355 355 355 354 352 351 350 349 352 353 352 352 351 350 350 350 350 351 351 350 349 348 346 344 341 338 337 336 338 338 337 340 346 342 343 343 342 344
350 350 352 352 353 355 354 355 353 351 352 352 352 353 352 353 352 351 351 350 349 350 350 349 349 348 344 341 337 336 336 338 339 338 337 339 337 335 343 344 343 343 343
352 352 352 351 351 353 355 355 354 354 354 354 352 353 352 352 352 352 351 350 351 350 349 350 346 344 339 336 334 333 338 339 339 336 339 341 342 340 337 342 342 343 344
353 354 354 353 353 355 356 356 355 354 353 352 352 353 355 353 352 351 351 350 350 350 350 346 345 341 339 337 335 337 339 339 339 339 339 338 339 342 343 345 343 346 345
354 355 356 356 356 357 353 353 353 353 352 353 352 354 354 354 352 353 351 350 351 349 347 345 341 337 335 338 338 336 339 340 339 338 338 334 334 336 341 344 344 344 347
354 356 357 358 358 358 355 354 353 353 352 353 353 354 354 354 354 352 352 351 350 345 345 341 339 337 336 339 338 337 336 339 338 337 337 331 331 332 334 338 341 344 344
353 356 357 358 359 359 356 356 357 356 356 355 353 353 354 354 354 354 352 349 348 342 336 340 340 339 337 340 340 337 337 337 334 336 337 331 329 329 330 331 334 333 333
352 354 357 358 359 360 360 357 357 354 351 348 348 348 348 351 351 351 350 348 342 337 338 340 339 339 340 336 336 338 339 339 336 336 332 330 327 327 327 326 327 328 327
352 353 355 358 359 359 360 359 358 357 350 349 349 349 347 349 348 346 349 343 340 338 341 341 339 340 338 336 335 336 336 335 335 332 331 330 329 327 326 326 326 325 326
351 352 353 356 359 360 360 360 360 356 353 349 351 348 345 345 347 347 348 342 340 338 341 340 339 339 338 338 337 336 332 331 331 331 331 331 331 329 328 327 326 325 325

GFSSE_925_thetae_015.txt.gz
Theta_e
348 350 349 346 346 346 346 349 350 349 349 345 346 344 341 346 344 344 347 347 350 353 353 352 351 351 350 351 351 351 349 349 351 349 347 347 348 347 336 343 342 344 342
351 350 348 350 345 347 350 348 347 347 344 345 346 342 348 352 347 346 348 351 353 352 352 352 352 351 351 351 350 350 349 350 348 343 348 348 346 345 344 345 342 342 342
350 349 349 346 347 345 346 346 345 344 347 346 345 346 351 348 350 349 350 353 353 353 350 349 351 351 351 350 350 350 349 345 343 340 346 346 344 344 346 345 338 346 345
348 350 349 346 348 351 350 350 346 348 350 345 343 343 340 347 353 348 351 352 351 351 348 348 350 350 351 351 350 350 346 344 344 344 349 343 344 335 347 346 341 346 347
349 350 349 346 347 350 352 350 346 347 347 343 341 340 341 352 353 351 352 351 348 346 345 346 350 351 351 352 351 350 347 344 344 347 347 343 344 336 344 345 340 345 345
349 350 347 345 345 350 352 351 348 350 348 342 340 341 351 354 352 351 352 350 347 349 348 350 351 351 352 352 352 345 344 341 347 348 347 343 343 336 345 346 342 347 345
352 350 349 346 346 349 350 353 354 352 346 342 341 345 350 353 352 353 351 349 343 346 349 352 352 352 351 352 351 345 344 345 350 350 350 349 344 339 344 343 343 345 341
352 351 351 348 349 351 353 354 348 346 344 344 345 346 348 351 349 348 345 347 348 350 352 353 349 344 345 347 345 344 342 343 351 350 349 350 343 346 346 346 342 342 347
351 352 353 353 353 353 354 348 348 352 349 347 346 348 345 344 342 338 340 343 345 352 353 352 345 344 343 341 343 341 342 347 352 349 350 348 344 346 349 346 349 346 345
353 351 352 352 352 352 352 350 354 350 344 343 347 342 341 339 337 341 344 350 345 344 347 346 344 342 342 343 342 342 345 349 352 348 349 349 345 344 349 348 346 347 346
352 351 351 350 351 353 353 355 353 352 348 349 344 342 341 351 352 353 353 345 345 343 344 343 342 342 345 349 347 345 347 350 348 347 350 345 344 345 350 349 347 343 346
352 351 351 352 351 350 348 352 350 348 348 348 348 352 348 350 351 350 350 345 344 343 344 343 345 347 349 350 350 347 347 346 349 350 350 345 343 344 347 351 348 349 345
351 352 351 351 354 350 350 350 350 350 350 349 351 351 349 351 350 351 352 352 352 349 351 351 350 351 350 347 346 346 345 345 342 348 348 347 344 342 346 349 350 348 345
351 350 349 352 352 350 350 350 349 348 347 348 350 352 352 351 350 351 352 350 350 350 350 349 350 350 348 348 347 346 345 343 341 341 349 347 344 342 347 350 350 348 348
350 350 349 351 353 352 354 349 350 348 348 348 348 351 351 349 350 351 350 351 352 349 350 349 348 350 348 348 347 346 344 341 341 339 341 344 343 342 345 350 348 347 349
349 350 350 352 354 354 353 355 351 350 349 348 349 349 352 351 351 353 351 350 350 350 350 350 351 351 350 348 346 344 340 338 336 336 336 344 341 343 342 348 350 346 349
350 350 351 352 354 355 355 355 353 351 349 350 348 350 352 354 353 354 350 351 349 350 353 352 350 351 350 348 340 338 336 336 336 338 338 336 343 344 343 341 343 343 345
349 350 351 351 352 354 354 355 353 351 351 350 349 351 353 354 355 354 351 350 349 350 350 351 350 348 344 339 336 335 335 337 339 339 337 338 336 337 344 343 342 343 342
349 350 352 352 352 353 355 355 354 353 352 353 353 350 354 354 354 353 350 351 353 351 351 351 349 345 340 337 334 332 337 338 339 338 338 339 341 340 338 342 341 341 344
350 351 353 353 352 353 354 356 354 354 354 353 351 352 355 354 354 354 351 353 352 351 351 348 346 342 340 338 336 335 338 339 339 338 339 338 338 341 342 342 345 345 343
350 353 354 354 354 354 355 356 355 354 353 351 350 353 357 355 355 354 354 351 353 350 349 345 343 337 337 339 338 338 338 338 339 338 338 335 335 336 340 342 344 347 347
351 353 355 356 357 357 357 355 354 351 350 350 349 351 354 354 356 354 353 350 351 348 348 344 340 338 336 340 339 336 339 339 337 338 337 333 333 333 336 339 342 344 344
351 353 357 359 359 359 357 355 356 357 355 354 350 353 353 353 353 354 354 353 352 347 338 342 341 340 338 338 339 338 339 342 337 336 337 333 331 331 332 334 335 335 337
351 354 356 359 360 360 359 356 356 354 350 347 347 346 349 351 350 351 352 348 348 341 338 340 339 341 336 337 336 337 338 338 340 341 334 333 330 330 329 328 329 330 329
351 353 356 360 361 361 361 356 356 355 348 348 347 350 350 350 348 348 347 348 345 337 340 343 340 341 341 337 335 335 337 335 335 334 334 333 332 330 329 328 327 326 329
350 352 355 361 363 362 362 360 359 358 351 349 349 350 346 346 348 347 347 347 341 339 342 341 340 340 339 340 338 336 333 333 333 332 332 332 332 331 330 329 329 328 327

GFSSE_925_thetae_018.txt.gz
Theta_e
348 345 348 349 348 345 348 349 348 347 344 346 344 343 345 343 349 345 346 347 348 351 352 351 351 351 351 351 351 350 348 346 346 349 348 347 336 342 343 343 345 346 347
350 347 348 347 345 344 346 348 349 347 348 344 342 345 344 350 350 348 349 350 350 352 352 351 351 351 351 351 350 350 348 343 349 349 348 348 344 343 346 344 342 342 347
350 350 349 345 347 346 346 347 344 347 347 343 347 348 351 351 350 351 352 353 352 353 352 351 351 352 351 351 350 348 344 343 344 347 345 346 343 344 345 343 342 348 347
349 349 349 344 343 344 344 346 346 348 347 346 346 346 351 351 349 351 352 351 351 352 351 351 352 352 352 352 351 346 342 342 344 346 349 345 340 345 345 344 348 345 345
349 350 350 346 348 345 345 346 348 350 349 346 344 349 352 351 349 351 351 348 348 349 351 352 352 352 352 352 351 346 343 344 345 348 347 343 339 343 346 341 344 346 347
351 350 348 348 353 351 349 350 351 349 346 345 347 351 350 350 350 351 350 350 350 350 352 353 352 352 352 351 347 343 343 345 348 346 345 343 338 342 348 348 348 346 343
351 350 351 349 351 351 352 351 353 350 347 345 346 347 352 350 350 347 345 349 349 351 352 352 351 350 348 345 342 341 340 348 349 349 348 343 333 335 346 346 347 342 344
350 349 351 348 350 351 352 352 353 352 348 342 342 348 345 349 347 347 348 345 346 350 353 350 345 344 343 340 340 341 342 345 350 350 347 345 336 341 344 341 346 343 347
350 352 352 353 354 354 352 353 353 350 343 341 343 341 341 342 340 338 344 346 343 347 346 345 343 341 342 341 341 342 344 348 350 350 347 337 341 346 347 347 343 347 344
352 352 353 353 354 354 353 352 346 343 344 342 339 338 338 341 340 342 347 350 344 341 344 341 340 341 344 345 343 342 346 343 349 348 348 345 343 347 348 346 348 347 347
352 351 353 353 354 353 352 348 348 346 341 339 340 339 339 348 351 353 353 349 343 343 342 340 341 345 347 350 349 346 346 351 344 334 348 343 343 348 349 346 347 347 347
352 351 350 351 353 352 351 351 352 350 346 346 349 349 345 351 351 352 350 349 344 342 346 345 346 349 349 353 347 349 350 344 347 345 337 344 342 344 351 349 340 341 347
349 350 351 350 351 350 352 346 350 349 349 349 349 352 351 350 350 351 352 350 351 349 350 350 353 348 352 348 346 346 343 344 347 348 347 346 343 342 347 350 348 345 341
350 352 352 351 349 351 348 346 351 351 351 351 351 350 347 354 350 351 352 350 351 349 350 351 351 351 349 348 348 347 343 343 343 350 347 344 343 341 345 349 350 346 347
348 353 354 351 352 355 351 350 350 351 348 350 351 350 348 351 351 352 351 350 351 351 351 349 349 350 349 348 347 343 343 340 339 338 349 344 341 341 344 348 348 348 349
349 351 356 354 352 355 350 354 353 347 350 347 348 353 349 350 351 353 351 350 350 349 350 351 350 349 347 349 346 343 340 338 337 336 337 345 341 340 342 343 345 346 347
349 349 353 353 353 352 351 354 355 352 350 349 351 351 351 352 353 352 353 351 349 350 350 352 349 349 350 350 349 339 335 336 337 338 338 338 342 341 341 341 341 341 344
349 350 353 352 355 350 356 356 351 350 351 351 353 349 353 353 351 353 352 352 351 351 351 350 349 349 345 344 337 335 334 337 340 339 339 338 339 345 341 341 341 340 341
350 353 352 351 354 356 354 355 354 354 353 351 351 352 352 353 354 351 350 352 352 352 352 351 349 346 344 339 335 334 335 339 338 339 338 339 339 339 345 343 339 340 342
350 353 352 353 354 355 353 355 357 355 353 351 353 350 352 355 354 353 352 353 352 349 350 348 346 343 339 336 339 336 338 339 337 340 339 338 335 339 341 345 343 344 342
351 354 354 354 353 359 358 356 355 356 355 353 352 353 354 353 351 353 351 353 350 349 350 346 343 340 337 339 336 339 339 336 338 337 336 335 335 336 339 342 344 344 343
352 353 355 355 356 353 357 356 356 355 353 353 351 353 354 352 351 352 350 352 351 351 349 345 341 339 338 340 338 338 344 342 339 337 336 333 332 333 338 340 342 342 342
352 355 358 358 358 357 357 356 355 354 355 355 352 350 354 355 355 355 355 352 353 348 347 341 341 341 338 342 335 339 347 346 341 337 336 333 332 332 332 333 334 332 338
353 356 358 359 359 361 354 359 358 356 357 351 352 350 356 353 350 352 351 352 349 345 343 340 340 338 339 339 338 336 335 334 344 342 336 333 330 330 328 329 330 329 329
353 356 359 362 362 362 361 357 358 356 354 350 348 351 355 354 350 352 352 348 349 341 341 344 341 336 342 336 339 341 335 336 334 338 341 334 332 331 330 328 328 328 327
352 356 357 364 363 361 363 359 358 356 352 354 351 351 351 351 349 350 347 349 346 337 342 342 340 341 338 341 339 336 333 336 338 338 339 335 334 331 330 329 329 328 328

GFSSE_925_thetae_021.txt.gz
Theta_e
345 345 346 348 348 348 346 348 345 345 345 343 343 341 341 341 341 343 344 347 347 349 352 352 351 351 351 351 346 344 347 342 346 344 347 345 339 341 344 345 349 348 345
346 346 347 348 350 348 347 347 347 345 344 343 343 345 348 341 344 343 347 350 348 350 352 352 351 351 351 351 347 344 348 348 350 347 348 344 344 344 344 346 346 346 344
347 348 346 348 351 351 350 347 348 346 345 344 347 349 344 346 346 347 350 353 352 352 351 351 350 351 351 351 347 344 344 344 345 343 344 341 346 345 347 346 347 346 345
347 346 345 346 347 347 346 347 349 349 347 343 348 346 344 343 345 349 350 351 350 351 351 352 352 352 352 350 346 342 343 343 345 347 347 342 346 344 348 348 348 346 344
349 345 345 343 343 343 345 345 348 348 343 343 343 347 347 345 347 348 347 347 346 351 352 352 352 352 352 349 345 341 342 345 345 346 344 341 344 347 348 348 347 347 347
350 344 345 342 345 344 343 346 345 345 343 343 345 348 346 344 349 342 342 343 347 352 353 353 352 347 346 345 343 340 343 347 346 345 340 338 338 348 347 348 348 348 346
348 346 347 348 345 342 344 345 346 346 343 345 348 349 347 346 344 339 344 344 347 351 353 349 346 342 338 340 342 340 345 348 348 345 342 334 343 347 349 348 348 347 347
346 346 349 350 349 345 346 349 349 345 342 345 347 346 345 340 336 339 344 344 346 349 351 346 343 342 339 340 340 342 343 348 346 344 338 338 334 340 346 347 346 346 346
348 348 348 352 352 351 349 351 350 345 343 344 343 341 339 338 338 340 345 345 342 342 343 342 342 341 342 342 341 343 346 347 339 344 344 341 340 341 341 343 347 346 346
349 348 348 350 351 351 351 352 351 347 344 340 339 338 337 342 343 344 349 350 343 342 341 341 342 343 347 348 347 344 346 347 334 337 345 342 341 346 347 344 344 345 346
352 351 352 351 349 351 346 352 351 344 340 338 336 336 338 345 350 351 352 350 343 343 342 341 344 346 349 349 348 345 347 345 336 334 341 342 342 346 346 348 346 345 342
352 353 352 351 350 350 347 348 341 336 334 335 339 342 344 349 349 350 351 348 347 344 346 347 348 348 349 347 348 348 348 348 342 341 339 342 343 350 348 345 344 346 346
352 353 353 352 351 351 351 342 339 337 337 343 348 349 351 350 347 347 350 348 349 350 350 350 349 350 350 348 347 346 345 346 347 345 342 343 342 345 351 345 345 338 346
351 352 352 352 350 351 352 346 337 344 346 347 349 350 354 353 349 348 351 350 349 349 349 350 351 349 350 347 348 345 341 345 347 347 345 342 341 343 348 349 348 347 344
351 351 349 350 350 352 352 345 348 349 349 350 350 352 348 350 350 349 350 351 350 348 351 350 351 349 346 347 346 342 339 336 340 341 345 341 340 339 342 346 345 348 348
351 351 351 350 348 350 349 350 352 352 352 351 352 351 347 351 350 351 352 350 347 351 350 349 349 346 344 345 347 344 340 338 336 336 340 340 341 339 340 341 344 346 348
352 352 353 350 349 352 350 352 353 349 349 348 351 351 350 349 349 349 351 349 352 350 350 350 349 347 348 344 346 339 335 335 338 337 338 337 341 340 338 340 341 341 343
349 353 353 351 354 354 350 352 352 353 352 350 352 351 350 351 350 350 349 352 351 350 350 350 346 346 347 342 337 335 334 335 338 339 338 338 340 341 340 338 339 339 339
353 354 354 355 350 350 351 351 354 350 349 351 350 351 354 353 353 351 348 350 351 352 351 349 348 345 341 338 336 337 336 338 338 338 338 337 339 340 342 340 338 340 341
350 354 353 354 354 351 348 350 351 348 350 353 351 352 350 351 353 351 349 353 351 351 349 347 345 342 336 338 337 337 338 339 336 340 339 336 337 340 344 343 342 342 341
350 351 353 352 355 354 353 355 355 356 353 353 351 348 352 353 353 354 351 350 351 347 348 345 343 341 335 338 335 338 339 338 337 336 335 334 334 342 341 345 344 345 342
352 352 350 352 356 356 354 354 355 355 354 354 352 354 354 354 352 349 349 350 349 351 349 345 338 338 338 340 336 338 339 339 338 334 335 332 333 336 339 340 339 340 341
352 353 352 350 353 359 356 355 355 353 352 354 355 354 352 352 349 350 349 348 352 351 349 343 338 339 338 340 334 338 337 338 340 336 332 331 332 332 331 331 329 336 340
352 354 353 351 351 355 358 355 356 353 355 353 354 354 352 354 354 354 351 351 351 342 344 340 342 339 338 336 339 336 333 332 334 337 333 331 331 330 330 331 329 328 331
352 354 355 353 353 353 355 356 354 353 352 353 354 353 355 356 349 352 350 350 349 342 342 341 340 336 342 341 339 342 337 337 333 333 334 334 330 329 327 328 329 328 327
352 355 358 357 356 356 356 355 357 356 356 354 352 352 354 353 350 352 351 352 348 345 341 342 341 336 339 341 338 338 337 336 336 336 331 331 333 333 329 328 328 327 328

GFSSE_925_thetae_024.txt.gz
Theta_e
347 346 347 348 350 351 350 350 350 348 343 340 338 337 338 340 340 341 344 346 347 351 352 351 351 351 350 342 343 345 348 348 347 348 345 343 347 347 348 349 347 344 342
346 346 348 348 350 350 349 348 344 343 340 338 339 340 339 339 341 345 346 349 351 352 352 350 351 351 351 348 346 349 343 347 346 347 344 343 346 343 346 348 347 343 346
345 346 346 348 350 351 347 343 343 343 340 344 344 340 342 344 351 352 351 352 352 352 351 351 352 351 351 347 346 347 343 342 343 343 342 340 346 344 349 347 345 346 348
346 346 347 346 349 349 347 343 346 351 349 348 341 340 343 349 351 352 352 352 351 352 352 351 351 351 350 344 344 344 344 344 346 347 343 345 343 348 347 348 346 345 346
347 346 347 348 349 350 349 346 349 348 345 342 341 341 341 346 350 351 351 351 351 351 350 352 351 349 348 342 343 342 344 345 346 346 343 344 344 348 348 347 344 347 347
345 345 348 348 350 350 352 351 346 344 340 342 343 342 344 350 351 349 345 347 350 351 351 351 347 345 344 343 341 343 345 344 345 342 340 341 343 347 347 348 348 347 346
344 345 348 346 347 348 350 349 346 342 340 343 344 344 346 347 346 344 343 343 346 349 353 347 343 340 343 343 343 344 346 345 343 339 339 339 345 347 350 349 347 347 343
343 348 348 348 344 346 351 348 342 339 343 343 344 346 342 344 340 343 344 343 345 349 348 347 344 343 342 343 344 345 345 345 344 343 340 340 346 348 348 348 346 347 343
344 349 350 349 351 349 345 346 342 341 343 342 344 344 344 340 338 343 347 346 343 344 345 343 342 343 344 343 343 343 346 337 335 341 342 338 342 346 347 347 347 346 345
346 349 350 351 352 345 349 348 349 343 340 340 342 341 340 338 340 350 349 350 344 344 342 342 345 346 347 346 345 343 344 343 332 341 342 340 341 343 344 347 347 346 345
348 347 348 349 351 348 351 352 350 344 340 339 337 336 337 342 350 351 350 349 343 342 342 344 347 349 347 347 346 342 344 342 338 337 343 342 340 348 347 344 347 344 346
350 347 346 348 349 350 350 350 342 341 338 336 335 338 340 349 349 350 348 348 347 344 347 348 348 348 347 347 345 344 346 345 342 336 339 341 342 347 347 348 347 346 345
350 350 347 346 347 348 342 343 340 337 334 334 338 347 347 349 348 350 349 347 349 350 347 348 349 348 347 347 347 343 345 346 344 340 342 341 343 347 349 347 346 345 346
351 351 349 346 343 341 338 337 335 334 333 337 346 349 350 351 349 347 350 348 348 348 349 346 350 348 349 348 346 342 341 344 346 344 341 341 341 342 344 348 346 346 346
352 352 351 349 346 346 344 337 336 336 338 344 346 349 350 351 350 348 349 350 350 348 350 348 349 349 346 345 342 340 339 340 343 344 341 339 339 340 342 343 345 346 346
352 352 352 351 350 348 350 348 338 342 347 348 349 350 350 350 349 348 351 350 350 351 350 349 348 346 344 345 348 340 339 339 341 341 342 341 339 338 339 341 343 344 348
350 351 352 351 350 349 351 351 344 348 350 351 351 350 352 349 350 350 349 349 350 350 350 350 349 345 348 343 339 337 336 335 337 337 339 339 339 339 336 340 341 341 343
350 350 351 350 349 352 350 350 355 353 351 350 351 351 351 349 348 349 348 349 351 350 350 349 347 345 342 339 337 335 335 334 337 337 337 338 340 341 338 336 339 339 339
350 351 350 350 348 350 351 350 352 353 351 351 351 351 351 350 350 351 349 349 349 351 349 349 347 344 339 336 336 336 336 339 339 338 337 336 339 340 342 338 338 338 340
350 351 351 350 347 349 352 351 350 350 350 349 351 350 350 352 352 352 347 349 352 351 350 347 345 342 336 337 337 336 338 337 338 338 338 338 340 342 344 341 339 341 340
348 352 352 352 349 355 354 351 351 350 348 348 353 351 351 350 351 352 350 351 351 350 347 345 344 341 335 338 335 334 339 338 338 339 334 337 341 342 343 344 344 345 342
351 353 353 352 350 352 352 350 348 348 350 347 352 352 350 351 351 352 352 350 349 350 350 346 342 334 338 339 335 337 335 338 336 334 333 337 339 339 340 339 334 336 340
352 353 352 353 352 351 351 349 352 351 354 354 354 353 352 354 352 353 351 349 349 350 349 346 334 337 338 339 335 338 334 336 339 333 331 332 333 333 334 332 328 334 340
351 352 352 353 354 353 353 353 355 355 355 354 354 353 352 353 353 350 350 346 347 351 349 346 337 337 337 338 335 334 333 333 333 337 332 331 331 331 331 332 328 331 330
350 351 351 353 354 354 354 354 354 354 353 351 350 353 354 354 353 351 352 350 350 348 347 340 340 338 336 336 339 336 336 336 330 331 331 332 330 329 329 329 330 327 328
349 351 351 351 355 355 356 355 354 354 353 351 351 353 355 354 353 353 351 350 351 343 341 339 338 336 338 337 338 339 334 334 334 334 328 329 331 333 329 327 330 328 327

GFSSE_925_thetae_027.txt.gz
Theta_e
348 345 344 343 345 347 351 350 348 346 343 340 339 338 336 340 346 342 341 347 351 350 351 351 351 345 344 345 347 347 348 348 347 344 343 347 347 347 348 347 344 342 346
345 344 343 343 349 351 351 349 349 343 340 337 337 338 342 342 343 347 351 351 350 349 350 351 351 350 347 343 342 342 345 344 345 344 343 347 344 342 348 347 342 343 345
345 344 346 349 351 351 351 349 350 343 343 341 339 345 348 343 348 351 350 349 350 349 351 352 351 351 350 349 343 342 343 343 344 345 340 343 342 349 348 345 345 348 347
345 345 347 348 350 351 350 350 345 351 346 339 342 350 351 351 351 352 351 351 351 351 352 351 351 351 349 349 342 343 344 345 346 345 341 343 346 348 347 345 345 347 346
345 346 348 349 350 350 351 351 347 352 345 339 346 345 350 350 351 351 351 351 350 352 351 349 348 350 351 349 342 344 344 345 346 347 343 340 345 347 348 344 344 347 345
346 346 349 350 351 351 351 351 347 347 342 345 342 342 343 347 349 351 349 349 349 350 349 345 344 348 351 348 344 344 343 343 343 343 341 340 346 348 348 345 347 347 346
346 349 350 349 349 351 351 346 344 342 343 343 341 341 346 346 350 349 346 349 348 348 346 345 345 345 346 344 344 345 345 344 341 340 339 339 346 345 348 348 347 346 346
346 348 348 349 350 351 352 344 344 343 341 340 341 342 344 344 346 345 346 347 348 348 345 344 344 343 342 343 344 344 345 344 343 340 337 341 344 348 349 348 346 343 345
345 347 348 349 350 351 351 348 345 340 340 339 342 343 342 343 342 345 347 346 344 345 344 343 343 344 343 343 343 344 344 340 340 342 337 340 346 349 348 347 346 344 344
345 346 348 349 350 350 350 351 344 338 338 338 341 341 341 341 344 348 348 348 345 342 342 344 346 347 346 345 343 338 344 343 335 342 341 338 338 347 346 347 346 346 343
348 347 347 349 350 347 346 348 344 339 337 337 341 339 340 343 348 349 349 347 343 342 343 345 347 348 344 346 346 346 345 342 335 342 342 340 341 344 345 347 346 346 345
350 350 349 348 348 345 348 347 343 341 338 336 339 337 340 345 349 348 348 346 345 345 347 347 347 345 347 347 345 343 345 343 339 340 341 341 341 348 346 345 346 345 345
348 350 350 348 347 345 351 346 343 341 336 336 337 338 340 347 349 348 348 346 348 348 347 347 347 346 348 347 345 343 344 344 342 337 340 341 342 349 348 348 346 346 345
348 348 348 347 347 348 349 344 339 338 336 335 336 340 346 348 348 347 348 347 347 348 348 347 346 347 346 348 345 338 339 343 343 341 339 341 342 345 345 347 347 346 346
348 347 346 346 345 347 345 337 336 336 336 334 338 345 349 350 350 346 348 348 347 346 348 347 346 348 344 343 343 340 337 336 340 343 340 340 339 340 344 343 345 346 347
350 349 347 346 343 344 339 335 335 335 335 335 340 347 348 350 350 347 348 349 348 348 347 348 348 346 344 343 346 344 342 339 337 341 342 340 337 337 339 341 342 345 346
350 350 349 346 343 340 336 335 336 335 337 341 346 347 348 350 349 348 348 349 350 346 349 349 348 345 347 340 339 337 336 338 336 340 340 340 337 338 336 340 340 342 342
350 351 350 348 346 343 343 343 345 344 341 348 349 349 349 350 350 349 348 349 349 350 349 349 347 344 341 338 337 336 334 335 336 337 338 339 340 340 337 336 339 339 339
349 350 351 351 350 348 346 349 350 351 352 349 349 350 350 351 350 349 349 349 350 349 350 349 346 343 338 334 336 336 336 337 337 337 337 337 337 340 340 338 336 337 339
349 349 351 351 350 349 348 349 350 354 351 350 350 350 350 351 349 350 350 348 349 350 350 349 345 342 335 336 337 336 338 337 338 338 338 338 338 341 342 339 339 339 339
348 349 350 350 350 350 351 350 350 352 351 350 351 350 350 350 350 351 351 347 349 350 349 346 345 341 335 337 334 335 338 337 339 338 336 339 341 343 343 341 341 342 343
348 349 349 350 350 349 350 350 350 352 350 350 348 351 350 350 351 351 352 350 350 350 346 345 343 339 335 339 335 335 334 336 336 333 336 341 339 338 339 339 337 340 341
346 348 349 350 350 349 349 349 352 352 350 349 348 350 352 351 350 350 352 351 350 350 349 348 344 330 338 336 334 336 333 334 336 332 339 339 338 337 337 332 329 335 339
347 348 350 350 350 350 349 352 352 351 349 349 350 350 351 351 351 351 352 352 350 349 349 348 344 333 337 337 335 335 335 336 332 333 331 336 337 336 333 331 329 330 330
348 349 350 351 351 351 349 351 352 350 348 347 348 352 352 352 351 353 352 351 347 347 350 347 342 335 338 337 336 335 335 333 331 331 329 330 330 330 331 331 330 328 328
348 350 350 350 351 351 350 350 351 351 351 350 352 352 351 352 353 353 353 350 348 348 349 347 343 338 337 336 337 337 334 333 333 331 327 328 329 331 329 329 328 329 327

GFSSE_925_thetae_030.txt.gz
Theta_e
347 346 345 345 344 350 346 347 348 349 349 345 340 340 348 352 351 350 349 348 347 348 349 349 350 349 349 348 349 346 347 346 345 344 346 346 348 347 347 345 343 347 347
346 345 344 345 350 351 350 350 349 344 340 339 339 350 351 349 351 347 347 346 346 346 347 349 351 349 347 343 345 345 347 348 345 342 347 347 346 344 347 343 341 346 347
344 343 344 347 351 350 348 347 347 342 340 340 348 345 350 351 350 347 349 350 350 347 349 350 351 351 347 342 341 342 342 344 346 345 346 342 344 347 347 344 346 344 346
343 343 344 348 349 350 348 347 344 346 347 346 345 349 350 350 351 351 348 349 348 348 351 351 351 350 345 343 343 343 344 346 348 343 343 345 348 347 345 347 347 347 346
345 345 346 348 349 351 351 347 350 350 350 347 351 351 348 351 351 345 346 350 349 349 349 351 350 350 348 342 343 344 344 346 349 341 340 344 347 348 346 345 346 347 344
345 345 349 350 351 351 351 351 352 350 344 342 348 343 346 350 349 345 349 351 351 350 351 350 350 346 343 342 343 344 343 343 343 341 339 344 345 349 344 347 347 347 346
346 347 349 349 349 350 351 352 351 349 343 342 343 343 345 347 346 347 348 349 350 353 351 348 343 342 342 342 345 345 343 344 342 341 336 345 347 347 348 347 347 347 345
346 347 349 350 348 350 351 351 345 343 341 343 344 342 344 346 347 347 347 348 351 352 350 343 341 341 343 343 344 345 344 342 340 339 336 343 344 347 346 348 342 346 346
347 347 347 349 351 351 351 350 341 340 339 343 341 340 342 344 346 347 347 346 347 345 343 343 344 343 343 343 342 344 342 342 341 340 338 343 345 348 347 345 342 341 346
347 346 347 347 349 350 351 350 340 339 339 343 342 342 341 344 347 348 347 346 343 342 343 345 346 346 345 343 344 342 340 342 338 340 338 341 346 348 348 345 345 337 345
347 346 347 347 349 348 348 348 345 341 339 342 341 342 344 345 346 348 347 345 342 342 344 346 347 345 342 345 345 345 345 343 334 342 340 338 338 347 346 346 343 343 343
348 347 347 347 347 346 345 345 346 343 341 339 340 340 340 342 347 348 347 346 344 344 345 345 346 343 347 345 344 342 342 343 336 340 342 340 340 345 346 347 342 343 342
347 348 347 346 346 345 343 343 347 341 338 337 338 338 342 347 348 348 346 346 346 347 347 346 346 346 347 347 343 343 342 343 340 337 340 341 341 347 347 345 345 344 343
347 346 347 345 345 344 343 344 344 341 337 336 337 338 341 345 346 347 347 347 346 346 346 344 346 348 346 347 341 336 335 342 342 340 339 340 341 343 346 348 346 345 344
347 346 346 346 345 344 344 348 344 340 336 335 337 338 344 348 348 346 347 347 346 344 345 347 347 347 343 342 339 337 337 336 338 342 340 340 338 341 343 345 348 344 344
346 346 346 347 345 345 344 346 342 337 334 336 336 338 346 348 348 347 347 348 348 347 348 345 347 346 342 345 344 340 338 339 337 340 342 339 337 337 339 343 344 347 347
346 345 346 345 345 344 345 344 339 335 335 334 334 338 345 348 348 348 347 348 348 348 345 347 347 345 344 340 338 335 334 335 338 337 341 340 337 338 337 340 340 341 343
347 347 345 345 345 344 343 341 335 335 335 336 338 342 345 347 348 349 348 347 349 347 347 348 347 345 341 337 336 335 334 334 335 335 337 340 340 339 337 336 339 339 339
348 348 349 347 345 344 341 338 335 335 337 338 341 346 348 348 348 349 349 349 349 349 349 349 346 344 339 335 336 335 335 337 336 336 337 337 338 340 339 337 336 337 339
349 349 349 348 347 343 341 339 339 343 348 349 350 348 349 349 349 349 349 349 349 349 349 349 345 342 334 336 336 336 336 337 337 337 337 336 338 340 341 339 338 338 338
349 349 350 350 348 347 346 346 346 349 350 352 349 348 349 349 350 350 349 350 347 349 350 348 344 342 334 337 333 337 337 336 338 338 337 338 338 341 342 341 339 341 343
348 348 349 350 349 349 347 347 347 348 349 352 350 350 349 349 350 350 350 351 348 348 349 347 344 342 338 337 334 334 338 336 336 333 338 340 341 340 339 340 339 340 341
347 348 348 349 350 350 349 348 348 349 349 351 351 349 350 350 349 350 350 351 350 349 349 346 344 342 332 338 334 335 337 339 335 332 338 340 339 339 338 330 329 335 338
347 347 348 348 349 349 349 349 349 350 350 350 350 349 348 350 350 350 352 351 351 350 349 348 347 341 333 337 335 335 335 336 336 336 332 338 339 337 335 330 328 328 328
347 347 347 348 349 349 349 349 349 349 350 349 350 349 347 348 350 351 350 350 351 351 348 348 347 342 334 337 335 334 332 331 333 332 333 331 333 333 332 331 330 328 327
347 346 347 348 348 348 349 349 349 349 349 350 349 348 349 352 351 351 351 352 352 350 346 347 347 342 336 336 336 336 334 333 330 330 331 329 330 329 329 329 329 329 328

GFSSE_925_thetae_033.txt.gz
Theta_e
350 347 347 346 346 350 349 346 347 348 346 342 340 342 347 351 348 349 349 348 347 347 347 349 349 350 350 350 348 347 346 345 345 346 348 348 348 348 346 347 346 346 348
346 346 347 346 347 351 351 351 352 351 346 341 341 347 348 344 346 346 347 347 346 344 345 346 349 350 350 350 347 346 348 346 343 348 347 347 348 347 345 343 346 348 348
346 347 347 348 350 351 351 349 348 346 345 341 341 346 347 347 349 351 351 347 346 348 347 346 350 348 345 347 342 342 343 347 344 347 343 345 345 347 343 343 346 347 347
347 347 348 348 349 351 350 345 346 350 346 339 346 346 343 346 349 351 351 346 346 344 346 350 351 347 343 343 343 343 344 347 344 345 346 345 345 346 347 347 347 346 344
345 347 350 347 348 350 350 347 349 351 346 350 349 350 349 349 351 351 351 346 345 345 347 347 351 348 343 342 343 343 343 345 342 340 345 347 345 345 347 347 347 347 347
346 347 350 350 351 350 350 351 351 350 351 351 351 348 348 350 351 351 351 347 348 350 350 347 348 345 342 342 343 344 343 342 346 342 341 346 347 346 345 348 347 347 346
347 349 349 350 351 351 351 351 351 350 347 346 347 346 352 351 350 350 351 349 349 352 349 344 342 343 343 344 345 344 343 342 344 343 344 346 347 343 348 348 348 347 347
347 348 349 349 350 350 352 352 351 345 342 344 345 349 350 350 348 348 349 352 352 351 344 342 342 343 343 343 343 344 342 343 344 343 344 346 343 345 348 347 347 347 346
348 348 348 348 351 352 351 351 347 343 346 343 343 344 345 346 347 347 346 347 349 347 344 345 344 344 344 344 342 342 341 340 344 343 342 346 345 344 349 342 341 346 341
348 348 349 347 348 349 349 351 347 344 346 343 342 341 344 345 348 348 347 344 343 343 345 346 345 343 344 344 345 344 341 338 345 345 343 346 345 348 347 347 337 345 340
348 348 348 348 350 351 350 350 349 344 344 343 343 341 345 351 351 352 348 343 343 343 345 346 345 342 345 345 345 343 344 343 343 346 343 339 346 348 348 346 345 339 339
348 348 348 348 349 349 349 350 351 349 348 349 350 345 351 348 347 348 349 344 344 345 345 345 344 343 347 349 348 343 349 342 340 345 345 338 337 347 346 345 343 341 338
346 347 348 348 349 349 348 349 350 348 348 347 344 343 346 348 348 350 348 349 347 348 350 348 350 348 347 347 342 347 348 342 342 342 342 340 341 346 346 347 340 342 343
347 347 348 348 349 349 348 348 349 348 347 346 346 338 341 346 346 347 348 347 346 350 347 347 349 347 348 348 344 342 341 343 343 342 341 340 341 342 345 346 346 338 342
347 347 348 348 349 350 350 348 348 349 347 346 342 339 342 346 348 346 347 346 346 345 346 344 348 346 345 347 343 342 336 341 344 344 342 339 338 340 342 344 347 345 346
346 347 348 349 349 350 349 350 350 350 348 346 344 341 341 346 348 348 346 347 347 348 350 345 347 345 345 343 342 344 343 343 342 344 344 342 336 337 339 341 342 347 346
346 347 348 349 349 349 349 348 350 350 347 345 344 335 340 345 347 347 348 349 349 348 346 347 347 346 343 339 339 335 337 336 340 344 345 343 341 338 337 340 340 341 344
346 347 348 348 349 350 350 349 349 349 346 344 343 336 338 344 347 347 349 351 349 348 344 347 348 348 344 337 335 338 333 333 335 340 343 344 344 343 339 336 339 339 339
348 348 348 349 349 350 350 349 348 346 341 344 344 343 340 343 346 347 350 351 348 350 347 350 350 346 342 339 340 338 339 336 338 340 342 344 344 345 343 338 336 337 339
350 350 349 349 349 350 349 349 348 347 343 343 343 341 342 347 348 348 350 349 349 352 350 350 348 345 339 340 338 340 340 341 340 341 341 340 343 345 345 344 343 342 339
350 351 351 351 350 350 349 347 346 344 344 347 349 350 350 348 349 349 352 349 350 350 352 350 348 346 339 338 338 341 340 340 339 339 340 343 345 346 346 345 344 340 344
351 351 352 352 352 350 349 347 345 345 346 350 353 350 348 348 349 349 350 351 352 352 348 349 345 345 342 339 339 341 341 340 339 338 338 344 345 343 342 343 342 343 344
351 352 352 351 352 351 349 349 349 349 350 352 353 353 350 349 349 349 350 351 351 351 352 349 346 344 340 341 336 339 340 340 341 338 338 343 343 340 340 337 338 341 340
351 351 351 351 352 352 350 350 350 348 348 349 351 353 353 349 350 349 349 350 350 353 352 350 347 345 336 340 338 337 337 342 340 340 338 340 341 340 339 337 336 337 332
350 351 351 351 351 351 351 351 351 351 350 350 352 353 351 351 349 350 350 350 351 352 352 351 348 346 341 339 339 338 338 337 339 339 339 337 338 337 337 336 335 337 334
350 350 350 351 351 351 350 351 351 352 351 351 352 352 352 352 352 350 352 351 350 352 352 351 347 347 342 338 340 339 337 337 337 339 339 338 337 335 334 334 334 334 336

GFSSE_925_thetae_036.txt.gz
Theta_e
347 342 344 345 347 352 353 349 344 345 343 339 344 345 352 349 351 351 349 348 349 350 350 350 347 350 350 349 349 347 345 345 347 350 349 349 347 345 345 342 346 346 350
345 339 342 348 352 353 350 349 346 343 341 343 346 352 348 351 351 351 348 346 350 349 350 350 350 348 350 349 350 350 348 344 347 348 349 348 348 346 338 346 349 347 349
342 343 348 349 351 351 351 351 349 345 342 346 351 344 351 351 351 352 347 349 350 351 350 351 350 349 350 350 350 348 347 345 347 342 346 345 345 345 342 348 346 349 349
346 350 350 348 351 352 352 352 348 349 346 347 346 351 351 351 351 351 346 345 345 350 352 351 351 349 349 347 344 344 346 346 347 344 345 343 343 343 347 346 348 348 348
348 349 350 349 350 352 352 346 346 351 350 345 351 351 351 352 352 349 346 348 346 347 350 349 344 348 346 342 343 343 343 345 334 343 345 346 341 344 346 343 347 345 345
349 349 348 349 352 352 350 346 351 351 351 352 352 351 352 351 351 348 349 351 350 345 350 350 343 342 344 343 345 343 344 342 342 339 344 345 346 343 346 346 344 347 339
348 349 349 350 349 350 351 352 352 352 352 352 351 352 352 351 351 351 351 353 352 346 345 345 345 343 343 345 345 343 342 343 346 341 346 348 343 345 347 344 347 347 346
347 346 347 347 349 349 352 352 352 351 351 350 352 353 352 351 351 351 350 352 352 350 345 344 343 343 342 343 344 344 342 346 345 340 344 346 342 343 348 348 348 347 344
345 344 345 347 350 352 353 352 351 351 351 351 350 348 347 347 347 347 345 347 349 350 346 346 345 345 344 342 342 341 340 343 347 341 342 344 342 345 348 348 347 346 347
345 344 345 346 347 348 348 352 351 351 350 346 344 343 344 346 347 345 345 342 343 345 346 346 345 345 345 345 345 342 341 344 347 345 340 347 343 345 347 342 346 343 344
345 344 344 345 347 348 347 348 349 349 349 341 341 343 347 352 351 351 346 342 343 344 346 345 343 345 347 344 342 342 346 342 345 345 345 338 345 348 347 347 344 343 337
346 344 344 344 346 347 346 348 348 346 346 347 350 351 352 352 352 351 347 343 344 344 344 343 342 344 348 347 344 347 345 342 342 344 346 334 341 348 348 347 345 342 334
346 344 344 345 347 347 345 347 347 346 346 349 352 352 353 353 353 352 352 350 351 348 350 349 349 348 349 346 341 338 339 341 338 339 341 339 337 346 347 343 339 344 344
347 346 346 346 347 347 346 347 347 345 345 345 346 351 353 352 352 353 352 351 351 350 348 347 346 347 349 347 340 337 337 338 338 338 341 339 341 343 346 347 345 344 344
347 347 347 348 349 349 348 346 345 346 344 344 346 349 351 351 353 353 352 351 351 350 347 348 348 346 347 344 341 340 337 337 339 339 341 336 339 339 342 344 347 343 346
347 347 347 348 349 349 349 348 347 347 345 345 345 346 351 351 354 352 352 350 350 351 351 345 347 346 347 347 342 339 337 338 341 340 339 341 336 337 339 342 343 347 347
347 347 347 349 349 350 350 350 349 347 346 345 345 348 350 351 353 350 351 351 350 350 350 349 346 348 346 343 342 338 336 338 339 341 339 340 342 337 336 339 342 341 344
347 348 348 348 348 350 350 350 348 348 346 344 344 347 350 351 354 352 353 352 353 350 349 349 351 348 345 342 338 340 336 337 338 339 338 340 340 342 341 336 338 339 341
347 348 349 349 348 349 351 350 350 348 348 344 344 347 349 351 353 355 353 352 354 353 350 350 350 347 342 341 340 339 340 338 339 337 339 340 342 341 342 338 336 337 340
348 348 350 350 350 351 351 352 349 347 346 344 345 347 349 351 352 355 353 352 353 353 351 351 351 347 341 339 334 337 340 338 340 339 337 338 341 344 343 343 343 343 339
349 350 351 351 351 352 351 350 348 346 344 343 346 348 352 354 355 357 354 353 352 352 353 353 349 349 342 339 338 338 339 339 340 338 338 339 338 340 340 341 344 341 344
350 351 353 353 353 354 352 349 346 344 342 343 347 350 355 357 357 358 356 355 355 354 356 354 352 346 343 339 339 340 341 337 337 338 341 338 339 336 337 337 338 341 341
349 351 353 355 355 355 352 351 349 346 345 345 348 353 356 357 357 359 354 352 356 353 353 355 353 350 343 339 341 341 339 343 336 338 341 338 339 338 336 336 337 340 338
350 351 353 355 357 357 355 350 350 346 346 346 348 351 352 357 357 357 358 358 357 355 355 355 353 351 348 339 339 338 342 344 339 340 338 341 339 338 338 336 336 336 336
350 351 353 356 357 357 357 351 351 351 346 347 348 351 354 355 357 356 358 359 358 356 356 357 355 353 348 341 339 339 339 338 341 340 340 339 340 338 338 337 336 336 336
349 351 353 356 359 358 357 357 354 354 352 349 351 352 353 353 354 356 356 358 359 356 357 357 357 354 351 346 339 340 337 337 337 339 339 339 339 338 337 336 337 335 336

GFSSE_925_thetae_039.txt.gz
Theta_e
345 348 348 350 352 348 347 348 338 346 349 351 350 352 352 348 349 352 352 351 352 352 351 349 351 351 349 349 348 347 344 347 350 349 350 348 349 346 343 348 349 347 348
347 350 347 352 353 353 351 344 351 347 345 352 352 352 350 349 352 351 351 352 351 352 351 351 352 351 349 350 350 350 345 346 348 348 347 349 348 341 344 348 349 348 348
346 348 350 352 353 353 351 351 351 346 348 352 352 352 349 351 352 351 351 352 352 352 352 351 350 350 350 351 350 349 347 345 341 342 346 347 344 338 347 346 343 349 350
341 347 350 351 351 352 352 352 348 352 352 352 351 349 351 352 351 350 352 352 351 353 352 351 350 349 349 349 349 350 348 335 340 344 345 345 340 342 342 349 346 345 345
345 350 352 351 352 353 353 353 350 352 352 352 352 350 351 352 351 353 351 352 351 351 351 350 350 349 349 348 348 346 342 333 342 346 344 346 344 345 346 346 339 343 347
351 350 349 352 353 353 353 352 352 352 351 352 352 353 352 352 353 353 353 352 351 351 350 350 349 349 349 348 346 345 343 341 344 342 347 346 345 343 346 346 346 344 340
351 351 351 352 352 352 352 352 352 353 352 352 353 352 352 352 352 353 354 353 351 351 350 350 350 350 349 348 345 342 342 345 343 345 346 346 342 345 348 349 349 345 347
350 349 351 353 352 352 353 353 352 353 352 353 353 352 352 352 351 351 353 352 352 350 348 345 344 348 345 344 344 342 343 347 340 344 347 346 343 349 349 349 348 344 347
349 349 349 350 351 353 353 352 352 353 352 353 353 352 352 350 346 344 345 350 351 351 350 347 345 345 343 342 341 341 343 347 342 341 345 346 342 347 349 347 348 346 347
347 345 344 346 348 349 349 352 352 352 351 353 353 350 345 344 342 344 343 342 344 347 348 345 344 345 345 343 341 340 346 347 345 340 348 345 340 347 346 348 347 347 347
345 342 342 344 347 349 349 350 351 351 352 350 345 344 349 353 353 353 350 343 344 345 345 344 343 344 345 342 339 345 345 346 346 345 346 340 342 348 348 343 346 339 345
345 342 342 343 345 346 345 348 348 347 346 348 350 347 351 352 351 352 346 342 344 343 342 341 344 347 347 345 346 347 347 341 343 346 344 335 345 349 348 348 343 337 335
345 343 343 344 345 345 344 346 346 345 346 348 353 352 352 352 350 349 350 348 350 348 347 349 346 350 345 346 341 345 340 342 339 343 338 336 341 348 347 347 347 346 339
345 343 342 344 346 345 346 345 345 344 346 347 349 353 354 353 352 352 351 351 351 349 348 347 347 347 346 344 337 336 337 339 338 343 335 338 340 344 348 347 343 346 344
345 344 343 345 347 347 348 345 345 344 344 344 348 351 353 351 352 351 350 350 350 348 347 347 348 347 345 344 342 342 337 338 337 344 341 335 338 341 343 347 348 346 347
345 345 344 346 349 350 348 348 346 345 345 345 345 348 352 352 351 353 352 349 350 350 348 347 350 346 349 346 341 340 338 338 338 340 343 338 334 337 340 343 346 348 347
346 346 346 347 349 350 350 351 349 346 346 345 345 349 352 352 353 355 351 350 349 351 352 350 350 351 346 343 342 335 337 338 338 338 341 342 338 335 336 341 342 344 348
346 347 347 347 348 350 350 350 349 346 345 345 345 348 352 353 355 354 352 352 353 351 348 349 347 347 349 341 339 340 336 337 337 338 339 343 344 343 337 337 340 341 342
347 347 348 348 348 350 351 350 349 347 347 345 345 346 353 353 355 356 354 354 355 352 348 348 347 344 339 340 339 338 339 338 339 338 337 340 339 344 341 336 335 337 339
347 349 350 349 349 350 351 352 350 347 348 346 345 346 352 354 355 356 353 355 353 353 350 350 350 342 340 337 336 338 338 339 340 338 336 340 338 340 344 345 342 342 338
347 349 351 351 351 352 352 351 349 347 347 346 345 346 350 353 354 357 356 355 354 350 353 349 350 346 341 338 338 338 338 340 341 336 339 338 338 343 340 340 343 345 342
347 349 352 353 354 354 352 351 348 347 345 345 344 347 351 355 357 358 357 354 354 353 355 351 350 347 342 338 344 339 346 339 337 337 340 338 339 336 336 337 339 340 344
348 351 353 355 355 355 353 352 351 348 346 344 344 347 352 355 357 359 357 355 354 355 354 355 351 348 345 337 344 344 349 349 336 337 338 339 337 335 335 336 338 340 339
349 351 354 357 357 357 355 352 351 348 345 344 344 345 351 355 357 358 355 355 357 355 354 355 352 352 343 341 337 338 344 345 349 342 338 340 339 338 338 337 337 337 336
348 350 353 358 359 357 358 354 352 351 345 345 345 346 350 356 357 356 358 358 358 356 353 355 355 354 349 345 340 338 338 337 340 344 347 340 338 338 340 338 337 338 337
347 349 352 358 360 360 360 357 357 352 349 347 347 348 351 352 357 356 356 358 357 357 355 355 356 356 354 346 342 340 338 338 338 339 342 341 341 338 337 338 338 337 338

GFSSE_925_thetae_042.txt.gz
Theta_e
348 348 349 351 353 350 346 345 350 351 349 346 352 348 351 348 351 349 351 352 352 351 351 352 351 349 348 348 348 344 345 349 345 342 340 339 344 346 350 350 349 349 348
348 350 349 353 352 351 350 343 349 349 347 351 349 351 348 352 353 351 351 352 352 352 352 352 351 349 350 351 350 346 339 347 348 349 349 344 340 344 347 349 348 349 349
348 349 352 351 351 350 347 349 349 349 351 349 350 347 350 351 351 351 352 352 352 352 352 351 351 351 351 351 350 348 335 342 345 342 347 345 335 344 346 345 350 350 348
347 350 352 352 351 350 352 349 350 351 349 350 347 349 348 352 352 353 353 352 354 352 352 351 350 350 350 350 350 344 333 340 343 344 344 344 337 341 346 346 344 343 344
346 349 352 350 352 352 351 349 350 351 352 351 349 351 352 353 354 352 353 352 352 352 351 351 351 350 349 349 348 340 332 340 344 346 347 346 344 344 342 342 343 349 346
349 352 350 351 353 353 350 351 351 351 352 352 351 352 352 353 354 353 353 351 352 351 351 350 350 350 349 350 346 342 340 343 346 347 346 345 343 343 348 349 348 348 342
350 353 353 352 353 352 351 351 351 352 353 352 352 352 352 352 353 354 353 352 351 351 351 351 350 350 349 347 342 340 342 344 345 346 344 340 343 347 348 349 344 346 341
350 350 353 353 351 351 352 352 351 353 353 353 353 352 351 351 352 353 353 352 350 349 347 346 346 345 344 343 341 340 345 346 346 347 344 339 343 347 349 348 346 345 346
350 351 353 354 353 352 351 353 353 352 353 354 351 350 346 345 344 345 349 352 351 348 346 345 345 345 343 341 340 341 345 344 345 346 347 340 343 349 349 347 346 347 346
348 350 351 351 351 350 352 353 353 348 350 349 348 347 347 348 342 340 342 345 346 345 344 345 344 342 342 341 339 344 345 347 345 346 346 339 342 347 348 347 347 347 346
349 347 347 348 350 349 350 351 351 346 344 344 343 346 347 352 351 352 350 344 345 344 347 345 344 343 342 340 343 344 347 342 346 347 341 339 343 347 344 347 339 345 345
346 344 344 346 349 349 348 345 350 349 348 350 350 337 345 350 351 352 343 343 345 344 346 343 342 345 345 344 343 343 347 346 346 343 337 340 343 348 346 346 340 338 344
346 342 343 346 347 346 346 342 348 348 348 348 347 349 348 352 351 349 346 346 337 343 347 347 343 348 348 349 349 344 343 347 345 342 336 333 343 349 344 345 341 335 337
345 343 344 346 346 345 345 343 347 347 347 349 352 353 353 351 350 346 348 350 347 346 350 350 349 347 348 345 342 336 339 343 343 337 337 337 339 347 346 348 347 344 341
346 343 345 347 345 346 350 344 346 345 345 347 350 349 354 351 351 351 351 350 351 350 350 350 347 347 343 343 340 341 337 340 343 340 335 336 338 341 349 348 343 347 345
345 344 346 348 345 350 348 348 346 345 343 346 346 349 347 353 352 352 351 349 350 348 346 349 350 348 345 344 338 338 338 336 342 343 334 334 335 341 342 346 347 347 347
345 344 346 349 347 350 348 350 348 347 346 344 347 349 351 351 354 352 353 350 350 352 351 350 350 346 343 346 338 335 340 339 338 340 342 334 335 337 341 342 344 347 347
345 345 347 346 350 346 350 349 350 348 346 346 345 348 351 353 356 351 348 352 353 350 350 350 348 349 346 340 338 339 339 337 337 340 343 343 342 339 338 340 340 341 344
345 347 348 347 350 350 352 352 349 349 348 346 345 348 350 352 354 353 352 338 352 352 349 349 348 347 347 342 338 341 339 337 339 338 339 342 344 344 341 335 337 338 340
347 349 347 348 350 351 351 351 352 350 348 348 346 345 352 353 354 353 353 351 355 351 351 350 345 339 340 337 340 337 338 338 339 338 338 342 344 342 342 340 336 337 341
349 351 350 350 349 353 353 353 353 351 349 348 347 345 352 352 354 355 354 355 353 351 350 350 347 343 345 337 341 341 337 340 339 339 339 340 342 338 341 345 344 344 340
349 352 353 351 351 354 354 354 352 351 349 348 347 346 348 351 354 355 354 354 353 354 353 348 348 348 342 338 344 339 344 342 339 339 340 340 340 339 338 337 342 344 343
351 352 354 353 355 355 354 353 352 350 349 349 347 345 349 352 356 355 355 353 353 353 353 352 349 349 341 337 341 339 347 348 342 337 338 335 337 335 334 338 339 342 339
350 352 354 355 355 357 354 354 354 352 351 349 346 346 350 350 354 358 355 356 354 354 354 352 352 352 345 340 337 342 343 346 351 345 338 336 340 338 337 337 338 335 333
350 353 355 356 357 359 355 357 353 353 350 347 347 345 347 352 354 357 358 354 355 354 354 353 353 345 351 346 340 337 338 340 341 345 347 342 338 339 338 339 338 337 336
350 354 355 358 358 359 359 353 359 354 351 348 346 348 350 357 355 357 358 357 355 354 355 353 356 353 352 349 344 339 338 338 340 340 346 344 341 341 340 338 338 338 337

GFSSE_925_thetae_045.txt.gz
Theta_e
345 349 348 350 352 351 351 349 347 346 350 345 347 347 348 348 347 347 349 349 348 349 351 351 349 350 350 347 341 341 348 349 350 348 341 342 342 347 348 349 350 349 349
346 348 348 348 349 350 348 347 346 345 350 344 345 349 352 352 350 348 351 351 351 352 352 352 348 351 350 348 347 344 347 346 349 349 345 347 348 348 347 348 349 348 349
347 349 349 347 347 347 344 346 345 352 344 347 348 347 349 351 351 352 352 352 352 352 351 351 351 351 350 343 344 342 342 343 344 347 346 337 346 348 347 349 349 349 348
347 352 349 348 347 351 348 345 351 348 347 345 350 345 350 351 352 352 353 352 351 352 351 350 350 350 348 343 340 335 341 343 344 343 343 340 347 342 344 349 345 346 347
351 350 352 349 348 350 346 347 348 346 347 348 345 351 352 351 353 352 352 352 351 351 351 351 350 350 349 345 340 334 339 343 345 346 343 340 341 344 346 347 347 349 347
351 349 350 351 352 348 348 349 348 349 348 350 347 353 353 353 353 353 352 352 351 351 351 351 350 350 349 345 341 337 341 346 346 346 345 342 340 348 350 349 349 348 348
350 346 351 352 352 348 348 351 350 352 350 347 350 353 353 353 354 353 352 352 352 351 351 349 348 347 347 341 339 341 344 345 346 344 341 340 345 347 349 346 346 346 347
350 346 352 352 349 349 352 351 350 351 349 350 349 348 348 348 351 351 351 350 350 351 346 343 343 343 343 341 339 342 345 347 346 343 336 339 341 346 348 347 347 346 346
351 349 351 352 352 351 350 352 351 348 352 351 347 348 346 346 345 347 348 348 347 345 345 345 345 344 342 340 340 344 345 346 345 344 339 338 343 347 348 346 347 346 346
351 350 351 352 350 349 350 352 351 347 351 347 345 346 347 350 347 342 345 347 349 344 342 343 344 342 341 339 342 345 347 346 348 344 339 341 342 346 347 345 346 346 346
352 350 352 350 348 346 345 350 350 346 346 344 343 344 346 349 350 348 347 344 346 344 342 340 343 343 339 342 345 345 345 345 346 345 339 341 341 348 346 346 346 345 344
351 351 350 348 348 348 344 341 340 336 339 347 349 346 347 349 350 349 343 345 345 344 345 341 343 345 340 339 343 345 345 345 345 339 337 341 342 344 346 342 344 344 343
348 348 348 349 348 348 347 338 341 339 346 350 349 344 343 349 349 351 341 342 340 338 344 344 345 347 346 348 348 344 347 347 344 339 339 341 343 348 347 341 337 343 344
346 345 345 348 348 348 346 337 344 346 347 346 346 344 341 334 347 347 345 346 346 344 347 350 349 348 346 343 344 347 348 346 343 335 336 337 345 342 348 347 340 337 337
345 342 345 346 347 346 347 340 346 347 347 348 350 350 348 349 349 349 349 349 348 348 348 349 348 346 343 338 341 342 345 343 339 334 334 339 345 341 347 345 346 345 343
345 342 346 345 346 346 346 343 345 348 347 349 352 348 349 343 350 349 351 350 350 348 345 350 346 346 343 341 340 337 344 342 342 336 332 336 341 342 342 346 343 345 345
345 344 346 344 345 347 346 350 346 347 345 348 348 349 349 350 351 351 351 350 349 348 347 349 348 346 344 344 338 339 340 340 342 338 332 333 338 341 342 344 340 339 343
346 348 346 346 345 346 345 348 346 348 347 346 346 348 350 350 354 350 351 351 350 352 350 349 348 346 345 340 338 340 338 340 341 342 341 337 333 333 337 341 342 342 338
347 348 348 347 344 345 344 347 347 347 348 348 350 347 347 345 353 351 348 348 349 353 349 350 346 346 347 341 338 339 337 337 339 342 342 342 342 339 334 337 338 340 343
344 348 348 348 347 345 346 346 345 345 347 347 348 350 348 347 350 349 349 348 350 349 351 350 342 341 338 340 340 339 338 338 338 341 343 343 343 342 336 337 336 336 339
345 347 345 349 349 348 349 350 350 346 348 348 347 350 351 350 352 352 349 352 351 352 350 346 337 343 338 340 338 339 339 340 339 337 342 343 343 342 341 343 342 341 341
349 347 348 350 350 350 349 350 351 352 348 347 346 348 351 351 353 354 353 353 352 353 350 349 348 347 339 339 342 339 336 339 340 340 340 342 341 342 342 342 344 344 340
351 349 349 347 351 350 350 350 349 352 352 349 347 346 354 352 351 352 354 351 352 354 352 349 347 347 339 340 342 337 339 340 339 339 339 341 339 339 337 338 343 344 341
351 350 348 348 348 352 351 353 352 351 351 351 349 346 345 349 349 352 355 352 352 353 354 350 346 347 340 338 340 344 340 342 337 336 337 338 336 334 336 338 338 341 333
350 353 351 349 350 354 353 353 353 352 352 349 350 347 345 347 348 351 357 353 352 353 353 350 352 352 343 341 337 338 338 341 342 338 338 337 339 337 336 337 337 336 333
351 353 354 352 353 353 354 353 352 354 352 351 348 347 346 348 349 351 357 357 354 354 352 353 354 348 350 346 343 342 337 338 340 342 341 340 339 339 337 339 338 334 334

GFSSE_925_thetae_048.txt.gz
Theta_e
347 349 349 351 351 351 352 344 347 343 342 340 346 348 348 351 351 350 349 351 351 348 350 348 349 350 349 343 346 349 349 349 350 350 351 351 350 350 350 350 348 348 349
346 348 350 350 351 350 346 345 351 342 346 345 351 351 351 351 351 351 350 351 351 350 352 349 350 350 349 345 346 347 349 348 348 348 350 351 351 348 351 350 348 348 348
347 346 350 348 351 349 345 344 349 345 347 351 348 350 350 351 352 352 350 349 350 351 351 350 351 351 349 347 346 346 344 343 348 343 344 346 347 348 348 350 349 349 348
349 348 348 343 343 346 343 350 344 351 348 348 346 350 351 350 352 353 351 351 351 351 351 351 351 345 348 346 346 344 343 343 345 339 341 347 346 344 350 349 348 348 347
349 347 350 346 344 344 344 351 349 345 351 346 350 349 350 352 352 352 352 351 351 351 351 351 350 347 344 340 339 342 345 345 344 343 338 344 344 348 349 348 349 348 347
349 350 348 351 348 345 352 346 351 348 351 349 349 350 350 352 352 352 352 352 352 351 351 351 351 348 346 342 339 342 344 346 344 341 338 342 344 348 349 349 347 347 347
350 350 350 349 345 347 348 351 350 351 348 348 350 351 353 353 353 353 353 352 352 352 351 351 349 345 341 341 342 344 344 345 344 343 342 339 348 348 349 348 347 347 346
349 351 351 350 347 347 351 351 351 349 344 350 352 352 350 352 353 352 352 352 352 351 346 343 342 342 341 339 342 344 346 345 343 340 344 344 346 347 346 346 347 346 346
348 351 352 351 352 351 351 352 349 345 346 351 349 347 347 347 346 347 347 349 348 351 347 343 342 341 339 340 343 344 347 346 341 340 341 342 346 347 348 347 346 346 346
349 350 351 351 350 349 350 351 343 345 350 350 346 343 344 344 344 344 345 346 344 344 345 343 342 341 340 342 343 346 344 345 341 339 340 344 346 348 348 347 346 346 345
350 349 352 350 347 348 350 350 342 345 347 346 347 344 346 348 344 347 344 344 343 345 345 343 344 340 341 343 343 346 344 344 342 340 341 343 347 348 347 347 346 345 344
352 350 350 347 345 344 344 343 337 343 343 343 343 346 349 349 350 348 344 345 344 343 341 341 343 344 340 342 345 344 345 345 344 340 340 344 347 347 346 346 343 344 345
351 350 348 344 344 341 337 335 335 339 345 345 340 339 347 349 348 350 342 344 342 341 344 343 345 346 346 347 345 344 345 345 342 337 341 342 344 347 344 344 346 342 345
351 350 346 344 346 344 332 332 333 341 348 345 347 342 347 346 349 348 342 343 341 341 347 347 348 346 345 344 345 347 345 343 344 336 341 345 346 347 344 340 339 344 344
349 349 346 346 346 345 338 334 340 344 346 346 346 342 346 342 345 346 344 347 347 347 348 347 347 343 341 341 341 342 347 346 341 336 339 344 342 346 347 345 341 340 341
346 347 345 347 346 346 345 339 345 346 346 347 348 348 345 345 349 349 350 348 348 347 346 347 348 345 346 342 339 340 346 345 336 334 338 341 342 342 347 346 346 346 345
344 345 345 347 346 346 347 344 345 347 348 347 348 348 347 346 349 349 348 348 348 347 347 350 345 345 343 342 338 342 343 341 337 332 333 336 340 342 343 344 342 343 346
344 342 344 346 346 345 347 348 348 348 346 348 350 348 349 349 348 350 351 349 349 350 350 350 348 345 343 339 337 341 341 342 339 333 334 334 336 341 343 343 342 341 342
344 342 344 345 346 346 348 349 346 347 348 348 350 349 348 349 352 349 348 349 349 349 349 349 347 347 345 342 339 339 339 341 340 339 338 340 335 336 338 340 341 342 343
345 343 344 345 346 347 346 347 345 346 346 348 349 349 348 349 349 348 350 348 346 352 348 349 348 345 343 342 342 337 338 340 340 341 342 343 342 335 336 336 336 337 339
347 346 345 345 346 348 346 347 346 345 346 346 347 350 349 347 345 346 348 349 350 350 350 348 340 340 338 340 340 338 338 339 339 341 341 342 342 341 338 339 338 339 338
347 347 346 346 345 346 344 344 345 344 345 345 347 347 350 349 348 348 347 350 348 351 349 349 342 345 338 340 339 337 333 338 339 340 341 342 342 342 340 342 342 342 340
346 347 347 347 345 345 345 345 344 342 343 344 347 347 349 350 351 351 351 347 351 352 350 349 348 346 338 342 339 336 337 336 337 339 342 342 341 340 340 340 342 343 341
345 347 347 348 347 347 347 346 346 348 350 346 346 347 347 351 352 353 351 351 350 352 352 350 347 348 339 340 343 341 337 341 332 333 339 342 342 340 337 339 339 340 339
346 347 347 349 349 348 348 348 348 349 350 351 348 348 347 351 352 352 350 352 351 352 351 351 348 346 341 338 340 343 341 342 342 335 334 337 340 338 336 338 338 334 335
347 347 348 351 350 349 349 349 348 348 348 350 350 350 348 347 351 350 350 353 352 350 352 352 351 350 346 342 336 339 338 339 339 341 337 336 338 335 335 338 337 335 334

GFSSE_925_thetae_054.txt.gz
Theta_e
345 345 348 348 350 352 351 350 350 350 351 349 349 347 347 350 351 350 350 350 350 349 350 349 347 345 348 348 349 350 347 349 350 350 351 351 350 350 348 348 347 349 349
343 345 346 349 351 352 350 350 350 348 350 350 350 351 351 351 349 350 351 351 350 349 350 349 347 344 348 348 349 348 349 349 351 351 351 351 350 350 349 349 347 348 348
343 346 348 348 350 350 350 349 351 351 351 349 351 351 351 351 350 350 351 350 349 350 351 348 347 348 346 346 350 349 348 350 350 348 349 349 348 350 350 350 349 347 348
345 345 348 347 349 350 350 349 351 351 351 351 350 349 350 350 351 348 351 351 351 349 348 350 348 348 348 348 347 348 348 347 347 345 347 349 350 349 350 349 348 348 347
348 345 348 347 349 349 351 351 348 351 351 351 349 350 348 351 351 352 352 350 347 345 346 348 348 347 346 342 342 342 343 346 344 344 345 348 349 350 349 348 348 347 345
348 347 349 350 351 350 351 351 346 351 351 352 351 351 352 351 351 351 351 352 345 343 343 347 349 346 346 344 345 343 342 345 338 341 344 346 347 349 348 348 347 347 347
348 349 349 349 353 348 350 352 346 351 350 350 348 349 351 350 351 352 351 351 352 346 344 347 349 342 343 343 343 344 342 341 336 341 343 347 347 348 348 348 347 347 346
343 347 349 349 352 351 351 351 350 350 351 350 348 348 349 350 351 352 351 351 351 350 349 341 339 340 342 342 342 343 343 342 336 338 345 347 346 348 348 347 346 346 346
346 347 349 349 350 351 350 351 350 350 349 347 348 348 349 350 351 352 352 352 350 348 345 343 341 339 342 342 343 343 344 341 340 340 344 345 344 346 347 347 346 345 344
348 348 348 350 349 349 349 351 350 350 350 351 350 349 352 353 352 347 345 349 349 342 341 345 339 340 342 344 343 343 343 338 341 342 344 344 346 345 347 347 346 346 344
348 348 348 349 347 348 349 350 350 350 351 351 351 351 348 347 347 346 344 346 348 348 343 341 341 340 341 342 341 341 344 339 340 341 344 345 346 346 347 346 342 343 343
349 349 348 349 344 348 348 351 349 350 350 350 346 341 342 343 344 344 344 345 345 343 343 342 341 342 342 342 343 342 342 342 339 340 343 344 345 345 347 345 342 342 341
349 350 349 348 343 346 346 349 348 348 347 345 346 347 347 345 345 343 343 344 343 343 342 343 343 341 342 343 342 343 343 343 340 339 343 343 344 347 346 345 345 344 344
347 350 349 348 342 344 343 344 345 344 344 343 344 343 346 346 345 342 342 342 338 344 345 344 345 344 344 344 343 344 344 343 341 339 341 343 343 345 346 345 343 345 342
349 350 347 346 340 340 340 340 342 343 342 343 342 343 347 347 346 344 343 344 344 345 345 344 343 340 340 342 346 344 344 344 341 339 340 341 343 343 344 345 344 343 343
349 347 346 344 338 337 336 336 338 341 344 346 345 340 340 345 345 343 343 345 346 346 345 345 343 342 339 338 341 343 345 345 341 336 341 343 342 343 343 341 340 339 339
346 345 345 342 337 335 333 334 335 340 345 346 345 342 345 345 346 346 346 346 347 346 345 344 346 343 340 338 340 342 345 345 339 334 338 341 339 342 344 343 341 341 341
347 345 344 342 337 336 335 333 334 339 344 345 346 346 345 344 348 348 347 347 346 345 346 345 346 343 340 337 340 342 344 343 336 334 338 339 341 342 342 342 341 341 341
347 345 344 342 337 336 336 336 337 343 345 346 346 346 347 346 345 348 348 347 346 347 347 345 346 344 341 338 339 341 343 340 337 334 336 337 338 339 341 342 342 340 338
348 347 345 342 338 338 338 343 344 342 342 345 346 347 346 347 347 349 346 347 347 346 346 345 347 346 345 341 339 341 341 340 340 335 336 337 335 336 338 339 340 339 340
347 347 347 344 340 343 343 344 346 346 346 347 345 347 348 348 349 350 347 348 348 347 347 346 342 343 340 343 338 337 338 339 341 340 340 339 339 337 337 337 337 338 337
345 345 346 345 341 343 343 344 345 347 347 347 347 348 349 348 349 349 347 347 344 347 347 347 343 337 339 340 337 336 339 338 338 340 341 341 341 341 340 338 338 339 339
346 343 344 345 342 343 343 344 345 347 346 346 347 348 349 349 349 349 347 348 347 348 348 348 339 343 339 339 337 336 338 340 335 337 338 340 340 341 341 340 339 340 341
344 344 344 344 344 342 343 343 345 347 346 345 345 346 347 349 349 348 348 347 347 349 348 347 346 345 337 339 336 336 335 337 340 341 337 339 340 340 340 339 338 339 340
345 344 343 344 343 343 342 343 344 346 346 345 344 345 346 346 348 349 349 350 349 349 349 349 348 346 345 338 338 339 339 339 335 334 339 337 339 340 340 338 337 338 337
345 344 344 343 343 343 343 344 344 344 345 345 343 343 344 345 345 347 349 349 350 349 349 348 350 349 346 338 339 339 338 338 339 336 335 334 336 337 339 338 337 336 337

GFSSE_925_thetae_057.txt.gz
Theta_e
349 348 344 349 350 349 351 350 345 343 341 343 348 348 344 340 341 348 349 351 348 344 349 347 346 348 349 350 351 348 344 345 346 351 352 350 347 347 349 348 349 349 348
348 349 346 349 350 350 350 350 348 347 348 344 343 347 349 349 350 349 350 351 346 349 348 347 345 348 348 349 349 349 349 348 351 352 352 351 351 348 346 349 348 347 349
347 350 349 350 350 351 349 348 350 351 350 350 350 351 350 348 347 351 351 350 350 350 349 348 348 347 348 349 348 348 350 350 347 351 351 350 350 350 350 350 348 349 347
347 350 348 349 348 350 350 349 351 351 347 350 351 350 351 347 348 351 351 351 350 351 351 349 349 348 348 349 349 347 349 349 347 349 350 350 349 348 350 349 349 348 347
348 350 348 349 346 348 351 351 350 351 351 351 350 350 350 351 347 352 350 345 345 348 349 349 348 348 346 346 343 348 349 344 345 348 350 350 349 349 349 347 348 348 346
348 349 348 351 346 352 351 347 351 350 351 351 347 347 349 350 352 348 345 346 347 349 349 349 349 348 348 347 341 344 346 340 344 348 348 348 348 348 348 348 347 348 348
346 349 348 351 346 351 352 346 351 351 351 350 349 349 349 349 350 350 349 349 347 349 349 350 347 347 345 344 343 341 343 338 345 347 347 349 348 347 349 348 347 347 347
348 347 348 352 346 351 352 346 351 351 350 351 350 348 349 348 350 350 351 351 350 350 348 347 342 342 343 343 343 342 342 342 343 346 348 348 347 348 348 348 347 345 346
347 347 348 353 350 351 351 350 351 351 350 350 351 347 347 347 348 349 351 350 348 348 347 345 342 341 342 342 342 343 342 339 345 347 347 347 344 347 348 346 347 346 345
346 347 348 351 348 348 349 351 351 351 351 351 350 348 349 350 352 343 345 344 347 348 347 346 340 341 343 341 342 342 338 341 345 346 345 345 343 345 348 346 346 345 345
346 347 347 350 349 350 350 349 351 351 350 351 350 348 349 351 349 347 343 343 341 343 347 343 340 342 343 341 340 341 341 344 345 344 345 344 345 344 347 346 346 344 344
348 347 347 348 348 349 348 350 351 351 350 350 351 346 348 347 348 348 346 343 342 341 343 342 341 341 345 347 345 343 346 345 345 344 344 343 344 345 346 346 345 342 344
347 346 347 348 349 349 349 351 350 351 350 349 344 342 344 346 350 348 347 345 344 343 346 344 345 346 346 346 346 347 347 346 344 343 344 343 344 346 347 345 344 343 342
347 347 347 348 348 350 350 349 350 350 350 350 347 347 346 349 345 345 347 340 341 345 346 346 349 346 348 347 348 347 347 346 343 343 344 341 342 346 345 345 343 342 341
346 349 347 349 348 349 350 350 350 350 349 349 344 340 346 348 348 344 343 343 345 345 345 343 344 343 341 344 348 348 347 347 344 343 344 342 343 340 346 346 344 344 343
347 348 348 349 348 348 348 347 348 349 348 347 345 343 346 347 345 345 343 346 347 345 343 344 343 344 342 344 349 349 348 346 344 344 346 344 343 343 338 339 339 340 341
348 348 348 348 347 345 343 341 344 346 347 348 348 342 339 344 345 345 346 348 349 346 344 342 345 343 341 343 348 348 348 347 343 344 346 346 344 342 345 342 339 338 339
347 348 348 346 345 345 344 337 342 343 346 348 347 345 343 345 347 346 347 349 347 346 344 342 344 346 343 343 346 347 348 346 343 343 345 346 346 346 344 340 342 341 343
346 348 348 347 345 344 338 339 336 338 343 347 346 346 346 346 345 348 348 349 346 349 348 347 347 344 344 342 344 346 345 343 341 341 343 344 346 346 346 343 341 339 338
347 347 347 346 346 341 343 338 342 341 343 345 346 346 346 347 347 347 348 347 347 346 345 346 346 347 345 341 342 343 344 344 343 342 343 343 343 344 344 345 346 345 339
349 348 347 347 344 343 344 344 345 345 346 347 345 346 346 347 347 348 348 347 347 345 343 345 346 345 346 339 340 342 342 343 344 343 343 343 343 343 343 344 344 344 343
348 348 348 347 345 341 344 345 347 348 348 350 347 345 347 347 348 349 347 348 347 347 345 346 342 342 343 341 342 342 343 342 341 342 344 344 344 344 344 343 343 344 343
348 349 348 348 347 341 344 346 345 346 346 348 349 348 347 348 348 349 348 348 345 346 346 348 342 341 343 344 339 342 343 341 342 341 343 343 345 345 345 344 344 343 341
348 348 348 348 347 346 341 346 346 347 348 348 350 349 347 347 348 349 349 347 348 349 347 349 346 344 340 343 341 338 336 342 340 342 342 342 344 344 345 344 342 343 340
347 347 347 347 347 346 345 345 347 347 348 349 348 347 347 347 348 349 349 349 349 348 347 348 347 346 344 343 342 342 344 343 339 340 341 342 342 343 344 343 341 342 343
346 347 346 346 346 346 345 344 345 347 348 348 348 348 349 350 349 348 349 349 350 351 348 349 348 348 346 344 343 343 342 341 342 342 342 342 341 342 342 343 341 341 341

GFSSE_925_thetae_060.txt.gz
Theta_e
350 350 348 350 351 351 352 352 350 346 347 349 349 349 344 343 343 344 351 350 344 351 345 346 349 350 351 351 350 350 347 347 352 353 351 349 350 346 347 346 347 345 349
350 349 346 350 351 351 351 348 345 344 345 349 349 349 348 350 351 350 351 344 351 349 348 345 349 348 350 350 350 351 345 349 353 353 352 350 349 348 349 349 348 348 349
349 348 349 347 350 350 348 351 351 350 350 350 350 350 351 351 351 350 351 344 349 349 349 349 348 350 349 348 350 351 350 349 351 347 351 348 349 350 350 349 349 349 349
349 347 350 347 348 351 351 351 352 352 350 350 351 350 349 351 351 350 351 351 347 349 350 350 348 348 349 349 349 348 349 348 345 348 349 348 348 349 349 349 348 346 346
346 345 351 348 348 351 351 351 351 352 352 352 351 351 352 352 351 347 350 349 350 350 350 350 349 348 348 349 348 350 347 344 346 347 350 349 347 349 348 346 346 349 346
345 344 349 348 348 353 351 352 352 352 352 349 351 350 351 348 348 350 350 350 350 350 350 350 350 346 346 347 348 347 345 344 349 348 348 349 349 349 349 347 346 348 346
344 345 351 347 352 352 348 351 351 352 352 348 350 349 348 350 350 348 349 349 350 350 350 347 348 347 345 346 347 345 337 345 346 346 349 349 348 349 350 345 349 348 344
343 343 350 348 352 352 350 352 352 352 352 352 351 350 348 350 349 351 352 352 350 349 350 347 346 344 343 341 341 344 340 342 343 347 348 347 347 348 349 349 347 348 342
342 344 349 347 351 353 350 351 351 352 353 352 350 347 348 350 352 351 351 350 349 349 347 348 343 342 341 341 343 342 340 345 346 346 346 344 345 349 348 348 346 346 346
342 344 348 346 347 352 347 352 352 352 352 351 348 347 349 349 344 342 341 347 349 348 347 346 342 341 341 342 341 337 340 344 342 342 343 342 344 349 348 347 346 344 343
343 344 347 345 346 348 349 350 349 351 352 351 349 346 348 347 347 347 342 347 349 349 345 341 342 341 340 341 341 342 344 342 341 342 342 345 346 347 347 347 346 342 344
342 343 345 344 346 348 346 349 349 348 348 349 349 350 348 349 349 347 344 340 346 347 345 341 341 345 347 345 345 346 342 342 341 341 343 344 345 346 348 344 343 344 345
342 342 344 345 347 347 347 348 348 348 348 349 351 349 349 349 347 348 346 347 346 347 345 346 348 347 347 345 346 344 345 343 340 341 342 342 345 345 348 346 345 343 343
341 342 344 346 347 348 348 348 348 347 347 347 348 352 351 350 349 348 346 347 348 348 350 347 346 349 349 349 346 345 344 342 341 340 341 342 345 347 346 344 345 343 344
342 342 344 346 348 349 349 348 347 347 348 348 350 349 350 350 350 348 348 349 348 349 347 347 346 346 347 349 348 347 345 344 344 341 342 342 339 345 346 345 346 344 343
342 341 343 346 347 349 350 350 349 349 350 350 349 348 353 351 351 349 350 349 348 349 347 346 345 343 344 345 348 348 346 345 344 345 342 344 343 341 339 344 342 342 342
342 343 343 346 347 349 350 351 350 349 348 349 349 350 349 352 353 351 350 350 349 350 350 349 348 346 339 342 346 347 347 345 344 345 346 346 345 341 342 342 339 338 339
343 344 344 343 345 348 348 350 347 348 348 348 350 350 349 352 353 351 349 350 351 350 347 346 340 342 340 341 344 343 345 344 344 345 345 345 345 347 344 340 342 342 343
345 345 345 344 344 345 347 347 347 348 350 350 351 351 352 353 354 353 351 351 348 350 346 346 345 344 341 342 342 344 344 343 343 343 344 345 345 345 344 343 339 338 337
346 347 346 344 344 345 345 346 346 347 349 350 351 351 353 353 353 354 353 352 350 347 347 347 347 345 344 344 340 343 342 343 342 342 343 341 342 345 345 346 346 347 338
345 347 347 345 345 346 345 344 345 347 349 350 350 352 354 353 354 355 352 352 351 348 347 350 350 349 341 338 343 342 342 343 345 342 341 341 341 341 341 342 343 342 345
345 346 347 347 347 347 343 343 344 347 348 349 351 353 354 354 355 354 354 353 350 349 350 351 349 345 345 342 344 340 342 341 341 339 340 342 342 342 343 343 342 343 343
345 347 348 348 347 348 342 344 348 350 351 353 353 351 354 355 355 355 355 354 350 349 350 350 348 345 344 345 346 344 341 344 337 337 342 342 344 343 343 344 343 342 343
346 348 349 349 349 349 345 343 349 349 347 347 349 348 351 355 355 356 356 355 353 350 352 349 348 346 346 343 343 341 344 344 339 341 340 342 343 344 345 344 342 344 343
346 348 350 351 351 349 348 344 347 348 344 346 348 351 353 356 356 355 357 357 353 351 352 352 351 349 343 342 342 340 342 340 341 342 343 342 342 342 342 343 342 342 343
347 347 349 352 353 352 352 348 347 347 346 346 350 350 350 350 353 356 357 357 357 353 352 352 352 353 350 348 344 343 339 340 341 341 342 343 342 342 342 342 342 342 342

GFSSE_925_thetae_063.txt.gz
Theta_e
350 350 350 351 352 352 352 349 345 345 346 347 349 351 351 350 351 352 351 351 352 349 347 350 350 352 351 352 352 352 353 352 353 352 351 352 352 347 347 347 345 347 349
351 351 349 351 352 351 352 352 349 345 347 351 352 351 351 351 350 348 350 352 350 348 346 350 349 351 351 350 351 348 350 347 352 353 352 351 351 351 348 345 346 348 348
351 349 351 350 352 350 351 352 349 350 352 352 352 352 350 351 352 352 349 352 349 350 349 349 350 349 349 351 351 347 350 346 347 347 349 349 350 352 351 349 349 349 349
349 348 348 346 349 352 352 351 352 353 351 350 352 351 349 351 353 352 351 349 349 351 350 349 350 346 348 350 351 350 346 343 347 348 349 349 347 351 350 349 347 347 344
346 345 349 347 350 352 351 352 352 350 350 350 352 352 352 349 348 350 350 349 350 351 349 350 348 348 350 348 350 343 340 345 347 350 348 349 346 346 348 346 348 348 345
346 345 348 347 352 352 352 352 352 353 352 352 352 353 352 352 351 351 351 351 350 351 350 349 349 349 348 349 348 340 345 347 348 349 348 349 349 350 350 347 346 343 348
345 346 350 350 353 353 351 353 353 353 347 348 348 352 352 352 350 350 350 351 350 350 346 349 350 350 349 349 348 337 346 347 348 348 348 349 348 349 346 349 349 347 347
343 345 346 351 353 352 350 351 353 353 353 353 353 352 352 352 353 353 352 350 350 350 349 348 346 349 349 348 345 336 342 345 347 348 348 347 347 349 350 348 348 345 344
342 345 347 351 352 352 352 353 353 353 352 352 352 353 352 352 352 351 350 350 349 347 349 342 343 343 341 344 337 339 344 344 345 346 345 345 348 349 349 347 342 346 347
343 344 345 347 351 347 352 352 353 353 354 352 350 348 344 342 341 343 346 349 349 348 349 343 342 341 341 340 334 341 343 344 342 345 343 345 347 349 348 348 348 347 347
342 344 343 345 349 348 351 352 351 353 350 349 346 343 346 347 348 349 342 350 349 348 345 341 340 343 340 340 340 344 346 342 342 343 344 345 348 349 348 348 344 342 345
341 342 342 344 345 346 346 351 351 350 348 349 347 351 351 348 349 345 343 345 346 344 340 340 343 344 347 347 346 345 346 341 340 343 345 346 347 349 348 347 346 345 344
340 342 341 344 345 344 347 349 347 349 346 348 348 348 346 346 346 345 348 347 348 347 346 346 346 348 350 347 345 346 341 339 341 342 343 343 344 349 348 347 346 346 346
340 341 341 344 346 345 344 346 346 346 344 346 348 350 350 350 349 348 348 347 348 348 346 346 347 347 348 346 344 343 342 339 339 342 344 344 346 349 348 347 346 346 345
341 341 342 344 347 349 349 348 346 344 344 347 349 350 350 350 348 348 347 347 348 346 344 343 344 346 347 347 347 345 343 341 341 342 342 337 341 345 348 346 346 346 345
340 341 343 345 348 348 348 348 346 344 349 347 349 349 353 351 349 348 348 347 348 346 347 347 345 344 345 346 346 346 344 344 345 345 343 343 335 334 335 340 346 347 344
340 340 343 345 347 349 350 349 346 346 348 348 350 353 352 353 353 351 349 347 348 348 349 346 342 340 341 344 343 346 343 344 345 346 345 346 344 337 334 335 334 335 338
341 340 343 343 347 349 350 350 348 346 347 348 348 351 352 353 353 350 349 349 347 347 346 346 343 344 339 342 344 344 343 343 344 344 345 346 347 349 342 339 339 340 341
342 342 342 344 346 348 350 349 350 349 349 348 349 350 353 354 354 353 350 352 348 350 345 345 340 343 341 339 340 341 343 341 344 344 343 345 345 345 348 339 336 336 336
342 343 344 344 345 348 350 350 348 349 349 349 350 353 354 354 354 354 352 352 350 346 346 346 344 345 346 342 344 342 343 341 340 342 341 341 342 343 345 347 347 345 338
343 344 345 345 347 347 348 348 347 348 348 349 350 353 353 354 354 356 353 353 352 349 350 346 346 345 340 336 342 340 340 340 341 340 339 340 339 340 340 343 343 345 346
344 345 346 346 348 348 347 346 346 347 348 348 347 353 354 353 355 354 354 354 352 349 350 350 350 346 342 341 340 343 345 342 342 340 338 339 341 341 342 343 342 342 341
345 346 348 348 349 348 345 345 346 347 349 348 350 352 353 354 355 355 356 352 353 352 350 351 351 348 345 343 345 342 349 349 338 336 338 340 344 343 343 343 343 342 343
344 346 348 349 350 350 346 344 347 348 347 347 349 348 351 354 354 356 357 356 353 352 351 351 349 348 346 343 340 342 340 342 349 341 340 341 343 343 344 344 344 344 343
345 346 347 351 351 349 348 345 346 349 346 346 347 351 350 354 355 354 357 355 356 352 352 352 353 351 344 347 340 339 340 336 342 345 347 343 342 342 343 345 342 342 346
346 346 348 352 354 353 351 344 349 348 348 344 346 352 349 353 354 354 355 356 356 354 355 354 353 353 352 346 346 341 337 340 340 342 342 344 343 343 342 342 342 341 342

GFSSE_925_thetae_066.txt.gz
Theta_e
350 349 350 348 350 351 349 349 346 346 347 347 349 349 346 347 351 352 351 352 348 347 350 351 350 352 353 352 353 351 349 345 347 351 352 350 349 347 347 347 346 348 348
350 350 349 351 352 352 348 347 346 346 347 348 351 351 351 352 348 350 351 350 348 347 351 349 351 351 351 351 351 351 347 348 351 353 352 352 351 345 345 345 348 348 348
351 352 351 349 351 350 351 349 348 349 351 352 352 353 352 350 349 350 352 350 352 348 350 351 350 351 352 352 348 347 346 346 347 347 349 349 349 351 350 350 350 349 348
351 351 352 348 349 349 351 350 349 352 352 352 352 351 348 349 352 352 351 347 352 350 349 351 350 349 351 351 345 344 344 347 348 349 348 347 348 350 346 348 345 347 347
348 349 349 347 347 349 350 351 352 352 351 352 352 350 349 351 351 350 350 351 348 350 350 350 350 351 349 347 342 342 345 346 350 349 349 347 345 350 346 347 350 349 347
345 348 348 348 353 351 350 352 353 352 352 349 353 350 351 352 352 352 351 350 351 351 348 350 349 349 349 343 340 345 347 348 349 349 347 348 349 350 349 346 346 348 347
347 349 350 350 352 352 353 350 353 352 352 352 351 352 352 351 351 351 351 351 351 346 349 350 350 349 349 340 343 347 348 349 348 348 348 346 347 346 349 346 348 347 343
346 347 352 352 352 351 353 354 353 351 352 349 353 353 352 352 352 351 351 351 351 350 349 350 349 349 345 334 344 346 347 349 349 348 348 347 346 348 349 344 348 343 340
344 346 351 352 352 351 352 353 353 353 353 353 350 352 351 351 352 352 351 349 349 349 348 348 347 343 340 334 339 342 346 347 349 346 346 347 347 348 349 345 346 347 346
344 347 351 350 350 352 353 353 353 353 354 352 352 349 339 344 347 346 347 349 348 349 348 348 347 338 333 335 341 344 345 347 344 344 346 344 346 348 349 347 346 347 346
343 345 347 348 348 350 352 354 353 349 346 345 349 342 348 350 350 349 346 348 348 348 348 347 345 342 337 338 342 343 344 348 345 344 342 344 346 349 348 347 346 345 346
343 342 344 349 348 352 350 351 351 349 349 349 351 348 349 347 346 347 343 342 339 345 345 340 335 341 347 347 345 344 344 345 345 345 342 347 347 349 348 347 346 343 342
342 341 344 348 346 346 346 351 352 350 351 350 348 349 349 349 345 344 342 344 342 344 344 343 345 344 347 346 350 347 340 344 344 344 341 345 348 348 348 347 345 344 340
342 342 345 344 345 347 345 349 348 350 351 347 348 350 349 346 344 348 348 350 346 347 349 347 345 345 343 346 346 345 343 344 343 335 339 342 346 348 348 347 347 345 345
341 342 345 342 348 346 347 345 347 348 345 348 346 350 349 351 349 348 346 347 346 348 346 344 349 348 347 347 343 343 342 345 343 338 335 335 339 344 345 347 345 344 345
340 343 344 343 347 346 348 349 347 343 348 350 349 352 348 352 349 350 345 348 345 347 343 347 341 347 343 345 345 343 344 345 346 342 331 330 331 335 337 346 346 345 345
341 344 344 344 348 347 347 351 344 347 350 347 351 351 353 350 351 350 348 347 345 350 342 343 343 344 344 346 345 345 343 345 344 344 345 341 333 331 331 330 333 333 333
341 346 344 343 347 348 349 349 347 348 349 350 352 352 353 351 353 349 349 345 348 348 346 344 346 345 345 342 346 342 344 343 346 345 346 347 347 346 338 335 333 333 336
342 345 344 344 347 347 348 346 348 350 350 348 350 353 352 352 354 350 348 351 344 350 350 343 339 344 343 344 343 344 342 344 344 343 346 345 347 350 347 338 336 336 335
343 343 343 348 348 347 351 348 349 349 348 350 348 352 353 353 352 349 351 350 350 346 346 348 343 347 343 341 342 344 342 343 342 343 341 345 344 345 348 345 344 341 336
344 344 344 347 350 348 350 352 350 349 348 349 350 352 353 354 354 348 352 347 352 348 346 348 348 345 339 338 342 343 343 339 340 342 342 342 338 344 345 348 345 348 344
345 345 347 346 350 348 352 350 348 349 348 349 350 355 352 354 355 354 353 352 350 351 350 351 342 345 340 340 342 345 345 343 343 340 339 340 341 340 341 342 344 342 345
346 347 348 347 351 349 350 348 348 348 351 349 354 353 354 353 354 354 354 353 350 352 350 352 352 346 344 344 342 346 351 348 346 337 337 341 340 343 344 343 343 343 341
347 349 348 350 353 348 348 347 348 349 349 348 354 353 351 354 354 355 355 355 352 352 349 348 348 350 342 347 345 343 343 343 351 347 340 343 342 343 343 344 345 343 343
348 350 350 351 353 350 347 349 348 348 349 351 347 352 354 353 354 356 357 355 351 352 351 352 350 348 350 347 342 340 340 341 342 345 352 346 343 344 345 341 344 345 345
348 349 352 352 352 352 346 349 348 347 351 348 347 352 356 354 354 355 355 355 355 353 352 353 353 349 350 349 348 343 338 340 341 344 350 348 344 343 343 343 342 341 344

GFSSE_925_thetae_069.txt.gz
Theta_e
349 341 345 347 348 349 350 346 344 347 345 348 342 340 345 350 349 351 350 346 348 350 346 351 350 352 351 345 344 344 346 344 344 349 352 349 346 347 347 349 348 347 348
346 343 347 350 349 350 347 344 345 346 346 348 344 346 351 348 350 350 349 347 350 350 349 351 351 352 351 352 349 349 348 350 350 352 352 350 349 349 348 349 349 345 347
347 346 349 350 349 347 345 346 349 350 349 348 347 351 350 351 351 352 351 352 348 352 350 350 352 352 352 351 347 346 346 346 348 351 345 348 349 349 350 349 348 349 347
350 348 348 348 350 349 347 346 348 351 348 347 348 348 351 350 352 352 352 351 350 350 350 350 350 351 351 344 346 344 347 347 348 349 348 347 348 348 347 348 347 348 347
350 351 348 349 347 347 350 351 349 352 348 348 350 351 348 350 351 350 352 349 351 350 350 349 350 350 350 348 342 345 347 349 348 347 344 346 348 349 350 350 349 345 347
351 348 350 344 351 352 349 348 348 350 351 351 351 350 352 351 352 351 351 351 350 350 350 349 349 349 347 342 345 346 347 346 348 347 348 346 349 350 347 348 348 347 348
348 345 347 351 351 352 352 350 352 352 352 350 350 352 352 352 352 351 351 351 350 351 351 350 348 345 340 345 346 347 347 347 347 345 342 344 345 347 347 349 347 342 339
344 348 351 350 350 352 352 350 351 352 351 349 350 352 352 351 351 351 350 352 350 350 350 349 347 337 339 346 347 347 347 347 348 343 342 344 346 347 348 348 341 343 347
345 349 350 352 352 352 352 351 352 351 350 350 348 351 352 353 353 351 350 350 350 349 349 349 343 336 339 345 344 345 348 347 345 341 342 345 346 347 344 345 345 346 345
349 350 347 351 349 350 352 352 350 349 350 347 347 345 345 349 351 351 348 349 349 349 349 343 337 334 333 336 342 346 346 346 347 343 342 345 345 347 347 346 347 345 347
349 351 345 351 350 349 348 353 351 347 348 348 343 346 349 350 350 350 345 349 349 347 348 340 337 339 337 339 343 345 347 345 344 340 344 345 347 348 348 346 345 342 341
349 350 346 349 351 347 350 346 345 342 342 343 345 348 348 350 345 341 345 344 346 341 337 338 337 339 341 343 343 344 347 345 338 340 343 343 347 348 347 344 344 337 342
348 347 347 349 349 350 344 343 342 344 349 349 351 348 347 347 342 340 342 340 343 345 344 340 343 345 345 347 347 346 347 345 341 343 343 343 346 348 347 346 345 345 342
344 347 348 346 350 349 343 348 348 350 351 350 347 349 346 346 346 347 347 346 343 344 345 343 341 344 345 345 342 343 346 344 338 340 343 342 342 347 346 344 345 344 340
344 348 346 347 348 348 347 352 351 350 351 349 349 348 349 346 346 347 348 342 345 346 346 346 345 345 346 344 344 345 344 340 330 335 337 337 338 345 347 346 340 342 342
345 346 344 347 348 346 349 349 346 348 350 347 348 341 348 348 349 347 345 345 346 347 347 347 346 344 342 344 344 345 344 344 335 328 328 330 340 339 343 343 342 340 341
345 343 343 348 347 348 345 348 348 349 349 348 350 348 349 346 350 349 348 346 344 345 344 346 348 346 344 344 344 343 346 345 344 343 338 331 331 331 332 337 341 334 331
345 341 343 348 350 346 345 352 350 348 346 349 350 350 350 350 347 349 346 345 349 349 344 344 345 346 345 345 343 344 345 344 345 345 345 345 344 339 334 332 331 331 333
344 343 342 344 349 347 347 349 348 348 349 350 352 352 350 353 352 347 347 349 345 346 344 343 342 344 345 345 341 344 344 343 344 344 344 345 346 346 340 337 336 336 336
344 344 343 343 348 346 348 345 348 348 349 350 352 350 352 351 349 350 347 350 345 346 347 343 344 343 343 342 344 343 344 343 344 342 345 345 344 343 346 344 341 342 337
345 343 344 345 349 345 346 344 349 350 348 351 353 352 351 352 351 341 349 351 350 345 345 345 348 341 341 342 343 343 342 343 341 343 345 344 344 344 345 346 345 346 346
346 343 345 345 348 348 348 346 349 349 348 348 349 350 351 353 353 350 350 351 349 347 349 348 345 342 339 338 344 344 339 340 342 343 343 343 341 342 343 344 343 344 344
345 343 342 348 348 347 350 347 348 350 349 350 350 351 352 354 355 354 352 352 350 349 349 349 344 342 341 341 343 343 340 339 344 339 339 340 340 341 341 342 342 342 340
344 345 342 349 348 348 347 346 349 348 352 349 350 353 352 351 352 353 351 351 349 350 350 350 348 348 345 345 346 343 344 342 344 336 338 340 341 343 344 343 342 343 342
345 347 343 348 349 347 351 347 347 348 348 350 351 353 353 353 353 354 354 353 349 351 349 347 349 351 351 346 349 343 344 340 340 342 343 345 342 342 343 343 343 344 343
347 346 348 347 350 347 346 349 346 347 347 351 353 353 351 354 354 355 355 354 348 349 352 350 353 350 349 348 348 349 342 337 342 343 345 345 343 343 343 344 342 343 343

GFSSE_925_thetae_072.txt.gz
Theta_e
343 344 347 346 347 346 345 344 347 350 349 347 342 347 350 345 349 341 342 349 349 351 351 352 352 348 345 352 352 352 351 350 349 351 350 350 351 350 349 348 348 346 347
338 343 347 349 350 347 344 344 345 346 346 345 346 350 348 347 348 342 344 348 348 350 351 351 352 350 344 352 352 352 352 351 351 352 351 352 351 349 349 347 347 348 347
340 344 348 349 351 347 345 346 347 347 347 345 350 351 351 351 350 351 349 351 350 351 351 350 351 351 346 347 352 350 349 349 350 350 347 346 348 349 347 349 348 346 348
341 347 349 349 349 348 346 350 349 349 347 349 349 350 351 351 350 352 350 348 350 350 348 351 351 350 344 344 347 346 347 348 352 347 347 348 346 350 347 347 347 348 347
346 347 348 349 350 351 347 346 347 348 349 346 351 352 351 351 351 349 350 351 350 349 350 350 350 350 350 345 346 347 348 348 348 342 344 346 349 349 349 346 348 346 348
348 347 349 350 351 351 352 351 351 351 351 351 351 351 351 351 351 352 351 351 350 350 350 348 350 349 348 345 346 348 347 348 344 342 343 345 349 349 349 348 348 347 341
348 348 349 349 350 351 351 352 352 352 351 350 351 352 352 351 351 351 350 350 351 350 349 348 348 347 345 345 346 346 347 347 346 344 344 347 345 346 349 347 343 337 341
347 348 349 350 351 351 352 352 351 352 351 351 351 352 352 351 351 350 351 350 350 350 350 349 347 346 346 347 346 345 346 346 341 339 341 345 343 348 348 340 344 345 344
344 349 350 350 352 352 351 352 352 352 352 351 352 352 351 350 351 351 351 351 350 349 348 348 340 344 345 345 347 348 347 345 340 342 343 345 343 347 343 341 346 341 339
344 348 350 351 351 351 350 352 352 352 351 347 349 347 351 351 351 349 349 350 349 349 349 345 339 339 343 341 346 347 346 343 339 342 344 345 341 348 348 347 346 345 346
349 348 348 348 350 348 349 353 353 352 342 343 348 348 349 349 347 345 348 350 349 349 349 341 334 335 338 344 346 345 346 346 339 342 343 344 345 348 348 346 345 345 344
350 347 347 347 347 346 350 352 347 345 339 345 348 349 349 348 345 343 348 350 348 341 339 337 337 339 341 342 343 346 347 345 339 343 343 345 345 348 347 346 343 339 344
347 343 347 346 345 345 346 347 342 343 345 346 347 348 348 344 340 340 344 344 346 340 338 340 342 344 345 345 344 345 346 341 338 342 343 345 346 348 347 344 341 344 343
348 344 347 347 345 343 341 342 342 346 348 349 348 346 347 343 340 342 341 340 343 343 341 342 343 344 345 344 344 345 346 342 340 341 342 343 342 347 347 346 344 341 344
347 346 347 347 346 344 340 343 346 349 350 349 348 346 344 346 346 346 345 343 343 345 344 344 344 345 344 344 345 344 345 339 337 340 342 339 341 340 343 345 345 341 340
346 347 347 347 348 345 346 347 349 350 352 348 347 346 346 346 346 346 346 342 344 344 344 344 345 344 344 345 344 344 341 332 332 332 332 335 337 338 340 340 339 339 340
346 347 346 348 349 345 349 350 350 350 350 349 347 344 347 348 345 344 346 344 345 343 345 345 345 343 344 345 344 343 343 336 333 330 330 331 331 330 333 335 339 335 335
347 346 346 348 349 347 348 347 348 348 349 348 346 347 345 347 349 346 347 344 345 344 344 347 346 345 343 345 344 345 344 343 341 342 336 336 335 333 332 331 331 333 334
344 346 347 348 348 346 350 349 348 349 348 349 348 349 348 350 348 347 344 347 347 345 343 341 345 344 344 345 344 344 344 343 344 343 344 344 344 339 338 335 335 335 334
343 348 348 348 346 346 349 348 349 347 349 350 351 351 351 349 348 346 346 346 344 347 345 344 345 343 344 343 342 343 344 344 344 343 343 344 344 345 344 342 340 342 339
342 346 348 348 347 345 348 347 349 350 351 352 350 349 351 350 347 349 347 347 346 345 344 344 344 343 344 343 344 343 344 344 343 343 343 344 344 344 344 345 343 343 344
342 341 342 346 346 344 347 345 347 349 350 348 351 350 351 351 347 346 347 346 347 344 347 346 343 340 340 342 344 342 337 340 342 341 342 343 343 343 344 344 344 344 345
343 343 342 342 343 345 346 343 348 349 349 352 352 350 351 352 352 350 347 346 350 345 347 346 343 339 339 337 343 343 336 336 341 341 342 343 342 341 342 342 343 342 341
343 344 343 344 345 344 344 343 347 349 350 349 349 349 351 353 353 352 350 350 349 348 347 347 345 343 340 342 343 343 343 341 340 332 337 341 342 341 342 342 342 342 342
343 343 345 344 346 346 345 343 346 348 351 348 349 350 350 353 354 351 350 351 349 349 350 349 350 349 347 344 347 343 343 343 341 340 337 339 340 341 343 343 343 342 343
344 343 347 347 346 346 346 346 343 347 347 349 350 351 351 351 352 352 351 350 348 349 348 346 349 349 350 347 349 349 344 338 341 342 341 341 342 342 342 342 343 342 343

GFSSE_925_thetae_075.txt.gz
Theta_e
341 345 348 349 350 351 348 348 340 338 336 335 343 349 349 349 344 342 348 349 348 347 351 351 351 352 352 353 353 352 351 351 352 351 351 350 349 349 349 349 346 348 347
339 344 348 349 350 350 347 348 347 340 339 343 349 350 349 349 343 341 346 349 350 351 351 351 351 351 352 353 352 352 351 351 351 353 351 350 348 346 347 347 347 346 346
341 345 348 348 350 348 349 350 347 349 348 349 350 350 350 349 346 346 350 349 349 351 350 351 351 351 352 352 352 351 351 352 352 351 346 345 348 348 348 347 348 343 344
342 346 347 347 349 349 348 348 349 351 350 349 350 350 350 349 350 348 350 351 350 350 351 351 350 351 351 350 350 348 349 352 350 346 348 349 347 348 347 348 347 348 340
344 347 348 347 349 351 351 348 350 351 351 350 350 350 352 351 350 351 350 349 351 350 349 351 349 350 350 347 347 348 350 350 345 344 341 340 345 349 347 348 345 347 343
346 348 349 350 351 351 347 349 352 351 350 350 350 351 350 351 351 350 350 350 348 348 349 350 350 350 350 349 348 348 349 344 342 343 345 347 347 348 347 347 343 344 346
348 349 350 350 350 351 351 351 351 351 350 349 350 350 351 351 351 351 350 351 349 348 349 349 349 348 345 346 347 346 346 344 342 344 346 342 344 348 348 345 339 345 341
347 349 348 350 351 351 352 352 351 351 350 350 351 350 351 351 351 351 351 350 350 348 348 348 348 345 345 345 345 347 346 345 342 343 342 341 345 346 343 341 342 339 340
348 345 351 350 352 352 351 351 350 351 350 351 352 352 348 351 350 351 351 350 349 348 347 348 346 345 347 346 346 346 347 341 340 342 342 341 347 342 341 347 346 345 345
345 350 349 351 353 350 351 352 352 351 351 351 351 350 350 350 351 348 348 350 349 348 347 347 346 345 344 347 346 347 344 340 341 342 343 337 339 345 345 346 346 346 338
350 349 350 350 350 348 351 352 352 350 350 352 350 351 351 351 347 347 349 350 350 349 348 347 342 342 344 346 345 349 345 340 340 342 343 341 347 348 348 346 346 344 337
351 350 350 349 347 348 351 351 349 345 347 348 348 349 348 345 344 348 350 350 350 349 341 339 338 340 344 344 346 345 346 344 339 341 344 345 347 348 346 345 337 340 341
350 349 347 347 345 347 350 347 342 343 347 348 348 348 347 344 342 346 349 346 346 338 339 337 340 341 343 342 344 346 346 342 340 342 344 344 345 347 346 343 337 342 340
349 348 346 346 345 347 346 342 340 341 345 346 347 346 343 340 340 340 341 343 341 340 340 342 344 343 343 345 344 345 345 341 338 340 343 344 344 347 346 345 342 339 342
344 348 345 344 344 345 344 343 344 345 346 347 347 346 341 340 340 341 339 342 343 344 343 343 344 344 345 344 345 345 345 342 338 338 340 340 341 343 343 341 343 337 340
343 345 347 346 343 344 342 341 344 347 348 349 347 345 344 345 346 346 343 342 343 344 343 344 344 344 344 344 344 344 343 335 336 337 338 340 341 339 339 342 340 341 338
343 342 347 344 344 342 341 344 348 349 347 347 348 346 345 344 346 345 345 342 343 343 343 344 344 344 344 344 344 344 340 331 334 333 333 335 337 337 339 339 339 334 335
345 344 346 347 347 344 344 347 349 349 349 348 347 347 347 347 345 345 343 344 344 343 345 344 345 344 344 344 343 343 341 335 335 332 334 335 334 333 333 334 334 335 334
345 345 345 347 348 346 347 348 347 349 349 348 347 346 346 346 347 346 346 344 344 342 343 344 344 344 343 344 344 343 343 342 339 340 340 340 340 337 337 335 335 335 335
345 346 344 346 348 347 348 347 348 348 348 348 347 347 346 348 347 347 345 347 345 344 343 341 345 344 342 344 344 344 344 343 343 343 343 344 343 343 342 340 338 339 339
345 346 345 346 347 349 349 348 347 348 348 349 349 348 348 349 348 346 346 345 344 346 344 344 344 343 343 343 342 342 342 344 344 344 343 343 344 344 344 344 344 343 342
345 345 346 348 347 349 348 348 348 347 348 349 349 349 348 349 348 348 346 346 347 344 343 343 344 342 343 343 343 340 336 338 343 342 342 342 342 343 343 343 344 343 343
344 345 347 346 346 345 347 347 348 349 349 350 351 350 350 350 347 345 347 345 347 344 344 345 341 340 339 339 343 341 335 335 337 341 341 341 342 342 342 341 342 342 343
342 345 347 347 346 345 345 346 346 349 350 350 349 351 351 351 350 348 345 346 348 344 347 346 344 340 338 338 342 342 343 340 338 331 336 338 340 341 341 340 341 342 342
341 342 346 346 346 344 341 345 344 347 348 348 349 350 349 351 352 351 349 347 348 348 347 346 347 343 341 341 345 342 343 343 341 337 337 336 339 340 340 342 342 342 342
342 342 342 343 343 344 343 344 343 345 348 349 348 349 349 350 353 353 351 349 350 349 349 347 348 348 349 343 345 347 346 340 339 341 338 340 339 340 341 341 342 343 342

GFSSE_925_thetae_078.txt.gz
Theta_e
344 346 347 349 350 351 350 342 349 346 343 345 343 347 344 341 343 344 346 349 349 349 351 348 350 353 351 349 349 351 351 350 350 351 350 350 350 349 347 348 347 346 345
343 346 348 350 350 347 349 340 340 342 337 349 348 349 348 336 338 344 346 349 351 349 349 351 352 353 351 352 351 351 351 352 350 351 348 346 346 347 347 347 346 347 346
342 346 347 348 350 347 350 351 343 341 336 346 346 347 348 349 347 348 348 349 350 350 351 351 352 353 351 352 352 352 351 351 351 349 347 346 349 348 348 346 342 347 347
342 345 346 347 348 348 350 349 347 342 346 348 347 349 349 350 349 351 351 350 350 350 351 351 351 351 352 352 351 352 351 350 348 346 345 346 347 347 348 348 344 341 341
342 344 345 346 347 350 350 346 347 345 349 350 348 349 349 350 351 349 348 350 349 350 351 350 351 351 347 348 347 349 350 348 344 343 343 344 348 347 347 347 344 346 346
343 346 348 347 351 351 350 350 350 349 349 347 350 350 350 350 351 351 350 350 349 349 351 350 350 351 347 347 346 345 347 342 342 344 345 346 342 347 345 343 344 344 343
345 348 347 349 351 349 348 350 351 349 348 346 351 351 349 351 351 350 350 350 349 349 350 349 347 346 347 346 345 346 345 343 343 344 343 347 347 347 344 339 348 341 345
345 348 349 349 349 351 351 350 349 350 347 347 346 348 351 350 349 350 350 349 347 348 348 348 348 345 345 345 346 346 345 343 344 343 340 345 346 342 341 341 341 345 346
347 348 347 350 351 351 350 351 351 350 349 351 350 349 349 351 349 347 347 349 347 346 348 349 345 346 347 346 347 348 343 340 341 340 343 346 341 341 347 346 346 345 339
348 349 351 351 351 351 351 351 351 350 348 350 351 349 351 350 345 347 345 348 348 347 348 349 346 346 346 346 345 345 340 341 342 343 340 344 337 343 346 345 344 332 340
347 350 349 352 352 350 350 352 351 350 348 349 347 349 349 346 347 347 347 349 348 348 349 344 344 343 346 345 346 346 341 340 341 342 337 343 346 347 346 346 345 335 344
351 350 350 349 349 349 349 350 349 350 350 348 349 348 348 344 346 348 349 350 348 348 343 343 341 344 345 344 345 345 345 341 341 342 341 342 345 347 346 340 334 337 340
349 349 351 348 347 349 350 347 344 347 347 347 347 346 343 341 345 347 350 349 343 338 338 339 340 343 343 342 344 345 346 341 339 340 343 343 343 345 346 336 341 341 338
348 350 349 347 347 348 349 341 343 346 347 348 347 345 340 338 342 345 346 343 338 338 338 339 341 342 343 343 344 344 344 340 338 341 343 344 344 346 341 339 343 340 340
348 347 346 347 344 347 346 339 342 344 346 346 346 345 339 337 338 341 342 343 343 342 342 342 343 343 344 344 344 344 344 341 338 339 340 343 341 345 346 344 342 338 341
346 344 346 347 343 345 343 342 343 344 346 347 346 344 340 340 342 342 340 340 342 344 344 344 343 344 344 344 344 345 345 340 336 338 336 339 341 341 343 344 343 343 341
343 343 345 345 344 342 342 343 345 346 347 347 346 345 343 344 345 345 344 342 343 344 343 344 344 343 344 344 343 344 344 335 335 335 335 338 340 341 343 344 344 339 338
339 342 343 345 344 341 339 341 344 347 347 346 347 345 344 345 345 344 343 342 343 342 344 344 344 344 343 343 343 344 341 334 335 334 334 335 336 334 335 337 338 339 337
339 339 344 345 343 342 341 343 346 348 347 347 347 346 346 346 346 344 344 344 343 343 343 344 344 343 343 343 343 343 342 341 338 339 338 338 339 338 337 336 336 337 338
341 342 343 344 344 342 342 345 348 348 348 348 348 346 346 346 345 345 345 344 343 341 342 341 344 343 343 344 343 344 343 343 342 343 342 342 342 342 342 341 340 340 339
344 344 344 345 345 346 345 346 348 347 348 348 348 345 347 346 345 346 344 345 345 343 342 341 343 343 343 342 343 342 341 342 343 342 343 343 342 343 343 343 344 344 343
344 345 344 345 346 347 346 347 348 347 347 347 348 348 349 348 347 346 345 346 343 345 344 343 344 342 342 343 342 340 341 338 340 342 342 341 342 342 342 342 342 342 343
344 344 345 344 345 347 347 348 347 346 347 348 348 348 349 348 348 346 346 345 346 345 343 343 342 341 341 342 342 340 340 341 336 340 340 340 340 341 341 341 341 341 342
343 344 345 344 345 346 348 347 347 347 348 348 345 348 349 349 350 346 347 346 346 346 344 344 343 339 338 339 341 342 342 340 343 343 336 336 338 339 340 340 341 341 342
342 343 344 345 345 346 347 347 347 347 348 348 348 348 350 351 351 348 348 346 346 347 345 346 345 343 341 339 340 342 341 341 341 337 343 339 339 339 339 340 341 342 342
342 343 344 345 346 346 346 346 346 346 347 347 348 349 349 348 350 351 349 349 348 346 347 345 345 345 345 342 344 346 345 340 342 341 340 340 340 340 341 341 341 341 341

GFSSE_925_thetae_081.txt.gz
Theta_e
345 348 347 347 350 350 350 350 349 349 349 343 341 342 343 345 345 349 349 350 346 346 350 347 352 352 352 351 350 350 347 349 350 351 350 350 348 348 348 348 343 346 347
346 349 347 349 350 351 349 349 345 342 349 347 350 350 341 342 348 349 349 348 347 347 352 353 353 350 352 351 352 349 350 350 347 347 346 347 348 347 347 347 345 346 349
346 349 349 349 351 350 350 345 342 343 350 350 349 350 349 348 348 348 349 351 350 351 351 352 351 353 352 352 352 351 349 351 350 348 349 348 348 348 343 347 348 347 347
346 348 349 349 350 349 349 347 346 350 349 348 349 349 350 349 350 350 350 348 345 348 351 352 352 352 352 352 352 351 350 349 346 347 348 343 347 348 346 338 344 341 340
347 348 350 347 350 350 348 347 347 348 347 347 347 348 347 350 349 348 350 350 350 351 351 351 352 349 346 344 350 350 348 346 346 343 346 346 347 347 347 344 347 347 344
347 348 350 348 350 351 350 350 347 348 346 349 347 348 347 348 350 350 349 350 350 350 351 351 347 345 345 345 345 347 347 339 347 348 346 344 346 345 346 346 342 344 344
347 349 350 350 351 348 350 348 350 347 345 348 346 347 348 349 349 350 349 349 349 348 350 350 345 344 342 344 343 344 342 344 347 348 348 348 348 342 344 347 343 346 346
348 349 350 350 348 346 351 351 347 350 346 349 348 348 349 348 347 345 349 347 349 349 349 347 347 343 343 344 344 348 345 348 345 344 348 346 339 340 342 343 346 345 345
349 351 352 350 351 350 349 348 348 348 349 349 349 346 350 345 349 345 346 348 346 347 350 346 346 346 346 344 343 344 342 343 344 345 347 341 339 347 347 346 346 344 345
350 350 349 352 353 352 352 350 348 349 349 349 346 349 351 345 347 348 346 347 347 349 349 344 345 344 344 344 343 339 339 342 345 344 344 338 341 347 344 344 338 344 343
350 351 351 351 353 352 353 352 350 348 350 348 349 347 349 348 348 347 348 348 348 349 347 345 344 347 344 344 345 342 343 344 345 343 341 346 346 347 347 346 335 343 342
349 350 351 353 351 351 351 352 352 352 351 350 349 349 349 349 349 348 350 348 349 346 344 343 344 345 347 349 347 346 345 344 344 345 343 346 346 347 345 338 338 343 342
348 349 351 352 351 351 352 350 350 350 349 349 345 347 347 348 349 350 349 347 347 346 346 345 346 347 346 347 349 348 347 343 344 345 344 344 342 345 344 339 343 340 338
349 349 350 350 351 353 350 349 350 350 349 348 348 343 343 346 349 349 347 344 339 343 341 342 346 342 344 344 348 348 347 342 343 344 344 343 344 343 341 341 342 340 340
347 350 350 350 350 352 351 349 350 350 349 349 348 341 342 346 347 347 344 345 344 343 344 344 344 345 345 346 348 348 347 344 343 343 345 342 342 344 344 343 342 338 341
346 348 348 349 349 350 349 344 349 349 348 345 346 343 338 340 340 345 344 345 344 344 344 345 345 347 346 347 348 348 347 344 344 344 343 343 338 339 340 342 341 342 343
346 347 348 349 348 349 348 344 348 348 348 350 348 342 342 343 344 344 344 345 344 343 343 343 344 347 347 346 347 347 347 343 343 344 344 344 344 337 340 339 341 341 338
345 346 348 347 347 348 347 345 348 349 349 350 347 344 343 344 344 345 347 345 343 343 346 345 348 348 347 347 347 347 345 342 343 343 344 345 345 345 342 335 337 338 338
344 344 347 347 347 346 343 346 345 347 347 348 347 346 345 345 346 344 344 343 343 345 345 348 348 347 347 346 346 346 346 345 343 343 344 344 344 345 345 342 338 338 339
343 343 346 347 347 344 344 342 347 348 349 348 348 346 345 346 345 344 345 343 343 347 346 346 346 342 346 346 345 346 346 346 346 345 345 345 345 345 346 344 345 345 342
343 342 345 348 345 345 346 347 349 350 350 350 349 348 345 345 345 345 345 344 343 346 344 341 346 346 346 343 347 346 345 344 346 346 346 346 346 346 346 347 346 347 346
343 344 345 347 347 344 347 348 350 350 350 351 348 347 345 347 347 346 345 345 344 347 343 343 343 345 346 345 346 345 342 342 342 343 345 345 345 345 346 347 347 345 344
345 344 346 344 347 346 349 348 347 347 349 349 349 350 349 348 348 347 345 346 344 345 348 344 343 343 345 345 343 346 345 344 344 344 343 341 338 343 344 343 343 344 342
346 345 346 346 347 346 346 348 350 349 349 350 351 351 350 349 349 345 346 345 346 345 345 345 342 340 342 345 346 345 342 345 345 345 344 341 339 342 343 344 344 344 342
345 346 346 347 346 347 346 348 350 350 350 351 351 348 350 349 350 348 345 346 346 348 344 344 344 343 341 343 345 346 348 346 345 346 347 346 346 344 344 342 344 342 341
344 345 346 348 348 344 345 346 349 350 351 351 351 351 352 353 353 350 349 347 346 346 345 347 345 345 343 343 347 348 348 345 349 348 347 347 348 347 346 346 345 342 341

GFSSE_925_thetae_084.txt.gz
Theta_e
348 346 349 350 351 350 351 351 349 344 342 343 344 342 344 346 348 348 348 346 352 353 352 353 353 354 353 353 352 351 352 351 351 352 348 350 350 349 347 346 347 346 346
348 348 347 350 351 351 348 343 346 346 342 348 347 337 339 349 349 350 346 348 347 353 353 352 351 352 350 352 351 352 350 347 346 347 349 347 347 349 347 347 348 348 343
348 348 349 348 351 349 350 346 347 350 347 350 348 349 348 349 348 349 350 347 352 352 353 353 352 353 351 351 350 350 352 350 347 347 347 346 339 348 349 349 347 346 343
349 347 348 347 350 350 350 350 350 350 350 349 349 351 351 351 351 348 349 350 350 352 352 352 352 350 347 351 351 351 350 344 348 346 342 342 344 343 345 341 342 340 343
348 348 350 349 350 350 350 351 350 350 351 350 351 350 350 351 350 350 351 349 348 351 352 350 345 347 343 346 350 350 349 344 343 343 345 342 347 344 348 347 347 341 345
348 348 348 351 352 351 350 351 351 351 351 350 348 351 351 349 351 350 348 351 351 351 348 345 349 342 345 344 349 349 345 348 348 342 344 342 341 346 345 343 344 347 347
347 348 350 350 351 350 351 351 350 348 349 347 349 351 349 351 350 348 346 349 350 351 350 349 345 338 344 348 349 347 346 346 344 346 346 345 337 348 344 348 346 346 347
346 347 349 350 350 350 351 351 351 346 347 350 347 346 347 349 349 349 349 350 350 350 350 347 340 343 346 346 346 343 348 344 342 346 342 337 339 343 346 347 347 347 347
347 347 350 350 348 352 352 352 349 349 350 345 346 349 350 350 349 347 348 348 349 350 345 344 344 344 343 342 342 340 342 344 343 345 339 340 345 348 347 346 346 345 345
347 349 349 348 351 350 350 347 351 348 346 349 348 351 348 348 346 346 346 348 350 350 344 344 343 343 343 342 338 338 341 344 343 342 338 341 346 346 346 342 346 346 346
348 347 347 351 352 352 351 349 350 351 348 344 347 345 349 346 346 347 344 349 350 349 346 344 344 343 342 344 343 342 343 342 342 340 344 345 348 347 348 342 344 342 346
347 346 348 350 351 351 348 351 351 350 349 346 346 348 348 347 349 345 346 350 349 347 344 343 344 347 349 347 347 344 340 342 342 341 345 345 347 347 341 341 343 345 341
346 346 349 350 350 349 347 348 349 346 347 348 348 348 347 347 347 343 345 346 347 348 346 348 349 347 348 344 342 341 341 340 340 341 344 343 346 347 337 344 342 341 344
345 347 348 349 349 347 347 347 346 345 344 345 347 348 348 346 345 343 345 348 347 346 347 348 347 350 350 349 345 341 339 340 339 340 342 343 343 342 341 343 337 341 339
346 347 347 349 351 348 349 347 347 346 344 345 346 348 346 345 346 344 345 345 346 346 347 348 349 350 349 348 348 345 340 340 341 341 341 338 342 344 343 344 343 338 340
345 347 348 349 350 349 350 351 351 348 347 345 345 347 349 346 347 347 348 348 348 348 348 349 350 349 347 347 349 347 345 344 343 343 340 342 333 336 337 341 339 338 343
345 346 348 348 348 349 351 352 351 348 347 348 347 349 349 349 351 349 348 348 348 350 351 350 350 348 346 346 349 348 345 345 346 346 345 345 347 342 333 334 336 337 337
344 347 348 346 346 348 348 351 350 348 348 349 348 349 350 351 352 352 349 347 349 350 349 348 348 346 346 346 347 346 345 344 345 346 345 346 345 344 346 340 338 339 339
343 347 348 347 346 349 351 350 351 352 351 351 350 349 351 351 351 350 349 349 350 349 348 347 348 346 346 345 345 345 345 345 345 343 346 346 345 345 344 345 343 341 340
343 345 347 348 347 350 351 351 350 351 352 352 351 350 352 350 349 351 351 351 349 348 348 348 348 347 347 346 344 344 344 345 345 345 345 344 345 347 346 348 347 346 343
342 343 347 348 348 349 350 349 350 351 352 352 352 352 352 352 352 353 350 349 350 348 350 350 350 349 345 347 345 343 341 342 344 343 343 343 345 346 347 348 349 346 345
342 341 345 348 349 348 348 349 350 352 352 351 350 353 352 352 351 352 350 348 349 349 352 352 351 346 345 346 343 340 341 342 341 340 341 342 343 344 344 346 347 349 349
341 344 345 348 349 350 349 351 354 354 354 354 353 353 352 353 352 353 349 351 352 351 348 352 350 349 345 347 349 346 345 344 343 342 343 340 343 342 343 345 345 347 349
344 343 346 349 349 350 352 351 352 350 349 350 351 351 354 354 353 354 354 353 354 350 350 352 349 348 349 342 346 345 348 348 346 345 343 342 341 341 343 343 342 344 347
347 345 344 349 351 350 352 352 352 352 349 350 349 353 353 354 353 352 353 354 354 352 353 351 352 350 344 344 343 344 348 346 350 347 345 343 341 341 343 344 344 344 347
347 347 347 349 352 352 353 354 353 351 351 350 351 352 351 352 353 355 354 355 354 352 353 352 353 353 351 349 346 346 346 344 346 346 345 344 344 343 344 345 345 346 347

GFSSE_925_thetae_087.txt.gz
Theta_e
349 349 350 352 353 353 353 351 349 350 349 348 350 350 348 349 350 349 349 353 353 354 353 354 352 352 352 352 352 351 351 351 348 350 350 350 350 348 345 345 342 344 348
347 349 348 351 351 351 351 349 345 345 351 346 343 348 349 350 351 346 351 352 353 353 353 353 353 354 352 349 351 350 348 347 346 346 344 349 348 347 344 344 341 345 348
347 347 349 348 351 350 350 350 351 345 352 342 344 344 348 346 349 349 353 352 353 353 353 352 349 349 352 349 352 352 347 346 347 345 337 342 348 349 347 347 344 349 347
347 347 350 350 350 351 350 345 350 346 349 351 352 352 351 350 350 348 352 350 352 352 352 352 351 353 353 352 351 342 346 345 344 345 345 338 337 343 344 345 347 345 345
346 348 350 349 348 349 351 352 349 351 351 351 351 350 352 351 351 351 345 347 352 352 352 351 350 349 350 351 349 336 343 343 343 342 343 341 343 348 347 343 346 343 346
348 349 348 349 349 349 350 348 349 349 350 351 349 351 352 352 351 350 351 352 352 350 350 351 349 351 351 349 335 346 347 345 343 345 340 339 345 344 345 347 348 348 348
349 348 351 348 348 350 349 349 351 351 351 352 352 351 352 351 350 351 350 349 351 351 348 344 348 351 351 345 339 342 343 345 343 344 340 339 347 345 348 348 348 348 347
346 349 350 350 350 352 351 352 351 347 352 349 351 351 350 350 349 351 350 351 351 347 344 348 349 351 342 342 341 341 341 345 341 341 338 339 342 348 348 348 348 347 346
345 347 350 350 349 352 352 352 352 351 351 350 350 351 350 350 349 350 350 351 349 349 348 344 347 342 339 340 338 340 343 344 342 340 345 346 347 348 345 347 344 346 347
346 346 349 346 349 350 351 352 352 350 351 351 351 350 341 342 349 348 345 350 350 348 342 344 343 342 341 336 336 342 343 342 342 339 342 344 346 347 343 346 347 347 344
347 347 349 350 350 352 349 349 345 342 344 344 344 346 347 350 347 348 345 350 346 344 344 343 342 341 342 338 341 343 346 345 339 343 344 346 346 348 344 344 345 346 345
346 345 349 351 349 350 346 351 351 347 350 347 345 345 349 346 344 343 347 347 344 343 342 342 346 346 347 348 345 344 343 340 342 343 345 346 348 343 345 346 347 344 342
344 348 348 347 349 348 346 347 351 347 343 343 347 349 344 344 343 342 347 348 348 347 346 349 349 350 346 341 340 338 339 340 342 344 343 347 349 343 345 346 340 347 341
345 346 348 347 347 345 345 346 344 343 342 346 347 346 347 344 343 345 348 345 347 347 348 346 346 348 345 343 340 339 339 339 340 341 344 343 340 343 344 341 337 341 341
345 346 346 347 348 346 348 346 345 343 345 345 347 348 346 345 344 344 345 346 345 346 346 347 347 347 345 346 343 340 340 341 341 342 340 335 340 340 343 347 341 338 341
344 345 346 348 347 348 350 350 348 345 343 344 345 347 347 346 346 346 346 346 347 348 349 348 350 346 345 345 346 343 342 342 343 342 343 335 331 331 333 338 337 336 337
344 345 346 347 346 349 350 352 351 344 345 345 348 349 349 349 351 348 347 348 347 349 350 349 347 346 343 346 345 344 343 345 344 345 345 348 345 339 338 336 336 336 337
344 346 346 345 345 348 352 352 350 346 348 347 346 349 351 351 351 350 348 347 347 349 348 347 347 344 346 346 346 345 343 344 345 346 344 346 344 348 344 341 340 340 340
344 347 346 346 345 347 349 350 349 349 349 348 348 349 351 351 351 352 347 349 349 347 347 346 347 345 346 345 343 343 343 343 346 343 344 345 343 344 347 345 341 342 339
345 348 348 346 346 348 348 350 350 350 350 350 349 349 351 351 350 353 350 347 351 347 348 348 348 348 345 345 344 342 342 342 342 343 344 344 345 346 346 347 349 349 345
343 347 348 348 348 349 349 348 351 351 351 351 350 353 352 352 352 354 350 350 350 348 351 349 348 349 344 343 344 344 340 342 344 342 342 343 344 345 345 347 348 347 348
341 344 348 349 350 351 349 349 348 350 351 350 352 352 352 352 352 353 352 348 349 350 351 352 351 349 343 342 347 344 343 341 340 341 341 341 343 343 344 346 345 347 348
342 342 347 349 351 350 348 350 351 353 354 350 351 351 351 352 352 353 352 350 351 352 349 352 350 349 347 341 342 348 353 349 343 342 342 341 341 343 342 343 343 345 348
340 342 346 350 350 350 351 350 352 349 349 350 350 351 353 352 353 352 352 352 354 350 351 351 348 352 347 341 341 344 348 350 354 345 341 339 340 342 342 343 343 345 347
342 344 347 351 351 350 351 354 352 352 350 349 350 353 354 355 353 352 353 354 352 352 349 353 353 351 346 346 343 343 346 342 344 348 345 341 340 341 343 345 344 344 348
344 344 346 351 353 352 353 354 355 353 351 352 351 350 350 351 353 353 353 355 356 354 354 352 353 353 353 350 349 345 345 346 348 347 345 344 344 343 345 345 345 346 348

GFSSE_925_thetae_090.txt.gz
Theta_e
350 350 349 351 348 350 352 352 351 347 345 347 345 348 352 351 345 349 351 352 352 352 352 353 351 351 353 352 348 350 346 346 347 351 351 349 344 346 346 344 345 347 348
350 351 351 352 352 350 350 348 346 349 347 345 347 347 349 349 352 351 352 350 350 351 352 354 353 352 351 351 347 349 345 344 347 344 349 349 348 343 340 348 349 349 348
349 350 351 350 350 350 351 350 352 352 350 348 348 349 349 352 351 353 351 353 353 352 353 352 353 352 352 347 346 348 346 343 344 344 346 346 343 344 344 349 348 347 348
347 346 348 349 347 344 351 352 351 352 351 352 352 351 350 351 348 353 353 352 353 353 353 353 353 353 351 341 343 345 343 344 344 345 336 340 343 347 348 345 348 344 346
348 349 348 345 349 346 351 350 349 352 351 352 351 351 352 351 349 348 349 353 353 352 351 351 351 350 351 340 341 343 344 346 346 343 345 347 347 348 349 349 347 344 345
351 352 351 351 352 349 352 351 350 349 352 351 350 352 352 351 352 352 353 352 352 351 351 352 352 351 334 343 342 344 344 345 340 338 343 342 344 348 348 348 348 347 347
350 351 352 349 349 350 352 352 352 352 352 351 351 352 351 351 352 352 352 352 351 349 349 352 349 350 341 340 344 345 343 345 340 337 347 342 346 347 347 348 347 348 344
349 350 351 351 351 352 353 352 352 352 352 352 352 350 351 352 351 351 352 352 352 351 351 350 351 351 341 337 342 341 346 345 339 338 340 345 345 348 348 348 347 346 343
349 350 352 352 353 353 353 352 352 352 351 350 351 347 350 350 349 351 351 351 351 349 350 349 352 346 335 335 339 344 343 341 342 346 347 346 344 345 347 345 347 344 343
347 349 349 350 351 350 352 352 352 349 345 342 346 349 345 348 349 350 347 350 345 349 351 351 344 333 333 338 340 342 343 342 342 342 338 344 345 345 347 345 348 342 342
349 349 349 351 350 349 350 351 348 348 342 342 348 345 347 349 348 350 347 350 349 347 349 345 334 340 335 342 343 344 345 347 344 344 341 344 347 344 344 346 345 339 337
349 350 351 351 351 349 349 349 347 348 349 349 348 347 348 346 343 346 342 343 342 342 345 343 332 338 345 345 342 343 345 344 344 345 340 346 341 346 347 347 342 336 339
349 350 349 350 350 349 347 352 346 351 348 346 347 349 345 338 339 345 343 347 342 345 347 346 337 341 345 346 347 339 340 343 344 344 341 345 341 346 348 343 346 342 338
347 349 349 349 349 348 348 351 344 348 345 345 348 342 347 346 346 330 348 345 339 340 344 347 347 346 345 340 340 340 341 344 344 338 339 340 338 342 346 337 340 339 340
349 346 346 348 346 348 348 347 347 345 347 344 347 346 344 344 347 343 347 344 347 347 343 344 346 348 341 344 339 339 341 342 343 337 328 330 332 335 341 341 336 335 338
348 345 347 348 346 350 346 347 346 346 345 347 348 347 347 343 345 346 348 343 342 343 345 341 347 345 346 342 343 341 341 342 344 341 336 330 329 330 331 333 333 333 334
345 347 348 345 347 352 349 351 351 345 347 347 344 350 348 349 346 345 349 349 348 348 350 342 348 347 345 346 342 342 343 343 343 346 344 343 337 337 338 337 336 336 335
345 346 346 345 345 349 351 354 351 346 347 348 349 348 351 352 351 349 347 349 349 350 350 346 348 346 344 344 344 345 345 344 345 346 346 348 348 346 339 338 336 338 338
347 346 346 345 344 352 346 352 350 350 346 347 349 350 349 349 351 349 349 349 352 350 342 348 343 347 348 346 347 344 344 343 346 345 343 345 341 348 349 345 342 341 335
346 347 347 345 345 349 347 349 349 350 350 351 350 350 351 351 351 347 348 348 344 350 347 350 350 343 346 344 344 345 344 341 343 344 344 345 343 344 349 347 348 348 343
347 348 348 348 346 350 348 349 350 350 351 351 349 350 352 351 352 348 349 350 349 346 344 349 346 349 349 344 344 345 339 341 342 343 345 345 344 347 345 347 349 349 348
347 348 349 351 347 351 346 352 350 352 351 350 352 353 352 351 352 352 348 351 349 350 351 351 351 348 348 340 347 350 349 344 344 342 341 342 343 345 345 346 346 346 347
346 348 350 352 348 350 351 350 350 348 345 351 353 354 352 352 352 353 353 349 350 347 351 353 351 346 345 342 344 348 352 354 350 341 340 342 340 343 343 341 344 345 347
345 347 350 353 350 347 351 350 351 348 349 352 352 352 351 352 351 353 352 349 349 349 349 350 350 346 347 350 343 342 345 346 356 352 341 339 342 342 342 344 343 345 345
345 345 351 352 354 348 350 353 351 351 349 348 352 351 353 353 353 353 352 352 350 350 350 351 349 347 351 351 346 347 342 348 346 352 353 343 341 343 343 345 344 346 347
342 343 350 353 354 354 348 351 351 352 347 350 352 353 353 353 353 353 351 353 353 345 352 352 352 349 350 349 345 347 347 345 346 351 353 348 345 343 344 345 345 346 348

GFSSE_925_thetae_093.txt.gz
Theta_e
347 348 347 347 351 351 352 350 346 342 341 343 351 351 349 348 351 350 350 351 351 350 352 351 350 350 351 350 351 349 342 347 349 349 349 349 347 347 348 349 348 348 348
347 349 349 350 352 349 348 341 343 340 339 342 344 351 351 352 351 349 350 350 350 351 353 353 352 351 350 351 349 350 350 347 347 350 349 348 345 348 348 348 348 347 348
349 350 350 349 346 341 340 353 347 346 344 346 341 348 352 352 349 350 352 352 352 352 353 352 350 351 350 350 348 346 346 346 345 342 337 341 346 349 348 346 348 347 347
349 349 344 340 347 350 349 349 350 352 351 350 350 348 351 349 351 352 352 352 352 351 353 353 352 351 351 347 343 343 343 343 343 339 342 345 346 348 348 347 345 348 346
347 343 344 343 348 350 349 349 351 349 351 350 350 352 352 350 351 353 352 352 351 352 353 351 347 349 347 345 343 345 344 344 344 347 345 345 348 348 349 347 346 347 348
345 339 345 345 351 352 352 348 350 350 349 351 351 352 352 351 351 352 352 352 352 351 352 351 344 344 344 343 344 345 344 342 342 341 340 345 346 348 348 348 345 345 345
347 342 347 350 350 351 351 352 351 351 350 349 352 353 352 352 352 352 351 351 348 350 346 350 340 343 345 344 343 344 338 338 343 336 342 343 346 347 348 346 347 343 344
348 349 351 349 350 352 352 350 351 350 351 352 351 352 351 351 351 352 351 351 349 343 349 344 338 337 343 343 344 342 342 340 338 333 342 346 345 348 348 347 343 344 344
349 348 348 350 352 352 351 351 348 349 350 352 352 350 352 351 352 352 350 350 348 351 351 345 336 335 339 340 343 344 340 342 339 340 342 337 345 346 346 348 343 344 344
348 346 348 349 349 349 350 351 346 348 351 352 351 350 351 351 352 348 345 351 350 345 345 351 341 338 337 341 343 344 344 346 344 333 337 336 346 348 347 347 343 344 345
350 350 349 350 350 346 344 350 343 349 343 341 341 342 346 345 348 345 342 345 349 346 343 338 333 336 339 341 342 343 346 345 338 341 342 344 341 345 347 346 338 338 340
350 349 350 350 348 345 349 341 340 344 347 346 345 347 349 348 348 342 344 346 348 348 341 336 338 339 341 342 342 344 345 344 341 339 341 335 340 346 347 340 336 339 337
349 351 350 349 348 349 347 347 347 347 347 346 348 347 348 346 341 342 344 342 344 345 341 341 337 343 345 345 346 347 346 344 337 333 333 333 340 348 338 339 344 336 336
350 351 351 350 349 349 348 349 349 348 345 347 348 346 339 343 342 345 345 341 340 343 336 345 344 345 345 345 343 342 344 343 334 332 335 332 330 338 333 333 334 333 334
349 351 349 349 351 348 348 348 348 349 345 345 345 346 347 345 339 341 341 334 337 340 339 339 344 347 347 340 339 344 344 342 328 326 326 327 328 330 332 332 331 332 335
348 350 345 350 348 346 349 346 346 346 345 346 346 344 348 346 342 344 342 343 344 340 336 340 345 345 343 342 342 341 342 344 342 336 332 330 330 330 332 332 331 331 331
348 348 346 347 348 348 347 351 348 345 346 348 349 345 344 346 347 348 345 343 344 345 345 344 344 346 345 341 344 343 341 340 342 342 342 338 336 335 336 336 335 334 332
347 347 344 348 348 347 352 351 348 348 346 345 349 347 349 347 349 349 348 347 346 348 347 347 346 347 346 343 344 343 344 344 343 345 346 347 345 341 337 335 336 335 335
346 346 344 343 349 349 351 348 345 348 348 346 345 348 349 350 349 348 346 348 350 345 345 345 346 346 346 346 346 345 345 343 345 345 346 345 345 347 347 341 346 341 333
344 346 344 344 347 346 352 350 349 347 350 348 350 350 349 351 347 346 349 350 346 347 346 347 346 346 344 343 345 345 344 343 345 345 341 344 343 344 347 345 347 347 339
344 346 344 344 350 345 351 348 350 350 349 349 348 349 351 350 347 346 348 346 346 345 346 350 350 348 349 343 345 346 343 343 344 343 344 344 344 345 346 347 348 346 348
345 345 349 344 345 345 348 349 350 350 351 351 349 349 351 351 350 349 349 348 349 350 351 351 349 348 346 342 347 351 343 342 342 343 344 344 345 345 346 346 348 344 344
347 345 350 345 346 349 346 351 350 350 350 350 352 352 352 351 351 350 349 349 348 347 340 352 347 345 345 343 344 348 347 348 349 340 341 344 340 344 345 345 343 345 343
348 347 350 347 344 349 353 350 348 347 348 345 350 351 350 350 352 351 348 347 347 346 348 350 350 350 349 350 346 346 345 347 347 343 341 340 342 343 343 342 343 344 346
348 348 348 351 348 345 350 352 349 345 348 350 351 352 351 351 352 352 351 350 348 347 348 350 350 348 346 350 349 351 347 347 349 348 343 340 339 341 342 341 344 344 346
348 349 349 352 351 346 346 353 351 350 347 349 350 351 352 351 352 353 351 351 347 348 349 348 352 349 345 348 350 350 351 347 345 350 346 347 342 341 342 344 344 346 347

GFSSE_925_thetae_096.txt.gz
Theta_e
346 346 346 351 351 352 351 350 346 346 350 350 348 350 351 351 351 351 351 352 351 351 352 352 351 351 349 346 350 351 350 349 349 349 348 349 349 349 349 348 346 347 348
346 347 348 351 352 351 345 342 343 348 349 350 350 350 351 351 349 350 352 350 349 352 352 351 350 351 349 349 349 350 350 349 350 348 347 347 349 349 348 348 348 348 349
348 348 349 350 346 338 350 346 347 346 348 349 350 350 351 351 352 352 352 351 352 353 352 350 351 351 348 349 350 349 349 342 347 345 345 348 348 346 349 349 348 347 345
348 349 349 341 340 347 351 348 350 351 350 349 350 350 352 351 352 353 352 353 353 353 352 352 352 350 347 348 348 348 348 344 342 343 346 347 348 348 345 348 347 348 348
348 346 340 349 349 350 350 349 350 351 351 350 350 351 351 351 352 352 353 353 353 353 352 351 351 347 342 344 344 343 344 344 345 342 345 346 347 349 346 348 348 348 347
342 338 341 348 351 351 350 351 351 351 352 350 349 351 351 351 352 352 352 352 351 351 350 350 350 346 344 346 344 348 345 345 341 340 344 347 348 348 346 345 345 347 346
342 344 347 350 351 351 351 351 351 351 349 350 351 352 352 350 351 352 352 350 351 347 350 347 343 342 342 343 343 343 347 341 334 340 343 344 347 345 349 344 344 344 344
339 345 349 349 351 351 352 351 350 351 351 351 351 350 348 351 353 352 349 346 343 344 344 343 345 344 344 343 344 342 341 335 338 341 344 347 347 347 346 344 344 344 346
345 348 348 350 352 352 351 352 351 350 350 351 351 351 351 351 351 351 346 346 344 349 345 340 341 342 343 343 343 341 337 333 338 339 340 345 338 348 345 343 344 344 346
347 344 347 350 349 349 351 351 350 349 351 351 350 351 351 351 351 348 342 344 351 350 344 341 337 341 341 343 341 343 343 339 337 331 334 344 345 349 345 342 345 345 343
347 345 345 347 347 348 350 351 350 348 344 348 350 351 349 346 345 347 348 350 351 346 348 338 335 338 342 342 343 344 344 341 337 339 334 343 342 348 347 341 337 341 336
349 349 346 347 347 347 352 347 343 342 342 343 346 346 347 345 343 345 348 349 351 349 339 334 336 339 341 342 343 347 344 340 339 341 334 333 342 347 336 334 335 335 333
350 350 349 348 344 346 346 342 345 346 346 345 347 348 348 347 345 343 344 343 344 343 338 335 342 343 343 342 344 345 344 343 337 338 330 333 339 339 340 340 333 333 334
349 349 349 347 348 346 340 344 347 346 346 347 347 346 347 344 343 341 340 342 343 338 338 341 342 344 344 344 344 345 346 341 332 333 332 328 333 338 331 332 331 331 333
350 349 349 348 349 346 346 348 347 346 346 346 341 341 343 342 344 343 342 337 338 337 341 343 344 346 345 342 342 344 344 332 329 329 328 328 329 332 330 329 330 332 334
350 351 351 349 349 348 345 346 347 345 346 345 345 345 346 343 338 338 338 336 341 334 338 342 344 345 342 342 344 343 343 342 336 332 331 330 330 330 332 332 331 330 331
350 350 349 349 348 349 346 346 346 344 346 346 345 345 345 343 345 343 342 342 343 342 342 343 344 345 343 341 341 342 343 342 341 341 341 339 335 333 334 334 335 334 332
348 348 348 347 349 347 349 347 345 345 346 347 346 347 345 346 347 345 343 342 343 343 344 346 345 346 345 342 342 342 342 342 343 344 343 344 344 339 336 336 335 335 334
346 347 348 347 347 350 348 347 345 346 348 348 346 346 348 348 349 347 346 344 345 343 346 346 346 345 344 343 344 345 344 344 344 345 345 345 344 346 342 341 345 339 332
345 344 345 344 346 349 348 347 347 346 345 344 348 348 348 347 347 347 347 347 348 345 345 344 346 348 345 344 344 345 345 344 344 345 343 345 342 345 346 345 346 347 342
344 344 343 345 347 350 349 349 348 348 347 349 349 349 349 349 346 346 347 347 348 347 348 347 348 347 347 345 345 345 344 344 343 345 343 344 342 344 345 346 347 345 345
346 343 343 346 346 347 349 348 349 348 349 348 348 348 350 346 346 346 346 345 348 347 347 347 347 346 345 343 346 347 340 341 341 344 343 343 344 344 346 345 346 344 341
345 344 347 347 348 345 349 348 349 350 349 349 348 349 351 349 349 346 346 346 349 347 347 349 347 344 345 346 347 347 343 343 345 340 344 344 344 345 345 345 344 344 343
347 345 344 345 346 346 346 350 348 349 349 349 349 349 350 351 351 347 349 348 347 345 343 346 348 350 347 347 346 349 347 347 344 339 341 343 343 341 343 344 344 342 344
345 348 346 344 344 348 348 350 349 347 348 344 349 350 351 350 351 351 348 344 347 346 346 348 351 349 348 347 349 348 347 350 346 344 338 339 339 341 341 342 343 342 343
347 349 347 345 345 348 350 351 349 348 347 348 349 349 350 350 351 352 349 348 347 346 346 349 348 350 347 347 348 349 351 352 350 347 342 344 340 340 340 341 343 344 345

GFSSE_925_thetae_099.txt.gz
Theta_e
346 346 348 351 351 351 351 351 350 350 350 349 350 351 350 350 350 351 350 350 348 350 351 351 346 347 346 347 349 349 350 350 349 349 349 349 349 348 348 348 347 346 348
345 346 349 351 351 350 347 343 343 348 351 348 347 351 350 350 350 351 351 350 351 352 350 351 350 347 350 350 350 350 350 347 348 347 349 350 349 349 349 349 348 348 348
345 347 348 350 351 349 347 346 347 346 348 345 348 350 351 351 351 352 352 351 351 348 350 351 349 350 350 350 349 348 350 349 347 349 347 344 349 349 349 349 346 344 347
346 349 350 347 347 351 348 348 349 349 348 347 348 351 351 351 352 352 352 352 352 349 351 351 350 349 349 350 350 347 343 344 346 346 346 347 345 347 349 348 348 348 345
348 349 344 344 351 351 349 351 351 351 349 349 350 351 352 351 351 352 352 352 352 352 351 351 348 348 346 348 349 345 347 348 345 344 345 347 344 347 348 347 348 348 347
349 343 350 350 351 351 349 349 350 351 350 350 351 351 351 352 352 353 353 352 351 350 351 350 349 348 347 348 348 348 350 343 342 344 345 346 346 346 345 346 348 346 345
343 346 349 349 351 350 349 351 351 351 347 348 349 349 349 352 352 352 352 352 351 350 350 350 348 347 344 346 351 350 347 338 339 342 345 347 344 346 344 344 344 346 347
339 341 350 349 350 349 351 350 349 350 350 348 347 350 346 352 352 349 352 352 351 350 346 345 343 341 343 345 347 346 342 340 341 341 345 343 348 344 344 344 344 346 346
341 346 350 348 350 349 349 347 349 350 351 351 351 351 351 352 348 345 351 352 352 351 346 345 342 342 343 343 341 344 338 340 341 342 343 342 347 343 344 344 345 344 344
347 350 347 349 351 348 349 350 350 350 350 350 349 351 351 350 350 351 346 351 351 349 347 342 342 341 343 341 342 339 336 339 335 340 340 341 347 344 343 345 344 342 343
350 348 349 349 348 348 348 350 350 350 348 350 350 350 348 344 344 346 347 351 350 348 341 338 340 340 342 343 343 344 344 337 332 332 343 344 346 348 341 336 342 340 338
349 350 349 348 346 346 347 347 343 346 348 347 348 346 345 344 345 346 351 352 350 337 334 336 338 341 341 342 344 348 345 338 339 335 336 333 339 343 333 334 333 332 332
346 349 347 346 347 347 344 344 343 343 343 346 346 347 346 344 343 342 344 346 341 338 336 338 341 341 342 341 343 345 343 342 339 337 333 335 344 347 336 336 333 334 333
347 347 348 347 345 345 341 344 345 345 345 346 347 346 345 343 341 341 342 343 338 337 338 340 342 344 344 343 343 344 345 343 335 332 331 338 343 338 335 337 333 331 332
349 348 347 346 345 338 342 346 346 346 346 347 346 344 341 342 341 340 341 342 340 337 340 342 344 343 341 342 343 344 343 336 330 331 331 330 333 337 334 334 332 332 334
349 347 347 347 346 344 345 345 345 345 346 344 341 342 340 342 341 341 340 335 337 335 339 342 344 343 340 342 342 343 342 334 333 332 331 330 331 332 333 333 333 333 332
349 347 347 348 348 345 344 344 345 346 345 345 343 344 345 344 338 338 340 343 340 340 342 343 344 345 341 343 343 343 342 339 335 337 337 336 334 332 333 333 334 334 333
349 349 349 349 348 348 346 345 345 345 346 346 345 346 344 343 345 343 343 342 341 343 344 343 344 345 342 343 341 342 342 342 341 340 341 342 342 338 337 337 335 333 333
348 350 349 349 348 346 347 345 344 345 347 346 346 345 345 345 346 345 343 342 343 343 345 345 345 344 344 343 344 344 343 343 343 343 344 344 343 344 343 340 343 341 335
348 348 348 347 347 348 347 345 345 346 348 348 348 345 346 346 347 345 344 346 345 344 344 344 346 347 345 343 343 344 344 344 343 344 344 343 343 343 345 345 345 346 344
347 348 347 348 350 347 348 347 345 346 346 347 349 348 348 347 346 346 345 346 347 346 347 346 346 346 346 345 343 345 344 344 344 343 344 342 343 343 344 345 346 345 344
347 347 347 346 349 347 346 347 347 347 346 347 348 348 348 348 346 344 346 346 347 346 347 347 347 346 344 342 346 344 337 340 341 342 343 343 343 343 344 345 345 345 344
344 346 345 345 348 348 348 348 348 347 348 348 348 347 347 347 346 344 346 344 346 346 346 346 347 344 345 346 345 346 341 340 342 340 342 343 343 343 344 344 344 343 344
343 344 344 345 344 347 348 347 348 348 347 347 348 347 349 349 349 346 347 347 346 346 343 346 346 349 348 347 346 348 346 346 343 337 340 341 342 343 341 342 343 342 342
344 343 343 346 346 345 346 348 348 348 348 347 347 348 349 350 350 349 348 347 347 345 346 347 348 349 348 349 348 349 345 346 347 341 337 338 340 339 341 341 341 342 342
346 344 345 347 346 345 345 347 348 348 345 347 346 348 348 350 349 350 349 345 346 347 346 346 347 346 347 347 348 348 350 349 347 346 340 343 340 341 342 340 341 342 344

GFSSE_925_thetae_102.txt.gz
Theta_e
344 345 346 346 350 351 350 350 346 346 348 348 349 351 350 349 351 351 351 351 350 348 351 349 347 347 346 347 347 349 349 349 351 350 350 350 348 348 348 347 346 347 347
343 346 347 350 350 351 345 349 350 348 342 348 350 350 350 350 351 351 351 349 350 350 348 347 350 351 350 345 346 350 350 349 347 350 350 349 349 349 348 349 348 348 348
344 346 347 347 351 345 343 343 347 350 348 350 349 349 349 348 351 351 351 350 349 351 350 349 350 350 350 350 350 349 348 348 349 347 347 349 347 349 347 345 347 348 347
344 348 348 348 345 345 342 341 343 348 345 347 346 347 351 352 349 351 352 350 350 351 349 350 351 349 350 348 344 345 345 349 346 346 343 343 348 348 348 348 347 348 347
346 348 348 341 351 342 347 349 350 346 347 346 346 350 349 347 351 350 350 351 352 350 350 350 349 346 350 350 348 347 347 347 344 345 344 343 348 348 347 348 348 348 347
348 346 337 350 350 350 350 349 350 349 347 347 346 351 350 349 349 349 350 352 351 347 349 348 349 348 349 349 347 349 347 344 344 345 344 344 343 346 348 348 345 346 344
345 348 349 349 349 350 348 350 348 349 351 349 350 350 351 352 353 351 350 350 351 351 347 349 348 348 348 350 350 348 346 342 341 343 345 345 343 344 345 345 347 347 347
341 349 349 348 346 349 349 349 349 346 347 348 349 350 352 347 349 353 351 350 350 350 349 346 348 343 342 349 350 346 340 340 340 343 340 347 343 343 343 344 346 346 347
343 348 349 350 349 350 347 347 348 347 347 350 350 350 349 344 343 350 352 351 350 350 348 347 347 343 345 345 343 343 338 340 341 344 342 345 340 344 344 345 344 344 343
345 350 349 349 349 347 346 348 348 348 346 350 350 348 346 343 345 350 349 348 350 349 348 347 342 342 340 343 342 336 338 339 336 341 335 347 344 344 345 344 341 341 342
349 349 349 351 348 347 348 349 348 346 348 348 350 347 344 343 344 348 349 350 350 349 343 341 340 342 341 342 344 346 342 335 330 336 342 347 348 344 339 342 342 333 334
349 348 350 349 347 346 348 347 348 347 349 349 346 345 343 345 344 350 350 351 345 336 337 339 340 341 341 342 345 348 345 337 337 333 340 341 347 343 338 334 331 330 331
346 348 349 345 345 346 347 344 344 345 344 344 344 343 341 342 343 344 346 344 339 336 336 338 340 341 340 341 342 344 343 341 338 335 334 339 345 344 338 334 332 333 334
347 347 346 345 344 344 342 343 343 343 345 344 345 345 342 341 343 342 343 341 338 337 339 341 342 343 344 341 342 343 343 342 333 333 331 337 341 340 339 336 333 334 334
346 346 345 344 343 342 344 345 345 345 345 344 343 342 341 339 340 341 341 341 338 337 341 343 343 341 341 342 342 343 343 341 332 332 331 330 334 337 336 335 336 335 335
346 346 346 343 341 340 344 346 346 345 345 344 341 340 340 341 341 340 338 335 335 337 340 343 343 340 341 341 342 343 343 339 333 333 333 332 331 332 333 334 334 333 333
346 346 347 346 345 341 344 345 345 346 344 341 342 341 340 342 340 338 340 341 338 341 342 343 344 341 341 341 342 342 342 341 337 336 336 337 337 333 334 334 334 334 333
346 347 347 347 345 344 344 344 345 346 344 344 343 344 345 343 343 342 342 342 342 343 344 344 344 343 341 342 341 341 342 341 341 342 341 341 341 341 337 339 339 336 333
347 346 346 348 348 346 345 345 345 345 346 345 345 344 344 343 346 344 342 343 343 343 344 344 344 344 344 343 344 343 343 343 343 343 343 343 343 343 344 344 342 343 342
348 348 348 349 348 347 346 346 344 345 347 345 346 344 343 345 346 345 344 344 345 344 343 344 345 345 344 343 343 343 344 344 344 343 343 343 343 343 343 344 345 345 344
348 348 349 348 347 346 346 345 344 345 347 347 347 346 344 346 345 345 344 345 346 345 344 346 346 346 344 342 343 345 343 342 343 343 342 342 342 343 343 344 344 344 343
348 349 348 347 347 346 346 345 344 345 346 347 347 347 347 347 345 345 345 345 346 345 345 346 347 344 343 344 345 342 344 340 340 340 341 342 343 343 343 344 344 344 344
347 347 347 348 348 346 347 346 345 346 346 346 347 348 347 347 345 344 346 343 345 345 345 346 345 345 346 344 346 346 346 347 342 338 341 341 342 342 342 343 343 343 343
346 347 347 347 349 346 346 346 346 345 346 347 347 347 346 347 348 346 346 346 346 345 343 345 347 347 347 347 346 347 346 346 348 347 338 340 341 340 340 341 341 341 341
345 346 346 345 348 348 347 347 346 347 346 345 347 347 347 349 349 349 347 347 346 346 345 344 347 347 347 348 348 349 345 346 346 341 346 341 339 338 338 339 340 341 342
344 343 344 345 347 348 347 347 347 347 347 347 347 348 347 349 348 348 349 347 346 346 344 346 346 345 345 345 346 347 348 346 348 346 343 343 343 342 345 344 342 343 345

GFSSE_925_thetae_105.txt.gz
Theta_e
347 347 345 348 347 350 348 343 348 348 346 349 348 347 350 350 348 349 350 350 351 348 348 347 346 346 347 347 345 350 349 350 350 350 349 349 349 349 348 350 347 347 348
346 349 345 348 347 350 350 349 347 344 349 349 349 349 350 350 350 350 349 352 349 347 348 351 351 350 346 348 349 349 350 347 349 349 349 349 349 349 350 350 349 347 349
346 349 349 347 348 342 342 348 348 349 350 348 347 350 349 350 351 351 352 352 351 348 351 351 351 350 350 350 350 349 350 349 348 349 349 348 348 347 346 350 349 348 347
348 349 350 348 342 340 339 342 347 348 346 349 347 349 349 348 349 352 351 351 351 351 351 351 349 348 346 346 345 348 348 348 341 343 346 346 347 347 349 348 348 348 347
349 349 351 344 344 341 346 348 339 345 349 347 347 350 349 347 346 349 351 351 351 351 351 349 348 349 350 349 348 347 348 346 345 343 346 348 348 349 348 349 348 348 347
349 349 344 349 349 350 348 346 350 340 343 344 348 347 348 349 346 351 352 352 349 347 349 349 349 350 349 349 349 348 347 344 347 347 343 342 345 348 347 347 347 344 344
347 343 350 349 349 348 350 348 348 348 345 345 349 346 345 347 349 350 352 351 350 350 350 349 349 350 351 350 349 347 345 341 347 345 348 342 342 345 346 348 347 348 346
346 350 351 349 349 346 348 346 349 348 349 349 348 346 345 351 352 351 351 351 350 349 349 348 347 349 350 349 343 342 343 343 347 345 349 342 342 345 345 347 347 346 345
351 350 351 350 350 349 349 347 345 349 350 347 343 345 345 345 348 351 351 351 350 348 349 348 347 346 346 342 340 339 339 340 347 345 347 342 341 345 345 345 342 342 344
348 351 352 351 351 350 350 346 350 348 349 346 344 343 347 345 345 346 347 349 350 349 349 342 342 340 343 343 338 339 339 337 343 341 347 347 343 345 346 343 341 343 344
350 350 351 350 350 348 350 350 350 349 350 350 346 343 344 349 349 349 347 350 351 349 343 341 341 341 344 346 346 346 342 339 338 343 346 348 347 342 340 342 336 334 333
350 349 351 350 349 349 349 347 348 349 349 349 347 344 347 348 347 349 350 345 339 342 340 339 341 341 343 347 349 348 345 341 340 340 341 345 349 339 338 336 334 332 332
349 349 350 349 350 349 346 348 348 348 348 347 343 346 348 348 350 349 347 339 336 340 342 341 340 341 342 344 345 346 345 342 341 339 337 338 344 345 340 337 333 332 333
348 349 349 349 349 346 342 346 346 345 345 346 346 342 344 346 346 347 343 338 337 338 340 341 346 343 343 342 346 347 345 342 340 340 336 336 340 340 341 339 336 334 336
346 348 348 349 346 342 346 346 347 347 346 346 346 341 344 345 342 344 341 338 337 339 341 343 342 343 342 343 346 345 346 344 341 341 339 331 334 338 338 336 336 335 334
346 347 347 348 346 344 346 345 347 347 346 346 343 342 340 342 341 340 337 337 337 340 342 343 342 343 342 345 344 344 344 344 337 339 343 343 333 332 333 334 336 335 332
347 347 347 347 347 343 345 346 346 347 345 344 339 340 341 340 338 339 340 340 340 341 343 344 343 341 345 345 344 344 345 345 343 341 344 344 343 338 336 335 334 333 333
347 348 348 346 347 343 344 345 346 346 344 342 343 343 343 342 340 340 343 343 342 343 343 344 346 345 345 346 345 345 346 345 344 343 344 343 344 344 344 341 341 340 338
348 349 349 349 348 346 345 345 345 345 346 344 344 344 343 343 344 342 343 343 343 343 344 348 346 347 349 347 346 346 347 346 346 345 346 343 343 343 345 345 344 344 344
348 349 350 350 350 346 345 345 345 345 346 344 345 344 343 345 345 344 343 344 345 344 347 348 345 345 347 346 346 347 348 348 345 346 346 346 345 343 345 344 344 346 342
348 349 349 350 349 348 347 349 348 348 349 345 345 344 344 346 345 344 346 347 345 348 345 345 347 348 347 346 350 349 347 345 346 347 346 346 346 346 345 345 344 347 347
349 350 351 350 348 347 349 346 347 348 347 346 346 345 347 346 346 345 345 347 346 348 344 346 345 347 348 346 350 349 348 344 346 344 344 345 346 346 346 345 343 343 343
348 350 351 348 348 346 347 346 344 345 346 347 346 347 347 348 345 345 345 344 346 348 349 345 346 345 350 349 348 350 350 349 350 343 344 344 342 346 345 343 342 341 341
348 349 350 349 347 347 346 348 345 348 346 345 345 347 346 347 347 344 345 344 345 345 344 347 347 348 350 352 351 349 350 351 352 346 344 343 342 343 341 342 343 343 342
348 348 349 350 349 348 346 348 348 348 345 344 347 346 347 346 347 348 346 346 346 345 345 344 346 347 350 352 352 352 351 351 351 350 348 347 345 346 348 345 342 344 346
348 348 348 349 348 348 346 346 346 346 346 349 349 349 347 349 346 348 348 347 347 347 344 346 347 346 347 347 351 351 351 350 351 349 348 350 349 348 350 351 351 351 351

GFSSE_925_thetae_111.txt.gz
Theta_e
347 347 349 350 349 349 348 350 350 352 352 351 352 352 352 352 352 350 350 352 350 348 349 349 348 351 352 352 351 351 351 352 351 351 351 351 346 346 346 346 347 347 348
346 348 350 351 351 351 347 350 351 351 352 351 352 352 353 352 352 352 350 348 350 352 352 351 352 351 351 351 351 351 349 348 350 345 348 351 350 346 347 346 347 349 349
347 348 350 350 351 351 349 347 348 349 352 350 352 353 353 353 352 348 352 348 352 352 351 351 351 351 352 351 350 349 345 345 346 347 348 343 349 351 350 350 349 349 348
346 347 350 344 345 347 351 351 351 352 352 350 351 349 351 351 353 352 351 352 352 352 348 348 348 347 350 350 350 343 340 343 346 349 349 344 346 350 349 349 349 346 347
348 350 349 343 342 343 349 351 352 352 351 351 352 350 346 352 348 352 352 352 352 347 350 351 350 350 348 350 350 343 344 342 343 348 349 347 348 347 349 349 348 348 347
350 349 344 344 351 349 349 350 352 349 351 352 351 348 345 352 353 351 348 343 344 349 351 351 351 351 349 349 348 344 345 345 341 341 347 345 349 349 349 345 347 349 348
347 347 348 350 348 347 351 349 350 348 352 347 347 351 350 353 353 346 343 348 352 352 351 352 351 351 348 348 343 344 343 345 342 340 341 344 349 348 349 349 346 348 348
342 347 348 348 347 347 349 351 348 348 352 352 348 348 346 344 351 349 348 351 351 351 351 351 350 348 347 347 337 344 344 345 341 340 340 342 345 346 346 346 345 345 344
347 346 347 349 349 351 351 352 352 351 350 346 347 347 347 352 352 352 351 351 351 351 350 350 349 347 346 340 331 340 341 342 344 340 339 340 345 345 345 346 347 347 348
348 349 349 349 350 349 349 351 350 347 350 349 349 349 351 351 349 345 345 351 351 350 349 348 344 343 343 340 336 338 341 342 344 342 341 340 346 349 344 341 339 337 338
346 348 347 349 348 348 348 347 347 348 348 346 346 341 348 348 348 351 347 352 350 349 347 342 344 345 343 338 340 339 342 339 341 343 346 341 338 341 338 334 334 333 334
346 348 348 346 348 347 346 349 347 347 348 344 345 346 349 349 348 346 347 347 343 340 341 343 342 345 348 350 346 344 338 337 339 338 344 336 336 340 338 334 334 334 334
347 345 348 348 346 345 344 346 347 347 345 346 349 348 346 346 346 340 342 346 349 350 348 347 347 345 343 339 337 338 339 338 336 336 333 335 341 339 338 334 334 335 336
344 346 344 345 347 343 342 343 344 344 345 348 349 347 346 343 344 342 342 346 347 346 347 345 342 345 343 343 342 341 340 338 337 337 333 329 330 332 334 335 334 334 335
344 344 345 346 348 346 343 342 345 344 346 347 346 345 347 346 344 345 346 345 345 346 345 345 345 345 344 344 342 343 341 342 339 336 334 328 328 329 330 331 331 332 333
344 345 344 348 349 348 345 345 344 346 345 345 344 346 348 344 346 345 346 345 345 345 347 346 349 344 343 341 344 344 342 342 343 341 339 333 329 328 329 330 332 333 335
345 344 347 349 345 346 345 346 346 343 345 344 347 349 349 347 349 345 345 345 346 347 350 345 345 344 341 340 343 344 343 343 343 345 342 341 335 334 333 334 335 336 338
345 345 346 344 345 345 347 349 347 345 345 345 346 348 349 350 349 350 346 346 347 348 345 343 344 341 341 341 343 344 343 342 344 345 344 344 345 344 339 339 340 342 343
346 346 347 345 346 347 348 349 347 347 345 346 345 347 350 350 351 348 345 349 349 344 344 343 343 345 341 342 343 344 343 342 345 344 345 345 344 346 346 341 342 342 343
346 347 346 346 348 348 349 346 346 348 346 345 347 350 351 350 351 351 349 348 352 347 343 350 352 344 345 344 344 344 344 344 344 345 344 344 345 347 346 348 350 351 348
347 348 348 348 350 350 349 347 346 346 347 347 350 350 351 351 352 353 350 350 353 348 349 347 347 347 346 343 347 343 344 345 346 345 345 345 344 345 344 345 351 351 352
347 348 350 350 351 351 348 347 347 346 346 348 349 350 352 351 353 352 353 351 351 348 350 352 352 345 344 347 352 343 345 343 343 344 344 344 345 345 346 348 350 352 352
346 348 349 351 352 353 351 350 351 352 351 350 351 349 351 352 352 353 352 353 352 354 348 352 348 351 349 347 351 353 350 351 343 343 344 344 346 347 347 348 348 348 351
347 347 351 350 352 351 355 351 350 347 349 349 349 348 352 351 351 351 352 352 353 350 351 350 349 351 352 347 347 349 354 355 358 344 342 343 344 345 346 346 346 349 351
347 347 349 350 352 351 352 352 352 350 349 349 348 352 351 353 353 351 353 353 354 353 353 355 353 356 351 352 350 348 351 346 345 348 351 344 342 345 348 348 347 348 352
346 346 348 350 352 353 353 353 352 349 352 350 351 352 350 351 351 352 352 354 355 355 354 353 355 354 357 354 355 351 349 350 349 349 347 345 347 348 347 348 349 349 350

GFSSE_925_thetae_114.txt.gz
Theta_e
349 349 349 351 351 352 352 351 351 350 350 350 351 350 351 351 350 350 347 345 347 346 347 352 352 351 351 352 352 352 352 349 346 349 351 346 345 347 346 346 347 348 348
348 348 350 351 350 351 353 352 350 351 351 351 351 349 351 349 348 347 349 352 351 351 353 352 352 352 352 352 351 347 346 344 344 346 348 350 348 348 347 346 349 349 349
346 350 352 350 352 351 349 352 352 353 353 351 351 351 352 345 351 351 352 352 352 352 352 352 351 351 351 346 344 345 345 345 346 346 347 349 350 351 350 350 349 349 348
347 350 350 347 351 352 350 352 352 353 353 352 352 349 352 347 350 352 352 352 348 349 348 347 348 350 351 336 339 344 345 346 346 345 348 348 348 348 347 349 348 347 348
350 350 344 342 346 351 352 351 352 352 353 351 351 349 349 353 352 352 353 352 351 352 352 351 350 349 350 339 343 343 343 346 346 345 346 346 349 350 350 351 348 349 349
350 346 341 350 351 349 352 352 351 352 353 351 348 350 352 352 352 350 350 349 351 352 351 352 351 348 349 341 343 344 345 345 347 344 347 346 347 348 346 350 349 349 348
349 345 352 349 349 351 349 350 351 352 352 350 346 349 353 351 342 350 351 353 352 352 352 351 349 348 339 340 342 344 343 341 341 343 346 348 349 350 348 348 349 348 349
347 348 350 351 352 351 351 351 350 352 352 349 351 348 353 350 346 350 352 352 352 351 350 350 347 346 334 338 342 343 342 342 340 341 342 343 343 346 346 345 345 343 343
346 348 349 351 352 352 352 352 350 351 349 348 351 348 352 348 347 351 350 351 351 351 351 349 340 334 327 335 341 341 343 344 341 341 342 346 342 346 346 347 346 348 346
348 343 349 350 350 350 351 350 350 344 348 350 348 350 352 353 351 348 350 351 351 350 348 343 343 338 331 338 340 341 342 344 342 339 340 347 348 344 342 338 333 332 334
350 348 350 350 349 348 350 350 350 346 346 343 343 343 348 347 349 352 346 349 346 342 342 341 340 333 337 338 338 339 341 345 344 345 332 333 336 339 333 332 333 335 336
348 347 349 349 349 347 346 348 347 348 345 347 341 348 346 349 350 349 347 343 341 341 341 342 344 344 345 344 341 341 339 340 339 342 331 331 332 333 334 334 334 334 334
348 349 349 345 347 346 345 349 344 346 346 341 337 342 349 345 343 344 340 342 346 347 347 347 349 347 350 350 343 339 338 338 336 337 328 333 333 336 334 333 333 334 335
346 347 347 347 345 345 346 347 349 348 343 333 339 345 346 347 342 342 345 348 350 344 341 344 344 343 343 341 341 340 339 338 337 334 327 328 329 331 331 331 331 333 334
346 346 347 345 345 347 346 345 343 347 349 348 339 337 346 344 345 343 344 346 345 346 346 346 344 343 343 343 343 341 342 340 338 334 325 326 326 326 327 329 331 334 336
345 349 347 346 347 348 344 347 345 345 347 347 347 345 346 346 344 344 345 345 346 344 347 342 345 345 344 341 344 343 342 343 344 338 328 325 327 328 331 333 334 336 338
345 350 346 344 349 345 346 345 345 346 346 348 346 350 347 347 349 347 345 345 344 340 344 342 345 342 343 343 343 344 343 343 343 343 340 337 333 334 335 336 338 341 343
345 347 347 346 345 344 344 347 348 346 345 346 349 348 350 348 349 347 345 347 343 343 347 346 346 346 342 345 344 345 343 343 345 345 344 344 344 340 337 340 342 344 344
346 348 348 344 344 347 351 347 346 345 345 345 348 349 350 349 349 349 351 344 341 347 350 350 346 346 343 343 344 344 344 342 345 345 345 346 346 348 344 342 346 344 346
346 347 346 345 347 344 350 350 348 347 347 346 348 351 351 350 351 351 349 345 351 350 342 349 343 343 348 344 346 344 344 345 344 344 345 346 342 345 348 347 349 350 349
346 348 347 347 349 348 349 345 347 348 347 350 352 351 351 351 350 354 352 346 333 346 351 352 343 350 347 343 351 344 346 345 346 346 345 346 341 347 344 346 352 351 352
348 347 348 350 350 348 346 348 349 348 347 350 351 350 352 350 349 353 350 351 346 349 350 349 351 351 350 347 349 355 354 349 346 345 345 344 345 344 346 348 349 350 350
350 349 351 350 347 351 352 349 346 350 348 350 350 351 351 352 352 354 352 349 349 351 350 352 354 353 354 346 351 354 357 357 347 344 342 346 342 347 347 347 348 348 350
352 348 350 352 350 351 353 351 348 349 351 349 351 350 351 351 351 352 353 353 338 338 349 353 350 350 356 355 351 350 340 344 356 357 345 344 345 346 346 344 348 349 352
346 352 350 350 351 351 354 351 350 349 347 349 351 351 353 351 351 351 352 353 352 351 350 356 352 353 355 350 352 358 349 352 345 355 356 344 344 345 348 348 345 351 352
346 350 351 352 350 351 352 351 352 349 349 352 350 351 352 352 352 350 351 352 346 351 354 353 352 354 354 345 350 357 348 347 342 351 349 345 348 348 350 349 349 347 347

GFSSE_925_thetae_117.txt.gz
Theta_e
347 347 346 348 351 350 347 348 349 351 349 349 349 350 351 350 346 343 344 346 350 351 351 351 351 352 352 352 351 350 347 344 346 348 349 348 349 348 346 347 348 347 347
346 349 349 351 351 350 347 348 349 349 349 348 350 350 351 348 349 351 351 351 352 352 352 352 352 352 351 350 350 348 346 345 345 348 351 350 349 350 351 350 349 348 349
348 350 348 345 350 350 350 350 349 351 352 351 350 344 349 352 352 352 352 352 352 352 352 352 351 349 350 349 348 344 345 345 346 350 347 348 349 350 350 350 349 348 348
352 349 350 350 349 350 350 348 350 352 352 351 351 347 352 352 350 351 349 351 349 348 348 350 351 347 348 347 347 345 342 344 349 348 346 348 349 350 350 349 349 349 348
350 342 344 348 350 350 350 350 351 351 351 351 352 351 352 352 352 353 352 352 352 350 352 348 351 349 350 346 346 344 344 345 345 345 346 347 349 350 350 350 350 349 348
342 337 339 345 351 351 352 351 351 352 351 351 350 352 352 352 353 352 351 352 352 352 352 348 348 339 343 344 345 346 345 344 343 346 346 345 346 350 350 349 348 348 348
341 350 350 349 349 352 351 352 352 352 352 350 352 353 351 351 350 352 352 352 352 352 352 348 336 337 342 343 343 347 346 348 344 345 346 348 349 346 349 349 349 349 348
350 348 351 350 349 350 351 352 351 352 350 347 353 353 347 352 353 351 352 352 352 349 346 333 331 335 341 343 343 344 344 342 341 341 344 343 344 346 345 344 343 343 343
348 347 348 350 351 352 350 352 351 350 346 346 350 351 347 348 352 351 349 350 350 350 345 330 326 330 339 342 343 342 340 339 338 334 337 338 343 347 348 347 348 344 344
349 350 347 346 346 349 350 352 351 349 345 345 346 353 353 353 353 351 348 349 346 348 344 337 329 337 338 340 341 343 344 340 342 341 346 342 338 344 342 336 331 331 332
349 349 349 349 350 345 345 350 349 344 343 344 345 345 348 348 349 348 342 344 347 349 342 336 331 337 338 338 339 341 344 341 340 325 330 334 336 341 334 331 331 332 332
343 349 348 348 346 345 345 346 345 341 341 342 343 345 346 349 350 341 340 342 342 342 344 343 337 338 339 339 339 338 344 345 337 326 327 331 335 333 330 330 331 332 333
346 348 347 347 347 345 343 345 346 345 344 341 337 334 343 347 343 339 340 342 345 346 346 345 346 345 347 350 348 339 341 337 334 326 328 329 330 330 329 330 332 333 334
347 348 347 346 346 348 346 343 345 342 335 336 338 338 343 345 342 339 343 347 347 340 340 344 345 341 342 343 343 343 337 336 334 326 326 327 328 328 329 330 332 334 336
347 348 347 345 346 345 349 346 346 339 336 339 340 336 344 344 344 343 346 344 343 345 344 343 345 345 346 345 340 341 340 337 334 323 324 325 326 327 329 333 335 337 338
347 346 344 345 347 348 347 347 346 344 340 336 340 344 346 345 347 348 343 344 338 345 346 342 344 343 341 343 342 340 341 343 337 326 326 328 330 332 334 336 338 340 342
348 345 344 347 346 346 345 346 345 346 346 343 345 347 347 347 343 345 347 346 348 346 346 343 345 346 343 341 344 342 341 342 343 337 335 335 335 336 337 339 342 344 345
346 344 343 347 344 346 345 344 345 347 348 349 348 350 347 345 347 349 342 346 348 348 349 348 347 347 344 342 343 343 342 341 344 345 341 340 339 337 340 343 344 344 345
345 345 347 345 344 344 346 347 346 345 346 348 346 345 343 343 348 351 350 349 340 347 346 348 344 345 345 344 344 344 343 342 344 345 345 346 346 346 340 345 346 345 346
347 348 347 342 347 344 347 347 346 345 347 348 348 347 347 346 351 350 350 345 342 345 344 349 345 347 348 344 346 344 343 343 345 344 344 346 346 348 348 344 347 349 349
347 348 344 346 346 348 348 349 347 346 348 346 349 350 349 350 351 351 350 342 344 347 350 344 348 350 351 349 351 347 345 345 343 343 344 345 343 345 347 345 351 349 351
347 346 347 346 345 345 347 347 347 348 349 350 351 351 350 351 348 350 349 340 343 346 351 351 349 352 351 345 349 355 343 345 345 346 346 345 344 344 346 345 348 350 349
350 349 348 347 348 347 349 348 348 348 348 350 351 350 350 349 352 352 351 344 344 347 350 351 353 353 353 352 347 351 348 348 348 346 345 344 344 345 346 346 348 349 349
348 348 349 347 348 351 350 347 348 348 348 349 349 350 349 351 351 351 352 350 347 345 348 350 353 353 352 352 340 347 342 343 347 349 346 345 343 347 347 347 347 349 350
348 349 349 348 346 348 347 349 346 348 349 351 350 351 351 351 350 349 352 351 343 345 349 352 353 352 349 346 351 351 349 345 346 345 345 344 340 344 345 343 349 349 351
349 350 349 349 350 351 350 350 349 349 349 351 351 350 349 350 351 349 351 347 346 349 350 353 353 351 347 336 349 351 343 346 344 342 341 336 335 339 337 340 346 344 341

GFSSE_925_thetae_120.txt.gz
Theta_e
346 344 344 349 351 351 351 352 348 347 350 351 351 351 350 348 345 350 351 351 351 350 351 352 352 352 352 351 350 350 351 351 351 351 350 350 349 348 347 346 345 345 347
345 345 348 350 351 351 347 351 350 350 350 350 351 350 347 349 349 349 351 351 352 352 352 352 352 351 351 350 349 349 350 351 352 352 352 352 351 351 350 349 347 349 349
346 348 349 349 351 351 350 350 350 351 351 351 350 346 352 351 351 351 351 352 352 352 352 350 351 351 351 348 346 346 348 351 351 351 348 349 350 351 350 350 349 348 348
343 344 346 348 349 351 351 351 351 351 350 345 351 351 351 351 351 352 352 352 351 352 350 350 350 351 350 344 344 347 348 351 350 348 349 349 350 349 350 349 349 348 348
348 349 349 345 349 350 350 348 350 351 351 350 352 350 352 351 351 351 350 348 350 348 351 349 350 351 350 348 343 345 350 348 345 345 346 347 349 350 350 350 349 348 348
348 348 350 350 351 352 351 351 351 351 352 351 352 350 350 351 351 351 352 351 353 349 350 351 350 350 349 348 346 347 352 346 344 344 346 348 349 350 349 348 348 348 347
342 342 348 348 352 351 351 351 350 352 351 351 352 352 352 351 351 352 352 351 352 350 341 342 342 344 344 347 349 346 351 343 341 343 344 337 345 349 350 349 350 347 344
346 348 345 348 351 351 352 350 350 351 352 352 351 352 352 352 354 351 352 352 350 347 335 333 341 342 343 345 346 347 348 342 344 345 346 344 340 346 345 343 341 341 339
348 348 350 349 350 352 352 351 351 351 351 351 351 348 353 353 352 352 351 350 349 347 334 332 338 342 342 343 344 344 341 338 330 330 333 338 343 346 348 350 346 343 335
346 348 347 351 350 350 351 352 351 346 345 351 352 348 351 353 352 351 350 351 351 346 337 333 332 339 341 342 343 340 340 339 335 335 332 337 342 344 342 339 333 334 333
349 346 347 347 348 347 349 351 345 348 351 350 352 352 350 350 343 346 346 348 346 342 333 333 337 339 340 341 341 345 341 340 337 340 335 332 336 341 333 331 332 332 333
349 349 348 348 342 343 349 345 346 345 342 345 344 345 345 343 341 341 342 341 341 341 338 334 336 337 337 338 339 344 344 341 329 326 326 329 333 334 331 330 330 332 333
349 349 349 347 343 345 345 345 344 340 342 341 340 344 346 341 342 340 342 343 343 343 344 344 343 343 345 346 344 346 345 343 331 326 326 327 328 329 329 330 332 334 335
347 345 347 346 345 342 341 342 341 343 340 339 340 343 342 339 342 341 344 347 346 342 341 340 340 341 342 343 342 343 344 340 331 326 326 327 327 328 330 332 334 335 337
348 346 348 347 345 344 341 343 343 338 338 336 337 341 343 341 342 341 345 341 343 343 344 343 343 344 345 344 342 341 339 337 329 326 325 326 327 329 332 334 336 338 340
346 346 347 346 346 346 343 342 336 336 337 340 340 342 343 344 344 344 340 340 339 343 345 344 344 345 344 342 341 341 338 338 332 324 326 328 330 333 335 337 339 341 343
347 347 346 347 348 347 346 344 338 337 340 339 341 344 343 346 345 343 342 345 346 346 346 347 346 345 344 342 341 341 342 342 339 329 331 333 334 336 338 340 342 344 344
346 345 346 345 347 346 346 345 344 344 341 344 346 346 346 344 349 346 344 346 346 348 346 346 347 347 344 342 344 341 341 341 344 344 338 336 337 337 340 343 344 344 344
344 345 346 345 345 344 344 345 346 347 345 344 345 346 347 346 348 347 350 346 346 345 345 349 349 348 345 342 343 343 342 340 343 345 344 344 345 345 341 344 345 347 346
344 344 346 344 344 346 347 347 346 347 348 347 346 344 344 345 347 347 347 345 344 346 348 345 349 349 344 344 345 345 343 342 344 344 343 345 346 347 347 345 345 348 350
343 346 343 344 344 346 346 347 345 345 347 348 347 346 347 347 345 345 348 342 344 347 347 349 352 350 347 349 346 345 344 342 343 344 343 344 345 343 346 346 345 348 349
346 346 342 346 346 345 347 348 345 346 346 349 349 350 348 349 347 349 346 336 344 347 349 352 352 351 346 347 350 352 341 344 345 344 343 344 345 345 345 345 346 346 348
347 345 345 343 345 347 347 348 347 347 347 348 348 349 348 349 349 348 348 339 343 342 348 350 352 350 350 348 341 349 344 345 349 343 344 344 345 346 345 348 347 346 348
346 345 345 344 346 348 348 347 348 348 348 347 349 347 349 349 347 348 347 345 345 344 348 350 352 350 350 347 352 346 341 344 344 346 346 341 340 345 344 347 349 350 350
347 346 346 346 348 348 347 347 347 347 347 347 350 349 348 349 350 349 348 346 343 341 350 351 353 349 345 349 348 347 343 343 343 345 344 344 340 339 344 343 344 349 351
348 348 347 347 349 347 348 348 347 346 348 349 350 350 350 350 351 350 349 348 346 348 351 350 351 352 344 344 349 347 343 347 342 340 337 335 334 338 342 339 341 344 344

GFSSE_925_thetae_123.txt.gz
Theta_e
343 345 345 350 350 350 351 350 350 349 349 350 350 351 350 348 350 350 351 351 351 351 352 351 351 352 351 351 352 351 350 350 350 350 351 350 348 349 349 349 348 346 346
342 344 346 348 350 350 350 350 349 349 350 350 351 348 347 350 351 351 351 350 351 351 352 352 350 350 350 350 350 351 351 351 351 351 351 351 351 350 350 349 349 348 347
343 345 348 347 350 350 350 350 350 349 351 351 346 350 349 350 351 351 352 352 351 351 352 350 351 350 350 351 350 351 349 351 351 351 347 348 349 350 351 350 349 348 348
344 347 348 347 349 350 350 350 351 351 351 349 351 351 351 351 351 352 351 351 352 351 351 351 351 350 348 349 349 349 351 352 350 348 348 348 348 348 349 349 349 348 347
347 348 349 347 349 350 348 348 350 349 350 350 350 351 351 351 352 350 349 350 351 351 350 352 350 350 349 349 350 351 351 350 346 346 346 347 348 349 349 349 348 348 347
342 345 348 349 350 351 349 348 351 351 351 350 351 351 351 352 351 353 351 353 349 351 351 352 346 345 348 349 351 352 350 346 344 345 347 348 347 350 350 349 348 347 343
349 349 348 348 351 351 348 350 351 350 351 350 351 352 351 351 351 351 352 352 350 350 351 350 349 347 348 348 349 352 350 343 339 341 346 346 349 349 349 349 345 341 341
347 349 348 348 351 351 351 349 351 351 351 349 351 351 351 352 351 352 351 352 350 348 347 344 344 344 347 344 346 351 343 343 344 344 338 342 347 347 347 346 343 339 345
341 344 347 351 350 351 351 348 351 351 349 351 351 350 351 350 351 352 351 348 348 346 343 341 342 342 344 343 345 347 341 339 341 337 334 334 335 345 346 345 341 333 333
349 347 343 347 351 350 350 352 351 351 351 351 351 348 353 352 351 351 349 351 350 346 333 337 340 341 342 343 346 345 339 332 328 328 330 338 344 343 344 340 333 337 333
351 347 347 350 349 351 349 350 350 347 350 349 348 351 349 350 350 347 347 347 346 339 334 334 337 340 341 342 344 347 342 340 336 336 329 330 331 336 332 330 330 331 333
350 348 350 346 349 348 350 347 344 343 344 346 348 346 345 346 345 346 348 343 340 336 334 336 338 339 338 338 341 343 343 339 332 334 329 328 329 335 331 330 331 332 335
347 348 347 346 347 347 347 345 343 342 344 344 343 343 343 343 341 340 341 341 342 343 343 342 341 342 344 345 347 347 344 342 339 327 328 328 328 329 330 331 333 335 336
348 348 348 343 345 344 344 342 340 341 340 339 343 345 342 341 340 342 344 345 343 342 341 341 341 341 342 343 343 344 343 343 337 327 328 328 328 329 331 333 334 336 338
347 348 347 345 343 341 341 340 340 339 341 340 341 343 340 338 339 341 344 343 342 342 344 344 343 344 344 342 341 339 342 339 335 327 327 328 329 331 333 335 337 338 340
347 348 346 344 342 341 342 342 341 339 339 335 339 342 341 340 341 342 342 340 340 343 346 345 344 345 345 341 341 339 338 337 333 325 326 328 330 333 336 338 339 340 341
346 347 347 345 346 344 340 341 336 335 337 337 341 342 343 344 344 342 342 344 345 345 346 346 345 345 347 341 341 340 340 340 337 330 331 332 334 336 338 340 342 343 343
346 346 346 346 346 345 343 337 335 336 340 337 343 344 345 345 344 344 344 345 346 345 345 346 347 346 342 343 343 341 340 341 343 343 339 336 336 337 339 341 342 343 343
346 346 347 348 346 346 345 343 342 338 342 344 344 343 345 346 344 345 345 342 345 344 347 347 351 343 342 342 342 342 341 341 342 344 344 343 344 344 342 342 342 342 343
345 346 346 345 346 345 345 344 345 345 343 344 345 346 347 347 345 345 346 345 345 347 345 349 350 346 343 343 342 344 343 342 341 343 344 343 344 345 345 345 346 345 346
345 346 346 345 344 344 345 346 345 346 347 346 347 346 346 344 342 344 346 343 344 347 348 350 349 344 344 348 347 344 343 343 341 342 343 343 344 345 344 344 344 345 345
344 346 344 343 345 346 347 346 346 346 347 348 349 349 346 346 344 346 347 338 345 347 349 351 349 347 345 348 349 346 340 342 344 344 344 343 344 344 345 346 345 344 345
344 345 342 343 343 345 345 346 345 346 346 348 349 347 348 347 346 346 347 337 344 346 347 348 350 349 349 344 344 348 342 343 345 343 344 345 345 345 345 347 349 349 347
345 345 342 344 344 346 347 347 346 345 346 345 345 347 349 348 348 348 348 341 343 346 347 350 349 348 347 346 348 341 342 343 341 344 343 339 339 344 343 346 346 350 350
345 345 342 345 346 347 346 346 346 347 346 346 345 348 349 348 348 344 347 345 344 343 349 351 350 343 348 347 348 343 342 341 341 342 340 343 340 341 340 340 336 343 345
346 344 345 344 345 345 347 347 347 347 347 346 347 348 347 348 349 350 348 348 343 345 349 350 349 346 345 349 349 343 345 346 340 339 336 335 333 336 342 340 342 345 344